[[{"header":{"parameterUnit":"m.s-1","parameterCategory":1,"la1":30.6,"la2":28.766,"lo1":-90.7593,"lo2":-88.6598,"dy":0.0162,"dx":0.0183,"nx":116,"ny":114,"refTime":"2024-03-18T06:00:00:Z","depth":0,"parameterNumber":2,"parameterNumberName":"U-component_of_WINDS"},"data":[0.0,0.0,0.0,0.0,0.0,0.0,0.0,0.0,0.0,0.0,0.0,0.0,0.0,0.0,0.0,0.0,0.0,0.0,0.0,0.0,0.0,0.0,0.0,0.0,0.0,0.0,0.0,0.0,0.0,0.0,0.0,0.0,0.0,0.0,0.0,0.0,0.0,0.0,0.0,0.0,0.0,0.0,0.0,0.0,0.0,0.0,0.0,0.0,0.0,0.0,0.0,0.0,0.0,0.0,0.0,0.0,0.0,0.0,0.0,0.0,0.0,0.0,0.0,0.0,0.0,0.0,0.0,0.0,0.0,0.0,0.0,0.0,0.0,0.0,0.0,0.0,0.0,0.0,0.0,0.0,0.0,0.0,0.0,0.0,0.0,0.0,0.0,0.0,0.0,0.0,0.0,0.0,0.0,0.0,0.0,0.0,0.0,0.0,0.0,0.0,0.0,0.0,0.0,0.0,0.0,0.0,0.0,0.0,0.0,0.0,0.0,0.0,0.0,0.0,0.0,0.0,0.0,0.0,0.0,0.0,0.0,0.0,0.0,0.0,0.0,0.0,0.0,0.0,0.0,0.0,0.0,0.0,0.0,0.0,0.0,0.0,0.0,0.0,0.0,0.0,0.0,0.0,0.0,0.0,0.0,0.0,0.0,0.0,0.0,0.0,0.0,0.0,0.0,0.0,0.0,0.0,0.0,0.0,0.0,0.0,0.0,0.0,0.0,0.0,0.0,0.0,0.0,0.0,0.0,0.0,0.0,0.0,0.0,0.0,0.0,0.0,0.0,0.0,0.0,0.0,0.0,0.0,0.0,0.0,0.0,0.0,0.0,0.0,0.0,0.0,0.0,0.0,0.0,0.0,0.0,0.0,0.0,0.0,0.0,0.0,0.0,0.0,0.0,0.0,0.0,0.0,0.0,0.0,0.0,0.0,0.0,0.0,0.0,0.0,0.0,0.0,0.0,0.0,0.0,0.0,0.0,0.0,0.0,0.0,0.0,0.0,0.0,0.0,0.0,0.0,0.0,0.0,0.0,0.0,0.0,0.0,0.0,0.0,0.0,0.0,0.0,0.0,0.0,0.0,0.0,0.0,0.0,0.0,0.0,0.0,0.0,0.0,0.0,0.0,0.0,0.0,0.0,0.0,0.0,0.0,0.0,0.0,0.0,0.0,0.0,0.0,0.0,0.0,0.0,0.0,0.0,0.0,0.0,0.0,0.0,0.0,0.0,0.0,0.0,0.0,0.0,0.0,0.0,0.0,0.0,0.0,0.0,0.0,0.0,0.0,0.0,0.0,0.0,0.0,0.0,0.0,0.0,0.0,0.0,0.0,0.0,0.0,0.0,0.0,0.0,0.0,0.0,0.0,0.0,0.0,0.0,0.0,0.0,0.0,0.0,0.0,0.0,0.0,0.0,0.0,0.0,0.0,0.0,0.0,0.0,0.0,0.0,0.0,0.0,0.0,0.0,0.0,0.0,0.0,0.0,0.0,0.0,0.0,0.0,0.0,0.0,0.0,0.0,0.0,0.0,0.0,0.0,0.0,0.0,0.0,0.0,0.0,0.0,0.0,0.0,0.0,0.0,0.0,0.0,0.0,0.0,0.0,0.0,0.0,0.0,0.0,0.0,0.0,0.0,0.0,0.0,0.0,0.0,0.0,0.0,0.0,0.0,0.0,0.0,0.0,0.0,0.0,0.0,0.0,0.0,0.0,0.0,0.0,0.0,0.0,0.0,0.0,0.0,0.0,0.0,0.0,0.0,0.0,0.0,0.0,0.0,0.0,0.0,0.0,0.0,0.0,0.0,0.0,0.0,0.0,0.0,0.0,0.0,0.0,0.0,0.0,0.0,0.0,0.0,0.0,0.0,0.0,0.0,0.0,0.0,0.0,0.0,0.0,0.0,0.0,0.0,0.0,0.0,0.0,0.0,0.0,0.0,0.0,0.0,0.0,0.0,0.0,0.0,0.0,0.0,0.0,0.0,0.0,0.0,0.0,0.0,0.0,0.0,0.0,0.0,0.0,0.0,0.0,0.0,0.0,0.0,0.0,0.0,0.0,0.0,0.0,0.0,0.0,0.0,0.0,0.0,0.0,0.0,0.0,0.0,0.0,0.0,0.0,0.0,0.0,0.0,0.0,0.0,0.0,0.0,0.0,0.0,0.0,0.0,0.0,0.0,0.0,0.0,0.0,0.0,0.0,0.0,0.0,0.0,0.0,0.0,0.0,0.0,0.0,0.0,0.0,0.0,0.0,0.0,0.0,0.0,0.0,0.0,0.0,0.0,0.0,0.0,0.0,0.0,0.0,0.0,0.0,0.0,0.0,0.0,0.0,0.0,0.0,0.0,0.0,0.0,0.0,0.0,0.0,0.0,0.0,0.0,0.0,0.0,0.0,0.0,0.0,0.0,0.0,0.0,0.0,0.0,0.0,0.0,0.0,0.0,0.0,0.0,0.0,0.0,0.0,0.0,0.0,0.0,0.0,0.0,0.0,0.0,0.0,0.0,0.0,0.0,0.0,0.0,0.0,0.0,0.0,0.0,0.0,0.0,0.0,0.0,0.0,0.0,0.0,0.0,0.0,0.0,0.0,0.0,0.0,0.0,0.0,0.0,0.0,0.0,0.0,0.0,0.0,0.0,0.0,0.0,0.0,0.0,0.0,0.0,0.0,0.0,0.0,0.0,0.0,0.0,0.0,0.0,0.0,0.0,0.0,0.0,0.0,0.0,0.0,0.0,0.0,0.0,0.0,0.0,0.0,0.0,0.0,0.0,0.0,0.0,0.0,0.0,0.0,0.0,0.0,0.0,0.0,0.0,0.0,0.0,0.0,0.0,0.0,0.0,0.0,0.0,0.0,0.0,0.0,0.0,0.0,0.0,0.0,0.0,0.0,0.0,0.0,0.0,0.0,0.0,0.0,0.0,0.0,0.0,0.0,0.0,0.0,0.0,0.0,0.0,0.0,0.0,0.0,0.0,0.0,0.0,0.0,0.0,0.0,0.0,0.0,0.0,0.0,0.0,0.0,0.0,0.0,0.0,0.0,0.0,0.0,0.0,0.0,0.0,0.0,0.0,0.0,0.0,0.0,0.0,0.0,0.0,0.0,0.0,0.0,0.0,0.0,0.0,0.0,0.0,0.0,0.0,0.0,0.0,0.0,0.0,0.0,0.0,0.0,0.0,0.0,0.0,0.0,0.0,0.0,0.0,0.0,0.0,0.0,0.0,0.0,0.0,0.0,0.0,0.0,0.0,0.0,0.0,0.0,0.0,0.0,0.0,0.0,0.0,0.0,0.0,0.0,0.0,0.0,0.0,0.0,0.0,0.0,0.0,0.0,0.0,0.0,0.0,0.0,0.0,0.0,0.0,0.0,0.0,0.0,0.0,0.0,0.0,0.0,0.0,0.0,0.0,0.0,0.0,0.0,0.0,0.0,0.0,0.0,0.0,0.0,0.0,0.0,0.0,0.0,0.0,0.0,0.0,0.0,0.0,0.0,0.0,0.0,0.0,0.0,0.0,0.0,0.0,0.0,0.0,0.0,0.0,0.0,0.0,0.0,0.0,0.0,0.0,0.0,0.0,0.0,0.0,0.0,0.0,0.0,0.0,0.0,0.0,0.0,0.0,0.0,0.0,0.0,0.0,0.0,0.0,0.0,0.0,0.0,0.0,0.0,0.0,0.0,0.0,0.0,0.0,0.0,0.0,0.0,0.0,0.0,0.0,0.0,0.0,0.0,0.0,0.0,0.0,0.0,0.0,0.0,0.0,0.0,0.0,0.0,0.0,0.0,0.0,0.0,0.0,0.0,0.0,0.0,0.0,0.0,0.0,0.0,0.0,0.0,0.0,0.0,0.0,0.0,0.0,0.0,0.0,0.0,0.0,0.0,0.0,0.0,0.0,0.0,0.0,0.0,0.0,0.0,0.0,0.0,0.0,0.0,0.0,0.0,0.0,0.0,0.0,0.0,0.0,0.0,0.0,0.0,0.0,0.0,0.0,0.0,0.0,0.0,0.0,0.0,0.0,0.0,0.0,0.0,0.0,0.0,0.0,0.0,0.0,0.0,0.0,0.0,0.0,0.0,0.0,0.0,0.0,0.0,0.0,0.0,0.0,0.0,0.0,0.0,0.0,0.0,0.0,0.0,0.0,0.0,0.0,0.0,0.0,0.0,0.0,0.0,0.0,0.0,0.0,0.0,0.0,0.0,0.0,0.0,0.0,0.0,0.0,0.0,0.0,0.0,0.0,0.0,0.0,0.0,0.0,0.0,0.0,0.0,0.0,0.0,0.0,0.0,0.0,0.0,0.0,0.0,0.0,0.0,0.0,0.0,0.0,0.0,0.0,0.0,0.0,0.0,0.0,0.0,0.0,0.0,0.0,0.0,0.0,0.0,0.0,0.0,0.0,0.0,0.0,0.0,0.0,0.0,0.0,0.0,0.0,0.0,0.0,0.0,0.0,0.0,0.0,0.0,0.0,0.0,0.0,0.0,0.0,0.0,0.0,0.0,0.0,0.0,0.0,0.0,0.0,0.0,0.0,0.0,0.0,0.0,0.0,0.0,0.0,0.0,0.0,0.0,0.0,0.0,0.0,0.0,0.0,0.0,0.0,0.0,0.0,0.0,0.0,0.0,0.0,0.0,0.0,0.0,0.0,0.0,0.0,0.0,0.0,0.0,0.0,0.0,0.0,0.0,0.0,0.0,0.0,0.0,0.0,0.0,0.0,0.0,0.0,0.0,0.0,0.0,0.0,0.0,0.0,0.0,0.0,0.0,0.0,0.0,0.0,0.0,0.0,0.0,0.0,0.0,0.0,0.0,0.0,0.0,0.0,0.0,0.0,0.0,0.0,0.0,0.0,0.0,0.0,0.0,0.0,0.0,0.0,0.0,0.0,0.0,0.0,0.0,0.0,0.0,0.0,0.0,0.0,0.0,0.0,0.0,0.0,0.0,0.0,0.0,0.0,0.0,0.0,0.0,0.0,0.0,0.0,0.0,0.0,0.0,0.0,0.0,0.0,0.0,0.0,0.0,0.0,0.0,0.0,0.0,0.0,0.0,0.0,0.0,0.0,0.0,0.0,0.0,0.0,0.0,0.0,0.0,0.0,0.0,0.0,0.0,0.0,0.0,0.0,0.0,0.0,0.0,0.0,0.0,0.0,0.0,0.0,0.0,0.0,0.0,0.0,0.0,0.0,0.0,0.0,0.0,0.0,0.0,0.0,0.0,0.0,0.0,0.0,0.0,0.0,0.0,0.0,0.0,0.0,0.0,0.0,0.0,0.0,0.0,0.0,0.0,0.0,0.0,0.0,0.0,0.0,0.0,0.0,0.0,0.0,0.0,0.0,0.0,0.0,0.0,0.0,0.0,0.0,0.0,0.0,0.0,0.0,0.0,0.0,0.0,0.0,0.0,0.0,0.0,0.0,0.0,0.0,0.0,0.0,0.0,0.0,0.0,0.0,0.0,0.0,0.0,0.0,0.0,0.0,0.0,0.0,0.0,0.0,0.0,0.0,0.0,0.0,0.0,0.0,0.0,0.0,0.0,0.0,0.0,0.0,0.0,0.0,0.0,0.0,0.0,0.0,0.0,0.0,0.0,0.0,0.0,0.0,0.0,0.0,0.0,0.0,0.0,0.0,0.0,0.0,0.0,0.0,0.0,0.0,0.0,0.0,0.0,0.0,0.0,0.0,0.0,0.0,0.0,0.0,0.0,0.0,0.0,0.0,0.0,0.0,0.0,0.0,0.0,0.0,0.0,0.0,0.0,0.0,0.0,0.0,0.0,0.0,0.0,0.0,0.0,0.0,0.0,0.0,0.0,0.0,0.0,0.0,0.0,0.0,0.0,0.0,0.0,0.0,0.0,0.0,0.0,0.0,0.0,0.0,0.0,0.0,0.0,0.0,0.0,0.0,0.0,0.0,0.0,0.0,0.0,0.0,0.0,0.0,0.0,0.0,0.0,0.0,0.0,0.0,0.0,0.0,0.0,0.0,0.0,0.0,0.0,0.0,0.0,0.0,0.0,0.0,0.0,0.0,0.0,0.0,0.0,0.0,0.0,0.0,0.0,0.0,0.0,0.0,0.0,0.0,0.0,0.0,0.0,0.0,0.0,0.0,0.0,4.3812,0.0,0.0,0.0,0.0,0.0,0.0,0.0,0.0,0.0,0.0,0.0,0.0,0.0,0.0,0.0,0.0,0.0,0.0,0.0,0.0,0.0,0.0,0.0,0.0,0.0,0.0,0.0,0.0,0.0,0.0,0.0,0.0,0.0,0.0,0.0,0.0,0.0,3.1804,3.1804,3.2145,3.2904,3.4007,3.4007,3.4034,3.4125,0.0,0.0,0.0,0.0,0.0,0.0,0.0,0.0,0.0,0.0,0.0,0.0,0.0,0.0,0.0,0.0,0.0,0.0,0.0,0.0,0.0,0.0,0.0,0.0,0.0,0.0,0.0,0.0,0.0,0.0,0.0,0.0,0.0,0.0,0.0,0.0,0.0,0.0,0.0,0.0,0.0,0.0,0.0,0.0,0.0,0.0,0.0,0.0,0.0,0.0,0.0,0.0,0.0,0.0,0.0,0.0,0.0,0.0,0.0,0.0,0.0,0.0,0.0,0.0,0.0,0.0,0.0,0.0,0.0,0.0,0.0,4.4619,0.0,0.0,0.0,0.0,0.0,0.0,0.0,0.0,0.0,0.0,0.0,0.0,0.0,0.0,0.0,0.0,0.0,0.0,0.0,0.0,0.0,0.0,0.0,3.1842,3.1804,3.1804,3.1804,3.1804,0.0,0.0,0.0,0.0,0.0,3.1804,3.1804,3.1925,3.1994,3.1994,3.2869,3.3955,3.5202,3.5323,3.5064,3.45,3.5116,0.0,0.0,0.0,0.0,0.0,0.0,0.0,0.0,0.0,0.0,0.0,0.0,0.0,0.0,0.0,0.0,0.0,0.0,0.0,0.0,0.0,0.0,0.0,0.0,0.0,0.0,0.0,0.0,0.0,0.0,0.0,0.0,0.0,0.0,0.0,0.0,0.0,0.0,0.0,0.0,0.0,0.0,0.0,0.0,0.0,0.0,0.0,0.0,0.0,0.0,0.0,0.0,0.0,0.0,0.0,0.0,0.0,0.0,0.0,0.0,0.0,0.0,0.0,4.5037,4.5384,4.6105,4.5965,4.5984,4.6117,4.5593,4.5673,4.6171,4.6096,0.0,0.0,0.0,0.0,0.0,0.0,0.0,0.0,0.0,0.0,0.0,0.0,0.0,0.0,0.0,0.0,0.0,0.0,0.0,0.0,0.0,3.1842,3.1804,3.1804,3.1804,3.1804,3.1804,0.0,3.1804,3.1804,3.1804,3.1804,3.1804,3.2421,3.2744,3.2766,3.4185,3.4995,3.5202,3.5858,3.6094,3.6013,3.6111,3.6146,3.6168,0.0,0.0,0.0,0.0,0.0,0.0,0.0,0.0,0.0,0.0,0.0,0.0,0.0,0.0,0.0,0.0,0.0,0.0,0.0,0.0,0.0,0.0,0.0,0.0,0.0,0.0,0.0,0.0,0.0,0.0,0.0,0.0,0.0,0.0,0.0,0.0,0.0,0.0,0.0,0.0,0.0,4.0538,4.1352,0.0,0.0,0.0,0.0,0.0,0.0,0.0,0.0,0.0,0.0,0.0,0.0,0.0,4.58,4.5774,4.5666,4.5681,4.5777,4.5759,4.5878,4.6105,4.5965,4.6333,4.7095,4.6907,0.0,4.6096,4.5984,0.0,0.0,0.0,0.0,0.0,0.0,0.0,0.0,0.0,0.0,0.0,0.0,0.0,0.0,0.0,0.0,0.0,0.0,0.0,0.0,0.0,3.1842,3.1804,3.1804,3.1804,3.1804,3.1804,3.1804,3.1804,3.1804,3.1804,3.199,3.2403,3.2726,3.3317,3.4185,3.4875,3.5409,3.5823,3.6146,3.6301,3.6301,3.6301,3.6301,3.6301,3.6301,0.0,0.0,0.0,0.0,0.0,0.0,0.0,0.0,0.0,0.0,0.0,0.0,0.0,0.0,0.0,0.0,0.0,0.0,0.0,0.0,0.0,0.0,0.0,0.0,0.0,0.0,0.0,0.0,0.0,0.0,0.0,0.0,0.0,0.0,0.0,0.0,0.0,0.0,0.0,4.0832,4.1356,4.212,4.2228,4.2395,0.0,0.0,0.0,0.0,0.0,0.0,0.0,0.0,0.0,4.5513,4.5934,4.6105,4.5988,4.6002,4.6195,4.6571,4.6571,4.6833,4.7321,4.7279,4.7462,4.7862,4.7802,4.7609,4.7339,4.7274,4.7283,4.7339,0.0,0.0,0.0,0.0,4.7471,4.7764,0.0,0.0,0.0,0.0,0.0,0.0,0.0,0.0,0.0,0.0,0.0,0.0,3.1893,3.1829,3.1804,3.1804,3.1804,3.1804,3.1804,3.1804,3.1804,3.1804,3.1972,3.2334,3.2886,3.3283,3.4145,3.5478,3.5478,3.5766,3.6301,3.6301,3.6301,3.6301,3.6301,3.6301,3.6301,3.6301,3.6301,3.6301,0.0,0.0,0.0,0.0,0.0,0.0,0.0,0.0,0.0,0.0,0.0,0.0,0.0,0.0,0.0,0.0,0.0,0.0,0.0,0.0,0.0,0.0,0.0,0.0,0.0,0.0,0.0,0.0,0.0,0.0,0.0,0.0,0.0,0.0,0.0,0.0,0.0,4.1729,4.1975,4.2603,4.2799,4.3133,0.0,0.0,0.0,0.0,0.0,0.0,4.6133,4.6285,4.6305,4.6214,4.6557,4.6672,4.6526,4.6618,4.6907,4.7411,4.7411,4.7723,4.8301,4.8301,4.8301,4.8301,4.8301,4.8301,4.8301,4.8301,4.8301,4.8301,4.8301,4.8301,4.8301,4.8301,4.8301,4.8301,0.0,0.0,0.0,0.0,0.0,0.0,0.0,0.0,0.0,0.0,0.0,3.2019,3.1837,3.1809,3.1804,3.1804,3.1804,3.1804,3.1804,3.1804,3.1804,3.1804,3.2472,3.2864,3.2899,3.4335,3.5478,3.6232,3.6232,3.6266,3.6301,3.6301,3.6301,3.6301,3.6301,3.6301,3.6301,3.6301,3.6301,3.6301,3.6301,0.0,0.0,0.0,0.0,0.0,0.0,0.0,0.0,0.0,0.0,0.0,0.0,0.0,0.0,0.0,0.0,0.0,0.0,0.0,0.0,0.0,0.0,0.0,0.0,0.0,0.0,0.0,0.0,0.0,0.0,0.0,0.0,0.0,0.0,0.0,0.0,0.0,0.0,4.2577,4.3055,0.0,0.0,0.0,0.0,4.5454,4.5727,4.5924,4.6091,4.6705,4.7049,4.7044,4.7792,4.8201,4.8173,4.8196,4.8214,4.8246,4.8246,4.826,4.8301,4.8301,4.8301,4.8301,4.8301,4.8301,4.8301,4.8301,4.8301,4.8301,4.8301,4.8301,4.8301,4.8301,4.8301,4.8301,0.0,0.0,0.0,0.0,0.0,0.0,0.0,0.0,3.2284,3.217,3.2122,3.2041,3.1875,3.1824,3.1804,3.1804,3.1804,3.1804,3.1804,3.1804,3.1804,3.1804,3.2507,3.3369,3.4357,3.5387,3.6042,3.6301,3.6301,3.6301,3.6301,3.6301,3.6301,3.6301,3.6301,3.6301,3.6301,3.6301,3.6301,3.6301,3.6301,3.6301,0.0,0.0,0.0,0.0,0.0,0.0,0.0,0.0,0.0,0.0,0.0,0.0,0.0,0.0,0.0,0.0,0.0,0.0,0.0,0.0,0.0,0.0,0.0,0.0,0.0,0.0,0.0,0.0,0.0,0.0,0.0,0.0,0.0,0.0,0.0,0.0,0.0,4.3014,4.3334,0.0,4.4148,4.4515,4.5174,4.6198,4.6009,4.6222,4.7152,4.7337,4.7566,4.7865,4.815,4.8301,4.8301,4.8005,4.8005,4.8296,4.7995,4.801,4.8301,4.8301,4.8301,4.8301,4.8301,4.8301,4.8301,4.8301,4.8301,4.8301,4.8301,4.8301,4.8301,4.8301,4.8301,4.8301,0.0,0.0,0.0,0.0,0.0,0.0,0.0,0.0,3.2284,3.2175,3.2095,3.1984,3.1875,3.1824,3.1804,3.1804,3.1804,3.1804,3.1804,3.2024,3.2162,3.2162,3.3145,3.4266,3.5547,3.6047,3.6301,3.6301,3.6301,3.6439,3.6703,3.6703,3.6841,3.7082,3.7082,3.6944,3.6703,3.6703,3.6548,3.6301,3.6301,3.6301,3.6301,0.0,0.0,0.0,0.0,0.0,0.0,0.0,0.0,0.0,0.0,0.0,0.0,0.0,0.0,0.0,0.0,0.0,0.0,0.0,0.0,0.0,0.0,0.0,0.0,0.0,0.0,0.0,0.0,0.0,0.0,0.0,0.0,0.0,0.0,0.0,4.2961,4.3198,4.3555,4.4006,4.4612,4.4863,4.5491,4.6683,4.6403,4.6636,4.7684,4.7496,4.7501,4.7824,4.798,4.806,4.806,4.7902,4.7995,4.8296,4.799,4.8,4.8301,4.8301,4.8301,4.8301,4.8301,4.8301,4.8301,4.8301,4.8301,4.8301,4.8301,4.8301,4.8301,4.8301,4.8301,4.8301,0.0,0.0,0.0,0.0,0.0,0.0,0.0,3.2284,3.217,3.2104,3.1984,3.188,3.1818,3.1804,3.1804,3.1804,3.1804,3.18,3.1834,3.2507,3.2916,3.2968,3.4409,3.5547,3.6284,3.6301,3.6318,3.6335,3.6335,3.676,3.7524,3.7524,3.7916,3.8606,3.8606,3.8192,3.7524,3.7524,3.7088,3.637,3.6318,3.6301,3.6301,0.0,0.0,0.0,0.0,0.0,0.0,0.0,0.0,0.0,0.0,0.0,0.0,0.0,0.0,0.0,0.0,0.0,0.0,0.0,0.0,0.0,0.0,0.0,0.0,0.0,0.0,0.0,0.0,0.0,0.0,0.0,0.0,0.0,4.2047,4.2597,4.3015,4.3112,4.3718,4.4416,4.5123,4.5574,4.6102,4.6814,4.6863,4.706,4.7554,4.7143,4.6908,4.6925,4.7362,4.7596,4.758,4.801,4.8248,4.8263,4.8263,4.8286,4.8319,4.8328,4.8356,4.8375,4.8375,4.8375,4.8375,4.8375,4.8375,4.837,4.8315,4.8301,4.8301,4.8301,4.8301,4.8301,0.0,0.0,0.0,0.0,0.0,0.0,0.0,3.2284,3.2188,3.217,3.2015,3.1885,3.1875,3.1829,3.1804,3.1804,3.1804,3.2029,3.2554,3.28,3.3404,3.4512,3.4961,3.5547,3.6284,3.6301,3.6582,3.7174,3.7174,3.7553,3.8295,3.8295,3.8416,3.8606,3.8606,3.8485,3.8295,3.8295,3.8174,3.7876,3.6754,3.6301,3.6301,0.0,0.0,0.0,0.0,0.0,0.0,0.0,0.0,0.0,0.0,0.0,0.0,0.0,0.0,0.0,0.0,0.0,0.0,0.0,0.0,0.0,0.0,0.0,0.0,0.0,0.0,0.0,0.0,0.0,0.0,0.0,0.0,4.2705,4.2844,4.2785,4.2996,4.3737,4.4469,4.4982,4.5188,4.5735,4.6164,4.6376,4.6038,4.6193,4.7061,4.6976,4.7066,4.7399,4.7538,4.7437,4.7093,4.6879,4.6942,4.7275,4.7275,4.776,4.8678,4.9072,4.9559,5.01,5.01,5.01,5.01,5.01,5.01,4.999,4.8778,4.8301,4.8301,4.8301,4.8301,4.8301,0.0,0.0,0.0,0.0,0.0,0.0,0.0,3.2284,3.2197,3.2197,3.2024,3.1899,3.1899,3.1842,3.1804,3.1804,3.208,3.2438,3.2869,3.3502,3.4404,3.5616,3.5668,3.5858,3.6284,3.6634,3.703,3.7507,3.7818,3.8347,3.9066,3.9066,3.9244,3.9554,3.9554,3.9382,3.9066,3.9066,3.8882,3.8519,3.7617,3.7082,3.6777,3.6427,3.6301,3.6301,3.6301,3.6301,3.6301,3.6301,0.0,0.0,0.0,0.0,0.0,0.0,0.0,0.0,0.0,0.0,0.0,0.0,0.0,0.0,0.0,0.0,0.0,0.0,0.0,0.0,0.0,0.0,0.0,0.0,4.2795,4.3226,4.3681,4.3493,4.3626,4.4453,4.4998,4.538,4.561,4.5775,4.5968,4.618,4.5695,4.5752,4.6554,4.6388,4.6541,4.7163,4.7378,4.7608,4.7866,4.7588,4.7708,4.8205,4.7965,4.8411,4.9446,4.9757,5.0326,5.1052,5.1052,5.1052,5.1052,5.1052,5.1204,0.0,0.0,0.0,0.0,0.0,4.9347,4.9347,0.0,0.0,0.0,0.0,0.0,0.0,0.0,3.2284,3.2197,3.2197,3.2024,3.1899,3.1899,3.1842,3.1804,3.1804,3.2472,3.2968,3.3145,3.4443,3.553,3.6266,3.6301,3.6335,3.6422,3.7139,3.7576,3.7743,3.8399,3.9106,3.9842,3.9842,4.0227,4.0906,4.0906,4.0503,3.9842,3.9842,3.9468,3.8847,3.8755,3.8226,3.7421,3.6703,3.6387,3.6301,3.6301,3.6301,3.6301,3.6301,0.0,0.0,0.0,0.0,0.0,0.0,0.0,0.0,0.0,0.0,0.0,0.0,0.0,0.0,0.0,0.0,0.0,0.0,0.0,0.0,0.0,0.0,0.0,0.0,4.3015,4.3702,4.4505,4.4513,4.4614,4.5163,4.5374,4.566,4.6062,4.5727,4.5667,4.6075,4.5743,4.5788,4.6383,0.0,0.0,0.0,0.0,4.8006,4.9011,4.9111,4.9382,4.9857,4.9537,4.9764,5.0474,5.0537,5.0976,5.1669,5.1669,5.1669,5.1669,5.1669,5.1995,5.2387,5.1446,5.1072,5.1072,5.1072,5.1072,5.1072,0.0,0.0,0.0,0.0,0.0,0.0,0.0,3.2284,3.2197,3.2197,3.2024,3.1899,3.1899,3.1842,3.1804,3.1804,3.2472,3.3438,3.4663,3.503,3.553,3.6266,3.6301,3.6599,3.7243,3.7421,3.8088,3.9273,3.9428,3.9894,4.0664,4.0664,4.075,4.0906,4.0906,4.0819,4.0664,4.0664,4.0595,4.0405,3.9744,3.8692,3.7472,3.7334,3.6863,3.6301,3.6301,3.6301,3.6301,3.6301,3.6301,3.6301,3.6301,3.676,0.0,0.0,0.0,0.0,0.0,0.0,0.0,0.0,0.0,0.0,0.0,0.0,0.0,0.0,0.0,0.0,0.0,0.0,0.0,4.3843,4.4177,4.4522,4.5278,4.5271,4.5232,4.5345,4.5773,4.5924,4.5589,4.5854,4.5911,4.5576,4.6056,4.6769,4.7684,4.8205,4.8547,4.8682,4.8798,4.8554,4.8,4.858,4.8923,4.9046,0.0,0.0,5.1592,5.1983,5.258,5.3334,5.3334,5.3334,5.3334,5.3334,5.3406,5.3463,5.2929,5.2737,5.2737,5.2737,5.2737,5.2737,0.0,0.0,0.0,0.0,0.0,0.0,0.0,3.2341,3.2293,3.2293,3.2153,3.2046,3.2046,3.1925,3.1883,3.1938,3.2585,3.3622,3.5104,3.5202,3.553,3.6266,3.6685,3.7088,3.749,3.8226,3.8962,3.9704,4.0106,4.0509,4.0906,4.0906,4.0906,4.0906,4.0906,4.0906,4.0906,4.0906,4.0906,4.0854,4.0451,3.9623,3.8554,3.8192,3.7571,3.6944,3.7324,3.7203,3.6967,3.7324,3.7444,3.7444,3.7444,3.7726,3.8054,0.0,0.0,0.0,0.0,0.0,0.0,0.0,0.0,0.0,0.0,0.0,0.0,0.0,0.0,4.1561,4.1935,0.0,4.3495,4.4268,4.4716,4.5077,4.545,4.5443,4.5397,4.5397,4.5641,4.5688,4.543,4.6012,4.6289,4.6016,4.6703,4.7374,4.7863,4.8257,4.8613,4.8993,4.939,4.9666,4.9799,5.0269,5.0642,5.0916,5.127,5.1868,5.2655,5.2896,5.341,5.4154,5.4154,5.4154,5.4175,5.4479,5.4606,5.4635,5.5015,5.4474,5.3501,5.3501,5.369,5.3944,0.0,0.0,0.0,0.0,0.0,0.0,0.0,3.2406,3.2406,3.2406,3.2275,3.2197,3.2197,3.2042,3.2027,3.2268,3.2629,3.3517,3.5109,3.5064,3.5375,3.6266,3.707,3.7576,3.7714,3.9014,3.9773,3.9928,4.0578,4.0906,4.0906,4.0906,4.0906,4.0906,4.0906,4.0906,4.0906,4.0906,4.0906,4.0906,4.0906,4.0503,3.9876,3.9273,3.849,3.78,3.8381,3.8226,3.7795,3.8399,3.8606,3.8606,3.8606,3.8692,3.8807,3.8807,3.8916,0.0,0.0,0.0,0.0,0.0,0.0,0.0,0.0,0.0,4.094,4.1078,4.1596,4.209,4.2389,4.3459,4.4356,4.4488,4.5003,4.5397,4.5397,4.5397,4.5397,4.5397,4.5397,4.5466,4.5628,4.6221,4.6658,4.6789,4.7496,4.7959,4.8059,4.8342,4.8792,4.9373,5.0176,5.0962,5.1742,5.2052,5.2347,5.2623,5.2332,5.2617,5.3408,5.3408,5.3797,5.4504,5.4504,5.4504,5.4543,5.5023,5.5224,5.5321,5.6244,5.5513,5.398,5.4447,5.4925,5.5341,0.0,0.0,0.0,0.0,0.0,0.0,0.0,0.0,3.2406,3.2406,3.2275,3.2197,3.2197,3.2126,3.2324,3.2936,3.2349,3.2866,3.5069,3.4586,3.484,3.6232,3.707,3.7818,3.8462,3.9273,4.0049,4.0768,4.0854,4.0906,4.0906,4.0906,4.0906,4.0906,4.0906,4.0906,4.0906,4.0906,4.0906,4.0906,4.0906,4.086,4.0768,4.0664,3.9733,3.8485,3.8571,3.8554,3.8485,3.8571,3.8606,3.8606,3.8606,3.9048,3.9583,3.9583,4.0083,4.0664,4.0733,4.0768,4.0785,4.0871,4.0906,4.0906,0.0,0.0,4.1096,4.1745,4.1935,4.2418,4.3787,4.4184,4.4505,4.5169,4.5345,4.5397,4.5397,4.5397,4.5397,4.5397,4.5397,4.5679,4.6393,4.6555,4.6876,4.7531,4.8265,4.8882,4.936,5.0687,5.1469,5.1549,5.2278,5.2189,5.1193,5.1854,5.1896,5.1324,5.193,5.2617,5.3408,5.3408,5.3797,5.4504,5.4504,5.4504,5.4512,5.4565,5.4597,5.4612,5.4743,5.4647,5.4663,5.6756,5.7576,5.7622,0.0,0.0,0.0,0.0,0.0,0.0,0.0,0.0,0.0,3.2406,3.2354,3.2323,3.2323,3.2297,3.2345,3.2493,3.2183,3.2549,3.3885,3.4051,3.4574,3.5611,3.7243,3.8278,3.8583,3.9779,4.0561,4.0906,4.0906,4.0906,4.0906,4.0906,4.0906,4.0906,4.0906,4.0906,4.0906,4.0906,4.0906,4.0906,4.0906,4.0906,4.0906,4.0906,4.0492,3.994,3.994,3.9641,0.0,3.9779,3.994,3.994,3.994,4.0147,4.04,4.04,4.0647,4.0906,4.0906,4.0906,0.0,0.0,4.0906,4.0906,4.0906,4.1234,4.1624,4.1935,4.2717,4.3545,4.4184,4.4654,4.5037,0.0,4.5397,4.5397,4.5397,4.5397,4.5569,4.6048,4.61,4.6238,4.6572,4.7376,4.8007,4.8317,4.9065,4.9593,4.9813,5.0445,5.0792,5.0792,5.1924,5.2285,5.1755,5.2944,5.3383,5.309,5.3392,5.3703,5.4038,5.4038,5.4211,5.4504,5.4504,5.4745,5.5166,5.5556,5.5781,5.592,5.6607,5.6668,5.6367,5.6452,5.6718,5.7064,0.0,0.0,0.0,0.0,0.0,0.0,0.0,0.0,0.0,0.0,3.2406,3.2406,3.2406,3.2362,3.2297,3.2135,3.2104,3.2376,3.3056,3.3742,3.4444,3.5173,3.7191,3.8399,3.8606,3.9882,4.0681,4.0906,4.0906,4.0906,4.0906,4.0906,4.0906,4.0906,4.0906,4.0906,4.0906,4.0906,4.0906,4.0906,4.0906,4.0906,4.0906,4.0906,4.0906,4.0906,4.0906,4.0526,4.0124,4.0699,4.0906,4.0906,4.0906,4.0906,4.0906,4.0906,4.0906,4.0906,4.0906,0.0,0.0,4.0906,4.1044,4.1199,4.1199,4.1786,4.2389,4.259,4.3511,4.4356,4.4574,4.5037,4.5397,4.5397,4.5397,4.5397,4.5397,4.5587,4.5945,4.6531,4.6962,4.7203,4.7203,4.8162,4.8886,4.911,4.9669,5.0003,5.0003,5.0383,5.0607,5.0607,5.2065,5.2737,5.253,5.3642,5.409,5.3866,5.3866,5.3986,5.4211,5.4624,5.4789,5.4814,5.5038,5.5435,5.5975,5.6458,5.6719,5.6895,5.7763,5.7847,5.7349,5.6572,5.6517,5.6884,0.0,0.0,0.0,0.0,0.0,0.0,0.0,0.0,0.0,0.0,0.0,0.0,0.0,3.228,3.2201,3.2192,3.2135,3.2376,3.3056,3.3787,3.4496,3.5173,3.6696,3.7869,3.8588,3.9359,4.0124,4.0906,4.0906,4.0906,4.0906,4.0906,4.0906,4.0906,4.0906,4.0906,4.0906,4.0906,4.0906,4.0906,4.0906,4.0906,4.0906,4.0906,4.0906,4.0906,4.0906,4.0871,4.0877,4.0888,4.0906,4.0906,4.0906,4.0906,4.0906,4.0906,4.0906,4.0906,4.0906,4.0906,4.0906,4.0906,4.1441,4.1969,4.1969,4.2585,4.3368,4.4087,4.4276,4.4522,4.5231,4.538,4.5397,4.5397,4.5397,4.5397,4.5397,4.6076,4.6565,4.6607,4.7851,4.873,0.0,4.8765,4.9117,4.99,4.9986,5.0003,5.0003,5.1358,5.2134,5.2134,5.3624,5.409,5.3366,5.34,5.3038,5.2264,5.2264,5.2668,5.3477,5.4909,5.5565,5.5599,5.6391,5.6736,5.6771,5.6795,5.6795,5.6796,5.6837,5.6837,5.6967,5.8081,5.8387,5.8132,0.0,0.0,0.0,0.0,0.0,0.0,0.0,0.0,0.0,0.0,0.0,0.0,0.0,0.0,0.0,0.0,3.2236,3.2253,3.2492,3.3112,3.379,3.4513,3.5928,3.707,3.7852,3.8583,3.9342,4.0106,4.0106,4.0382,4.0906,4.0906,4.0906,4.0906,4.0906,4.0906,4.0906,4.0906,4.0906,4.0906,4.0906,4.0906,4.0837,4.0313,4.0106,4.0032,0.0,4.002,4.0906,4.0906,4.0906,4.0906,4.0906,4.0906,4.0906,4.0906,4.0906,4.0906,4.0906,4.1251,4.1624,4.1624,4.2217,4.2792,4.2792,4.3379,4.4,4.4259,4.4688,4.51,4.5345,4.5397,4.5397,4.5397,4.5397,4.5397,4.5397,4.6093,4.6772,4.7272,4.8203,0.0,0.0,0.0,0.0,4.9986,5.0003,5.021,5.071,5.121,5.1686,5.2186,5.3228,5.3642,5.3408,5.3891,5.3986,5.372,5.372,5.4116,5.4875,5.5375,5.5892,5.64,5.6684,5.7081,5.7563,5.8004,5.8218,5.8296,5.8752,5.8653,5.8253,5.8168,5.836,5.8693,0.0,0.0,0.0,0.0,0.0,0.0,0.0,0.0,0.0,0.0,0.0,0.0,0.0,0.0,0.0,0.0,0.0,3.2245,3.2166,3.2813,3.3376,3.3717,3.5147,3.6308,3.7053,3.7812,3.8571,3.9307,3.9307,3.9566,4.0078,4.0348,4.0469,4.0486,4.0768,4.0906,4.0906,4.0906,4.0906,4.0871,4.0595,4.0469,4.0388,3.96,3.9307,0.0,3.8778,3.9244,4.0112,4.0382,4.0664,4.0906,4.0906,4.0906,4.0906,4.0906,4.1096,4.1285,4.1285,4.1855,4.2424,4.2424,4.3017,4.3586,4.3586,4.4166,4.4688,4.4688,4.5065,4.5397,4.5397,4.5397,4.5397,4.5397,4.5397,4.55,4.5783,4.6496,4.7272,4.8007,4.8772,4.9427,0.0,0.0,0.0,5.0365,5.0383,5.0703,5.1444,5.1779,5.2141,5.2617,5.3383,5.3787,5.3787,5.4262,5.4504,5.4504,5.478,5.5134,5.5616,5.6168,5.6693,5.7202,5.7469,5.7866,5.8339,5.8762,5.8958,5.9047,5.9475,5.9533,5.9331,5.9073,5.9362,5.9864,0.0,0.0,0.0,0.0,0.0,0.0,0.0,0.0,0.0,0.0,0.0,0.0,0.0,0.0,0.0,0.0,0.0,0.0,3.2122,3.2877,3.3208,3.2932,3.4365,3.5506,3.6173,3.6967,3.7743,3.8479,3.8519,3.8554,3.8623,3.9324,3.9635,3.9687,4.0434,4.0785,4.0785,4.0785,4.0785,4.0716,3.9951,3.9635,3.956,3.883,3.8537,3.8537,3.8502,3.8502,3.8657,3.9445,4.0221,4.0906,4.0906,4.0906,4.0912,4.0946,4.1458,4.201,4.2056,4.2654,4.3265,4.3265,4.381,4.4356,4.4356,4.4906,4.5397,4.5397,4.5397,4.5397,0.0,0.0,4.5397,4.5397,4.5397,4.5679,4.6486,4.7238,4.7972,0.0,0.0,0.0,0.0,0.0,0.0,5.1099,0.0,5.1444,5.222,5.2986,5.3425,5.346,5.4142,5.4504,5.4504,5.4504,5.4521,5.4565,5.5272,5.5634,5.5771,5.7228,5.7918,5.8004,5.8694,5.9004,5.9004,5.9004,5.9004,5.9004,5.9004,5.9383,6.0017,6.0593,6.12,6.1372,0.0,0.0,0.0,0.0,0.0,0.0,0.0,0.0,0.0,0.0,0.0,0.0,0.0,0.0,0.0,0.0,0.0,0.0,3.2328,3.2393,3.2688,3.3244,3.3427,3.3898,3.4726,3.5438,3.6156,3.6887,3.7484,3.8054,3.8606,3.8795,3.8882,3.8893,3.9089,3.9192,3.9192,3.9192,3.9192,3.9175,3.8968,3.8882,3.879,3.8054,3.7783,3.7697,3.7099,3.7272,3.799,3.9273,4.0221,4.0906,4.0906,4.0906,4.1009,4.1561,4.1849,4.2125,4.2735,4.3448,4.4018,4.4018,4.4568,4.5117,4.5117,4.5272,4.5397,4.5397,4.5397,4.5397,0.0,0.0,0.0,4.5397,4.5397,0.0,4.6486,4.7238,0.0,4.8713,0.0,5.0003,5.0003,5.0503,0.0,0.0,5.141,5.1686,5.3021,5.3287,5.3642,5.4193,5.44,5.4504,5.4504,5.4504,5.478,5.5323,5.5513,5.6211,5.7331,5.7728,5.8194,5.8728,5.8909,5.9004,5.9004,5.9004,5.9004,5.9004,5.9004,5.9098,5.9266,5.9433,5.9597,5.9643,0.0,0.0,0.0,0.0,0.0,0.0,0.0,0.0,0.0,0.0,0.0,0.0,0.0,0.0,0.0,0.0,0.0,0.0,0.0,3.2253,3.238,3.273,3.2978,3.3285,3.3611,3.4375,3.4954,3.5323,3.5794,3.638,3.7105,3.7444,3.7772,3.8128,3.845,3.8606,3.8606,3.8606,3.8606,0.0,0.0,3.8123,3.8036,3.7277,3.6961,3.691,3.6456,3.703,3.8111,3.8933,3.9968,4.0906,4.0906,4.0906,4.1044,4.178,4.2245,4.2706,4.3465,4.4212,4.4785,4.4785,4.51,4.5397,4.5397,4.5397,4.5397,4.5397,4.5397,4.5397,4.5397,4.5397,0.0,0.0,0.0,0.0,4.6927,4.7445,4.81,0.0,4.9727,0.0,5.0452,5.0858,5.1548,0.0,5.2348,5.2624,5.3814,5.3883,5.4073,5.4486,5.4504,5.4504,5.4504,5.4823,5.5185,5.5599,5.6289,5.7056,5.7918,5.8245,5.8607,5.9004,0.0,5.9004,5.9004,5.9004,5.9004,5.9004,5.9004,5.9182,5.9442,5.9442,5.9605,5.9838,0.0,0.0,0.0,0.0,0.0,0.0,0.0,0.0,0.0,0.0,0.0,0.0,0.0,0.0,0.0,0.0,0.0,0.0,0.0,0.0,3.2249,3.1984,3.2761,3.3073,3.2805,3.3613,3.4006,3.3973,3.4061,3.4431,3.5064,3.572,3.6427,3.7226,3.7864,3.8209,3.829,3.829,3.829,3.8243,3.7605,3.7334,3.726,0.0,3.6301,3.6301,3.6301,3.7237,3.8468,3.8571,3.9629,4.0906,4.0906,4.0975,4.1199,4.1941,4.2723,4.35,4.4253,4.49,4.5397,4.5397,4.5397,4.5397,4.5397,4.5397,4.5397,4.5397,4.5397,4.5397,4.5397,4.5397,4.5397,4.5397,0.0,4.5938,4.7472,4.7703,4.8272,4.9814,5.0003,5.0296,5.103,5.1186,5.1848,5.3287,5.3494,5.3839,5.4469,5.4504,5.4504,5.4504,5.4504,5.4555,5.4659,5.5272,5.5703,5.5927,5.7262,5.7952,5.8073,5.8711,5.9004,5.9004,5.9004,5.9004,5.9004,5.9004,5.9004,5.9004,5.9004,5.935,5.9875,5.9971,6.0328,6.0786,0.0,0.0,0.0,0.0,0.0,0.0,0.0,0.0,0.0,0.0,3.2406,3.2406,0.0,0.0,0.0,0.0,0.0,0.0,0.0,0.0,0.0,3.2315,3.2212,3.2215,3.2313,3.285,3.3173,3.3261,3.3837,3.4172,3.4293,3.4414,3.488,3.5604,3.572,3.6134,3.6697,3.6697,3.6697,3.6685,3.6565,3.6513,3.649,3.6353,0.0,0.0,3.6301,3.6898,3.7783,3.8399,3.9629,4.0906,4.0906,4.132,4.1958,4.2758,4.3517,4.427,4.5003,4.53,4.5397,4.5397,4.5397,4.5397,4.5397,4.5397,0.0,0.0,4.5397,4.5397,4.5397,4.5397,4.5397,4.5397,4.5397,4.5938,4.7472,4.7703,4.8272,0.0,5.0003,5.0296,5.103,5.1651,0.0,0.0,5.3952,5.4366,5.4486,5.4504,5.4504,5.4504,5.4504,5.4797,5.5392,5.5547,5.6245,5.7504,5.7762,5.8211,5.8814,5.8944,5.9004,5.9004,5.9004,0.0,5.9004,5.9004,5.9004,5.9004,5.9004,5.9081,5.9241,5.9794,6.0065,6.0229,0.0,0.0,0.0,0.0,0.0,0.0,0.0,0.0,3.2406,3.2406,3.2406,3.2406,3.2406,3.2406,0.0,0.0,0.0,0.0,0.0,0.0,0.0,0.0,3.2214,3.2122,3.2042,3.233,3.2452,3.2418,0.0,3.3103,3.3477,3.3477,3.3896,3.4638,3.4638,3.5035,3.5737,3.5737,3.5956,3.6301,3.6301,3.6301,3.6301,0.0,0.0,0.0,0.0,3.6823,3.7611,3.8347,3.9347,4.0348,4.0768,4.1406,4.2165,4.2965,4.3724,4.446,4.5203,4.5397,4.5397,4.5397,4.5397,4.5397,4.5397,0.0,0.0,4.5397,4.5397,4.5397,4.5397,4.5397,4.5397,4.5397,4.5748,4.6427,4.7541,4.8031,4.8703,4.9865,5.0003,5.0434,0.0,5.1988,5.2686,5.3883,5.4297,5.4504,5.4504,5.4504,5.4504,5.4504,5.4504,5.4848,5.5599,5.6021,5.678,5.79,5.828,5.8659,5.9004,5.9004,5.9004,5.9004,5.9004,0.0,5.9004,5.9004,5.9004,5.9004,5.9004,5.9216,5.9566,5.9883,6.0198,6.0511,0.0,0.0,0.0,0.0,0.0,0.0,0.0,3.1883,3.2406,3.2406,3.2406,3.2406,3.2406,3.2406,3.2406,0.0,0.0,0.0,0.0,0.0,0.0,0.0,0.0,0.0,0.0,0.0,0.0,3.1851,3.1833,0.0,0.0,0.0,0.0,0.0,3.3845,3.4259,3.4966,3.4966,3.5392,0.0,0.0,3.6168,0.0,0.0,0.0,0.0,0.0,3.6703,3.7381,3.829,3.8985,3.9652,4.0779,4.1648,4.2407,4.3207,4.3966,4.4654,4.5231,4.5397,4.5397,4.5397,4.5397,4.5397,4.5397,4.5397,0.0,4.5397,4.5397,4.5397,4.5397,4.5397,4.5397,0.0,4.5938,4.6652,4.7565,4.8203,4.8927,0.0,5.0141,0.0,5.2065,5.2358,0.0,5.44,5.4504,5.4504,5.4504,5.4504,5.4504,5.4504,5.4659,5.5107,5.5849,5.6642,5.7409,5.8142,5.8728,5.9004,5.9004,5.9004,5.9004,5.9004,5.9004,0.0,5.9004,5.9004,5.9004,5.9004,5.9004,5.9317,5.9802,5.9955,6.0383,6.0919,0.0,0.0,0.0,0.0,0.0,0.0,0.0,3.1883,3.2406,3.2406,3.2406,3.2406,3.2406,3.2406,3.2406,0.0,0.0,0.0,0.0,0.0,0.0,0.0,0.0,0.0,0.0,0.0,0.0,3.2064,3.1948,0.0,0.0,0.0,0.0,0.0,0.0,3.3455,3.4207,3.4207,0.0,0.0,0.0,0.0,0.0,0.0,0.0,0.0,0.0,3.6358,3.6634,3.8105,3.864,3.9071,4.1228,4.2441,4.3247,4.3983,0.0,0.0,4.538,4.5397,4.5397,4.5397,4.5397,4.5397,4.5397,0.0,4.5397,4.5397,4.5397,4.5397,4.5397,4.5397,4.5397,4.5397,4.5466,4.6024,4.7496,4.7755,4.8341,4.9814,0.0,0.0,5.2109,5.2866,5.3624,5.4435,5.4504,5.4504,5.4504,5.4504,5.4504,5.4504,5.5159,5.5883,5.6684,5.7426,5.8176,5.8892,5.8969,5.9004,5.9004,5.9004,5.9004,5.9004,5.9004,0.0,0.0,5.9004,5.9004,5.9004,5.9004,5.9038,5.9165,5.9777,6.0383,6.0985,0.0,0.0,0.0,0.0,0.0,0.0,3.0547,3.1413,3.2151,3.2632,3.2707,3.2707,3.2707,3.2586,3.249,0.0,0.0,0.0,0.0,0.0,0.0,0.0,0.0,0.0,0.0,0.0,0.0,3.2095,0.0,0.0,0.0,0.0,0.0,0.0,0.0,0.0,3.3374,3.3374,0.0,0.0,0.0,0.0,0.0,0.0,0.0,0.0,0.0,0.0,3.6548,3.8083,3.8606,3.9002,4.1279,4.2545,4.3345,4.4087,4.482,4.5397,4.5397,4.5397,4.5397,4.5397,4.5397,4.5397,4.5397,0.0,4.5397,4.5397,4.5397,4.5397,4.5397,4.5397,4.5397,4.5397,4.6179,4.6996,4.7617,4.8496,4.9314,4.9934,5.0651,0.0,0.0,0.0,5.371,5.4435,5.4504,5.4504,5.4504,5.4504,5.4711,5.5159,5.5444,5.6211,5.7443,5.7745,5.8263,5.9004,5.9004,5.9004,5.9004,5.9004,5.9004,5.9004,5.9004,0.0,0.0,5.9004,5.9004,5.9004,5.9004,5.925,5.9622,5.9899,6.0383,6.0941,0.0,0.0,0.0,0.0,0.0,2.938,3.0171,3.1106,3.199,3.2793,3.29,3.29,3.29,3.277,3.2636,3.2469,0.0,0.0,0.0,0.0,0.0,0.0,0.0,0.0,0.0,0.0,0.0,3.2126,3.2033,3.1966,0.0,0.0,0.0,0.0,0.0,0.0,0.0,0.0,0.0,0.0,0.0,0.0,0.0,0.0,0.0,0.0,0.0,0.0,0.0,0.0,0.0,3.8956,4.1056,4.2379,4.3345,4.4087,4.482,4.5397,4.5397,4.5397,4.5397,4.5397,4.5397,4.5397,0.0,0.0,4.5397,4.5397,4.5397,4.5397,4.5397,4.5397,4.5397,4.5397,4.6507,4.7445,4.7669,4.8824,4.9814,5.0279,0.0,5.172,0.0,5.3262,5.3935,5.4469,5.4504,5.4504,5.4504,5.4711,5.5065,5.5582,5.5823,5.659,5.7892,5.8125,5.8487,5.9004,5.9004,5.9004,5.9004,5.9004,5.9004,5.9004,5.9004,0.0,0.0,5.9004,5.9004,5.9004,5.9004,5.93,5.9696,5.9696,6.0103,6.063,0.0,0.0,0.0,0.0,0.0,0.0,0.0,3.1106,3.199,3.2793,3.29,3.29,3.29,3.29,3.2824,3.2622,0.0,0.0,0.0,0.0,0.0,0.0,0.0,0.0,0.0,0.0,0.0,3.2197,3.2197,3.2108,3.1899,3.1899,0.0,0.0,0.0,0.0,0.0,0.0,0.0,0.0,0.0,0.0,0.0,0.0,0.0,0.0,0.0,0.0,0.0,0.0,0.0,0.0,0.0,4.2026,4.3345,4.4087,4.482,4.5397,4.5397,4.5397,4.5397,4.5397,4.5397,4.5397,4.5397,4.5397,4.5397,4.5397,4.5397,4.5397,4.5397,4.5397,4.5397,4.5397,4.6083,4.6876,4.76,4.8334,4.9368,0.0,0.0,5.2496,5.3304,5.4055,5.4486,5.4504,5.4504,0.0,5.4504,5.5185,5.5599,5.5599,5.6366,5.715,5.7883,5.8625,5.8995,5.9004,5.9004,5.9004,5.9004,5.9004,5.9004,5.9004,0.0,5.9004,0.0,5.9004,5.9004,5.9004,5.9004,5.9004,5.9012,5.9012,5.9433,6.0011,0.0,0.0,0.0,0.0,0.0,0.0,0.0,3.0564,3.1506,3.2324,3.2901,3.3244,3.3244,3.3034,3.288,3.2802,0.0,0.0,0.0,0.0,0.0,0.0,0.0,0.0,0.0,0.0,3.2375,3.2341,3.2232,3.217,3.2095,3.2068,3.197,3.1871,0.0,0.0,0.0,0.0,0.0,0.0,0.0,0.0,0.0,0.0,0.0,0.0,0.0,0.0,0.0,0.0,0.0,0.0,0.0,0.0,0.0,4.2665,4.4009,4.5397,4.5397,4.5397,4.5397,4.5397,4.5397,4.5397,4.5397,4.5397,4.5397,4.5397,4.5397,4.5397,4.5397,4.5397,4.5397,4.5397,4.6507,4.7427,4.7669,4.8807,0.0,5.0979,5.2245,5.3314,0.0,0.0,5.4504,5.4504,5.4504,5.4504,5.4504,5.5203,5.584,5.64,5.7167,5.7909,5.8642,5.8875,5.9004,5.9004,5.9004,5.9004,5.9004,5.9004,5.9004,0.0,5.9004,5.9004,5.9004,5.9004,5.9004,5.9004,5.9004,5.9004,5.9004,5.9004,5.9132,5.9375,0.0,0.0,0.0,0.0,0.0,0.0,0.0,3.031,3.1281,3.2093,3.2904,3.3389,3.3389,3.3142,3.2963,3.2904,0.0,0.0,0.0,0.0,0.0,0.0,0.0,0.0,0.0,3.2406,3.2406,3.2406,3.2323,3.2249,3.2197,3.2153,3.2082,3.1975,3.1975,0.0,0.0,0.0,0.0,0.0,0.0,0.0,3.6301,0.0,0.0,0.0,0.0,0.0,0.0,0.0,0.0,0.0,0.0,0.0,0.0,0.0,4.3297,4.4624,4.49,4.518,4.5397,4.5397,4.5397,4.5397,4.5397,4.5397,4.5463,4.5667,4.5537,4.5463,4.5667,4.5531,4.5397,4.5397,4.6696,4.7703,4.7703,4.9038,0.0,5.1393,0.0,0.0,0.0,5.4504,5.4504,5.4504,5.4504,5.4624,5.4892,5.5642,5.64,5.7185,5.7659,5.8245,5.8995,5.9004,5.9004,5.9004,5.9004,5.9004,5.9004,5.9004,5.9004,5.9004,5.9004,5.9004,0.0,5.9004,5.9004,5.9004,5.9004,5.9149,5.9375,5.9375,5.9524,5.9791,0.0,0.0,0.0,0.0,0.0,0.0,0.0,0.0,3.1263,3.2024,3.2868,3.3389,3.3389,3.3237,3.3059,3.2916,0.0,0.0,0.0,0.0,0.0,0.0,0.0,0.0,0.0,3.2406,3.2406,3.2406,3.2406,3.2336,3.2205,3.2205,3.217,3.2099,3.2099,0.0,0.0,0.0,0.0,0.0,3.5866,3.6433,0.0,0.0,0.0,0.0,0.0,0.0,0.0,0.0,0.0,0.0,0.0,0.0,0.0,0.0,0.0,0.0,0.0,4.4757,4.5341,4.5432,4.543,4.541,4.545,4.5463,0.0,4.6093,4.5803,4.5609,4.61,4.5759,4.5414,4.5483,4.6731,4.772,4.7772,4.9151,0.0,0.0,5.3565,0.0,5.4504,5.4504,5.4504,5.4504,5.4504,5.4823,5.5565,5.6349,5.7133,5.7883,5.7952,5.8314,5.8995,5.9004,5.9004,5.9004,5.9004,5.9004,5.9004,5.9004,5.9004,0.0,5.9004,5.9004,5.9004,5.9004,5.9004,5.9004,5.9055,5.945,6.0011,6.0041,6.0429,6.0904,0.0,0.0,0.0,0.0,0.0,0.0,0.0,0.0,0.0,0.0,3.2527,3.3389,3.3389,3.3368,3.3209,0.0,0.0,0.0,0.0,0.0,0.0,0.0,0.0,0.0,0.0,3.2406,3.2406,3.2406,3.2406,3.2379,3.2354,3.2354,3.2284,3.217,3.217,0.0,0.0,0.0,0.0,0.0,3.5977,3.6628,0.0,0.0,0.0,0.0,3.6559,3.6621,0.0,0.0,0.0,0.0,0.0,0.0,0.0,0.0,4.1927,4.2604,4.3336,0.0,4.4798,4.5766,4.5695,4.5515,0.0,4.6006,4.6044,0.0,0.0,4.6044,4.6174,4.5759,4.561,4.6221,4.71,4.791,4.8455,5.0351,0.0,5.2161,5.3565,5.4504,5.4504,5.4504,5.4504,5.4504,5.4504,5.4823,5.5565,5.6349,5.7133,5.7883,5.8452,5.8814,5.9004,5.9004,5.9004,5.9004,5.9004,5.9004,5.9004,5.9004,5.9004,5.9004,5.9004,5.9004,5.9004,5.9004,5.9004,5.9055,5.9557,5.9866,6.0057,6.0527,6.0788,6.0971,0.0,0.0,0.0,0.0,0.0,0.0,0.0,0.0,0.0,0.0,0.0,0.0,0.0,0.0,0.0,0.0,0.0,0.0,0.0,0.0,0.0,0.0,0.0,0.0,3.2902,3.3092,3.3344,3.3686,3.3686,3.3686,3.3681,3.3534,3.3419,3.3326,3.2931,0.0,0.0,0.0,0.0,0.0,3.6083,0.0,0.0,0.0,0.0,0.0,3.6682,3.6753,0.0,3.7274,3.8171,3.9211,0.0,0.0,0.0,0.0,4.1557,4.1997,4.3162,4.3931,4.4694,4.5945,4.5868,4.5628,4.6138,4.6266,0.0,0.0,0.0,4.6272,4.6513,4.5933,4.5662,4.6469,4.722,4.8203,4.9651,0.0,5.2341,5.271,5.3797,5.4504,0.0,5.4504,5.4504,5.4504,5.4504,5.4986,5.609,5.6564,5.7288,5.8366,5.8797,5.9004,5.9004,5.9004,5.9004,5.9004,5.9004,5.9004,5.9004,5.9004,5.9004,5.9004,5.9004,5.9174,5.9458,5.9458,5.9621,5.9918,6.0264,6.0605,6.0906,6.1239,6.1538,6.1774,0.0,0.0,0.0,0.0,0.0,0.0,0.0,0.0,0.0,0.0,0.0,0.0,0.0,0.0,0.0,0.0,0.0,0.0,0.0,0.0,0.0,0.0,0.0,3.2787,3.3604,3.3939,3.4455,3.5193,3.5193,3.5164,3.5121,3.4821,3.4697,3.4657,3.3795,3.3023,0.0,0.0,0.0,0.0,3.6175,0.0,0.0,0.0,0.0,0.0,0.0,0.0,0.0,3.7848,3.8627,3.9435,4.0251,0.0,0.0,0.0,0.0,0.0,4.3343,4.4096,4.4682,4.602,4.5983,4.5778,4.6316,4.6436,0.0,0.0,0.0,0.0,4.6848,4.6202,0.0,4.6668,4.7493,4.8755,5.0806,5.1737,5.2496,5.3297,5.4055,0.0,5.4504,5.4504,5.4504,5.4504,5.4504,5.5176,5.6719,5.6805,5.7478,5.8952,5.9004,5.9004,5.9004,5.9004,5.9004,5.9004,5.9004,5.9004,5.9004,5.9004,5.8944,5.8832,0.0,0.0,5.966,5.986,6.026,6.0744,6.0954,6.1404,6.191,6.1998,6.2367,6.2717,0.0,0.0,0.0,0.0,0.0,0.0,0.0,0.0,0.0,0.0,0.0,0.0,0.0,0.0,0.0,0.0,0.0,0.0,0.0,0.0,0.0,0.0,3.2452,3.2966,3.4155,3.4137,3.4455,3.5193,3.5193,3.5043,3.4771,3.4725,3.4697,3.4662,3.3845,3.3375,3.3285,0.0,0.0,3.4634,3.6302,0.0,0.0,0.0,0.0,0.0,0.0,0.0,0.0,3.7848,3.8627,3.9435,4.0251,0.0,0.0,0.0,0.0,0.0,4.376,4.4067,4.4258,4.61,4.616,4.6,4.686,0.0,0.0,0.0,0.0,0.0,0.0,4.6522,4.6709,0.0,0.0,4.9986,0.0,0.0,5.2496,5.3297,0.0,5.4504,5.4504,5.4504,5.4504,5.4504,5.4504,5.5176,5.6719,5.6805,5.7478,5.8952,5.9004,5.9004,5.9004,5.9004,5.9004,5.9004,5.9004,5.9004,5.9004,5.9004,5.8659,5.8107,0.0,5.8534,5.8146,5.9286,5.9802,6.0002,6.1251,6.1803,6.1958,6.2464,6.2724,6.2717,0.0,0.0,0.0,0.0,0.0,0.0,0.0,0.0,0.0,0.0,0.0,0.0,0.0,0.0,0.0,0.0,0.0,0.0,0.0,0.0,0.0,3.3027,3.2872,3.346,3.4911,3.4989,3.5588,3.6773,3.6549,3.6355,3.6214,3.6035,3.5711,3.528,3.4916,3.4257,3.3532,3.477,3.5033,3.4755,0.0,0.0,0.0,0.0,0.0,0.0,0.0,0.0,0.0,0.0,3.8991,3.9505,4.0714,0.0,0.0,0.0,0.0,0.0,4.3913,4.4139,4.4225,4.5945,4.6147,4.6099,0.0,0.0,0.0,0.0,0.0,0.0,0.0,0.0,4.6989,4.82,0.0,5.0848,5.1599,5.2358,5.3124,0.0,0.0,5.4504,5.4504,5.4504,5.4504,5.4504,5.4504,5.4986,5.609,5.6564,5.7288,5.8366,5.8797,5.9004,5.9004,5.9004,5.9004,5.9004,5.9004,5.9004,5.9012,5.9375,5.9123,5.8416,0.0,5.9306,5.937,5.9997,6.0699,6.1434,6.2118,6.2386,6.2419,6.2705,6.2591,6.2327,0.0,0.0,0.0,0.0,0.0,0.0,0.0,0.0,0.0,0.0,0.0,0.0,0.0,0.0,0.0,0.0,0.0,0.0,0.0,0.0,3.2884,3.3383,3.3335,3.4074,3.5728,3.5848,3.6618,3.8097,3.78,3.7551,3.7381,3.7113,3.6664,3.607,3.5885,3.5143,3.4125,3.5301,3.5468,3.5079,0.0,0.0,0.0,0.0,0.0,0.0,0.0,0.0,0.0,0.0,0.0,0.0,0.0,0.0,0.0,4.2081,4.2051,4.2289,4.4168,4.442,4.453,4.6003,4.6191,0.0,0.0,0.0,0.0,0.0,0.0,0.0,0.0,4.748,0.0,4.8883,5.022,0.0,0.0,0.0,0.0,0.0,0.0,5.4504,5.4504,5.4504,5.4504,5.4504,5.4504,5.4823,5.5565,5.6176,5.6935,5.7874,5.8452,5.8832,5.9004,5.9004,5.9004,5.9004,5.9004,5.9004,5.9021,5.9541,5.9422,5.886,5.9439,5.998,6.0466,6.0773,6.1559,6.2542,6.2738,6.2793,6.2793,6.2793,6.2514,6.2157,0.0,0.0,0.0,0.0,0.0,0.0,0.0,0.0,0.0,0.0,0.0,0.0,0.0,0.0,0.0,0.0,0.0,0.0,0.0,0.0,3.3027,3.3372,3.3732,3.4754,3.6487,3.6289,3.68,3.8097,3.8072,3.7712,3.7046,3.6999,3.6967,3.6879,3.614,3.5744,3.5639,3.574,3.5762,3.5802,3.6646,0.0,0.0,0.0,0.0,0.0,0.0,0.0,0.0,0.0,0.0,0.0,0.0,0.0,4.1675,4.2081,4.2435,4.3066,4.47,4.5079,4.5317,4.654,4.6519,0.0,4.6771,4.6554,0.0,4.6794,0.0,0.0,0.0,4.8345,4.9288,4.9822,5.059,5.1358,5.2099,0.0,5.3676,5.4417,5.4504,5.4504,5.4504,5.4504,5.4504,5.4504,5.4504,5.4823,5.5565,5.5651,5.6366,5.7849,5.7952,5.8314,5.8995,5.9004,5.9004,5.9004,5.9004,5.9004,5.9004,5.9055,5.9017,5.8917,5.9472,5.9689,5.9789,6.1017,6.1581,6.1759,6.2505,6.2793,6.2793,6.2793,6.2768,6.2655,0.0,0.0,0.0,0.0,0.0,0.0,0.0,0.0,0.0,0.0,0.0,0.0,0.0,0.0,0.0,0.0,0.0,0.0,0.0,0.0,3.3425,3.3939,3.4062,3.4845,3.6372,3.6073,3.6622,3.8097,3.7641,3.7271,3.7007,3.7007,3.7007,3.6989,3.6681,3.6263,3.5832,3.6338,3.6268,3.5867,3.6681,3.7007,0.0,0.0,0.0,0.0,0.0,0.0,0.0,0.0,3.9831,4.062,4.1364,4.1766,4.1992,4.2164,4.2656,4.3404,4.4478,4.4926,4.5315,4.6241,4.6326,0.0,0.0,4.6543,4.6572,4.6387,4.6552,0.0,0.0,0.0,5.0081,5.0007,5.1117,5.202,5.2183,5.3297,5.4193,5.4469,5.4504,5.4504,5.4504,5.4504,5.4504,5.4504,5.4504,5.4624,5.4892,5.534,5.5875,5.6452,5.74,5.8021,5.8314,5.8771,5.9004,5.9004,5.9004,5.9004,5.9012,5.9433,5.9548,5.9427,6.0045,6.0525,6.0888,6.1392,6.1887,6.2377,6.2683,6.2793,6.2793,6.2793,6.2793,6.2761,0.0,0.0,0.0,0.0,0.0,0.0,0.0,0.0,0.0,0.0,0.0,0.0,0.0,0.0,0.0,0.0,0.0,0.0,0.0,3.3571,3.3825,3.4281,3.4236,3.4859,3.6266,3.5842,3.6366,3.7909,3.7304,3.7007,3.7007,3.7007,3.7007,3.7007,3.7007,3.6681,3.621,3.6774,3.6681,3.6228,3.6787,3.7007,0.0,0.0,0.0,0.0,0.0,0.0,0.0,0.0,4.0292,4.0958,4.1586,4.1883,4.2082,4.2467,4.304,4.3754,4.4637,4.5168,4.5577,4.6074,0.0,0.0,4.6233,4.6459,4.6554,4.6153,4.6901,0.0,0.0,0.0,0.0,0.0,5.1566,5.251,5.2578,5.3693,5.4504,5.4504,5.4504,5.4504,5.4504,5.4504,5.4504,5.4504,5.4504,5.4504,5.4504,5.4986,5.5358,5.5599,5.6624,5.74,5.79,5.84,5.8763,5.9004,5.9004,5.9004,5.9021,5.9475,5.9727,5.9827,6.0486,6.1129,6.1706,6.1893,6.2303,6.2793,6.2793,6.2793,6.2793,6.2793,6.2793,6.2793,0.0,0.0,0.0,0.0,0.0,0.0,0.0,0.0,0.0,0.0,0.0,0.0,0.0,0.0,0.0,0.0,0.0,0.0,3.3695,3.3953,3.4161,3.429,3.4236,3.4856,3.6241,3.5698,3.6083,3.7501,3.7166,3.7007,3.7007,3.7007,3.7007,3.7007,3.7007,3.7007,3.7007,3.7007,3.7007,3.7007,3.7007,3.7007,3.7007,0.0,0.0,0.0,0.0,0.0,0.0,0.0,4.1327,4.1675,4.2076,4.1926,4.1839,4.3049,4.3639,4.4173,4.5361,4.5947,4.6196,0.0,0.0,0.0,4.6301,4.6203,4.622,4.6214,0.0,4.8752,4.9223,0.0,0.0,0.0,0.0,5.2708,5.3328,5.4038,5.4504,5.4504,5.4504,5.4504,5.4504,5.4504,5.4504,5.4504,5.4504,5.4504,5.4504,5.4504,5.4831,5.5565,5.5599,5.6349,5.7866,5.79,5.8263,5.9004,5.9004,5.9004,5.9004,5.9004,5.9358,6.0025,6.0638,6.1272,6.1937,6.2547,6.2786,6.2793,6.2793,6.2793,6.2793,6.2793,6.2793,6.2793,0.0,0.0,0.0,0.0,0.0,0.0,0.0,0.0,0.0,0.0,0.0,0.0,0.0,0.0,0.0,0.0,0.0,0.0,3.4111,3.4197,3.426,3.4293,3.4191,3.4378,3.4872,3.5409,3.6169,3.7151,3.7048,3.7007,3.7007,3.7007,3.7007,3.7007,3.7007,3.7007,3.7007,3.7007,3.7007,3.7007,3.7007,3.7007,3.7007,0.0,0.0,0.0,0.0,0.0,0.0,0.0,0.0,0.0,4.2152,4.2123,4.2268,4.3469,4.4059,4.4534,4.5513,4.5982,0.0,4.6196,0.0,0.0,0.0,4.6695,0.0,0.0,4.8566,4.9439,5.0089,0.0,0.0,0.0,0.0,5.282,5.3326,5.4038,5.4504,5.4504,5.4504,5.4504,5.4504,5.4504,5.4504,5.4504,5.4504,5.4504,5.4504,5.4504,5.4607,5.4814,5.5323,5.609,5.7116,5.7642,5.8263,5.9004,5.9004,5.9004,5.9004,5.9004,5.9358,6.0025,6.0638,6.1007,6.1243,6.1899,6.2419,6.2793,6.2793,6.2793,6.2793,6.2793,6.2793,6.2793,0.0,0.0,0.0,0.0,0.0,0.0,0.0,0.0,0.0,0.0,3.3533,3.3708,0.0,0.0,0.0,0.0,0.0,0.0,0.0,0.0,3.4374,3.4299,3.4074,3.3999,3.4095,3.5035,3.5847,3.6518,3.6844,3.7072,3.7204,3.7063,3.7007,3.7007,3.7007,3.7007,3.7007,3.7007,3.7007,3.7007,3.7007,3.7007,3.7037,0.0,0.0,0.0,0.0,0.0,0.0,0.0,0.0,0.0,4.234,4.2213,4.2253,4.3753,4.4235,4.451,4.5644,4.6082,0.0,4.6196,4.6338,4.6643,4.7232,0.0,0.0,0.0,0.0,4.9854,5.0752,5.1145,0.0,0.0,5.2586,5.3353,5.3942,5.4359,5.4614,5.4614,5.4614,5.4583,5.4512,5.4504,5.4504,5.4504,5.4504,5.4504,5.4504,5.4504,5.4504,5.4504,5.4927,5.5693,5.6788,5.7236,5.7969,5.9004,5.9004,5.9004,5.9004,5.9004,5.9225,5.9647,6.0524,6.1044,6.1354,6.1998,6.2464,6.2793,6.2793,6.2793,6.2793,6.2793,6.2793,6.2793,0.0,0.0,3.3397,3.37,0.0,0.0,0.0,0.0,0.0,0.0,3.3353,3.3545,0.0,0.0,0.0,0.0,0.0,0.0,0.0,0.0,3.4484,3.4278,3.3882,3.3709,3.377,3.4581,3.5244,3.5749,3.6559,3.7101,3.7441,3.7142,3.7007,3.7007,3.7007,3.7007,3.6989,3.7024,3.7019,3.6989,3.7029,3.7072,3.7178,3.7848,0.0,0.0,0.0,0.0,0.0,0.0,0.0,0.0,4.257,4.2269,4.2051,4.4046,4.4273,4.4249,4.5825,4.6233,0.0,4.6196,4.6543,0.0,4.7926,4.8187,4.8472,4.918,0.0,5.0189,5.1236,5.1743,5.2169,5.2696,5.3368,5.4119,5.4961,5.4925,5.4826,5.4873,5.4826,5.4717,5.4519,5.4504,5.4504,5.4504,5.4504,5.4504,5.4504,5.4504,5.4504,5.4504,5.4504,5.5245,5.6788,5.6805,5.7547,5.9004,5.9004,5.9038,5.9081,5.903,5.9055,5.9233,6.034,6.125,6.2012,6.2503,6.2749,6.2793,6.2793,6.2793,6.2793,6.2793,6.2793,6.2793,0.0,0.0,3.3324,3.3397,0.0,0.0,0.0,0.0,0.0,0.0,0.0,0.0,0.0,0.0,0.0,0.0,0.0,0.0,0.0,0.0,3.4272,3.4074,3.363,3.343,3.3561,3.401,3.46,3.5331,3.6074,3.6687,3.7116,3.7029,3.7007,3.7007,3.7007,3.7007,3.7027,3.7286,3.7243,3.7014,3.7291,3.7578,3.7883,3.8036,3.9078,0.0,0.0,0.0,0.0,0.0,0.0,0.0,4.2753,4.2457,4.2534,4.4842,4.4754,4.4314,4.6229,4.6477,0.0,0.0,4.6543,4.7105,4.7931,4.8863,4.9609,4.9614,5.0457,5.1278,5.152,5.181,5.2336,5.332,5.3787,5.4416,5.5488,5.5242,5.5073,5.5385,5.505,5.4717,5.4519,5.4504,5.4504,5.4504,5.4504,5.4504,5.4504,5.4504,5.4504,5.4504,5.4504,5.5245,5.6788,5.6805,5.7547,5.9004,5.9004,5.9284,5.9769,5.9241,5.9547,6.0476,6.0282,6.1102,6.2579,6.223,6.2373,6.2793,6.2793,6.2793,6.2793,6.2793,6.2793,6.2793,0.0,0.0,0.0,0.0,0.0,0.0,0.0,0.0,0.0,0.0,0.0,0.0,0.0,0.0,0.0,0.0,0.0,0.0,0.0,0.0,0.0,3.363,3.3287,3.3069,3.2972,3.327,3.3743,3.4393,3.5485,3.6337,0.0,0.0,3.6894,3.7239,3.7239,3.7239,3.7239,3.7253,3.7253,3.7274,3.7633,3.805,3.849,3.9046,4.0027,4.1114,4.1262,0.0,0.0,0.0,0.0,0.0,0.0,0.0,4.3133,4.496,4.5188,4.513,4.6519,0.0,0.0,4.6477,0.0,4.7274,4.8695,4.9524,5.0122,5.0537,5.1138,5.1676,5.1898,5.2298,5.2841,5.3653,5.4261,5.4966,5.5904,5.5498,5.5242,5.5648,5.5219,5.4786,5.4527,5.4504,5.4504,5.4504,5.4504,5.4504,5.4504,5.4504,5.4504,5.4504,5.4504,5.5245,5.6788,5.6805,5.7695,5.9483,5.9483,5.9817,6.0411,6.006,6.027,6.0897,6.0903,6.1457,6.2373,6.2347,6.2527,6.2793,6.2793,6.2793,6.2793,6.2793,6.2793,6.2793,0.0,0.0,0.0,0.0,0.0,0.0,0.0,0.0,0.0,0.0,0.0,0.0,0.0,0.0,0.0,0.0,0.0,0.0,0.0,0.0,0.0,3.3236,3.3037,3.2796,3.2473,3.2685,3.3053,3.3596,0.0,0.0,0.0,0.0,0.0,3.7427,3.7473,3.7469,3.7395,3.7243,3.7356,3.7648,3.8109,3.8615,3.9203,4.0229,0.0,4.1366,4.1989,4.2024,4.1904,4.258,0.0,0.0,0.0,0.0,4.3724,4.4855,4.5518,4.602,4.6627,4.6543,4.6398,4.6707,4.6941,0.0,4.9561,5.011,5.0493,5.1508,5.1788,5.1958,5.2247,5.2861,5.352,5.4088,5.4856,5.5672,5.6452,5.589,5.5531,5.5943,5.5409,5.4877,5.4583,5.4519,5.4504,5.4504,5.4504,5.4504,5.4504,5.4504,5.4542,5.4659,5.4667,5.5449,5.7094,5.7111,5.8131,6.0168,6.0268,6.0598,6.1084,6.1175,6.116,6.1095,6.1672,6.1958,6.2079,6.2591,6.2793,6.2793,6.2793,6.2793,6.2793,6.2793,6.2793,6.2793,0.0,0.0,0.0,0.0,0.0,0.0,0.0,0.0,0.0,0.0,3.4086,3.4182,0.0,3.4417,3.4553,3.4553,3.4392,3.4287,3.4263,0.0,0.0,3.328,3.3149,3.2972,3.2749,3.2775,3.3201,3.4018,0.0,0.0,0.0,0.0,0.0,3.7087,0.0,3.7339,3.7111,3.7703,3.7975,3.8093,3.8842,3.9588,4.0336,0.0,0.0,0.0,0.0,4.2395,4.2662,4.2754,4.2734,0.0,0.0,0.0,4.4078,4.4874,4.5701,4.6326,4.6301,0.0,4.673,0.0,4.7115,4.8297,0.0,0.0,5.126,0.0,5.2585,5.278,5.2373,5.3135,5.4139,5.5128,5.5776,5.6506,5.754,5.6809,5.6307,5.6708,5.5726,5.4948,5.4772,5.4598,5.4504,5.4504,5.4504,5.4504,5.4504,5.4504,5.4736,5.5261,5.5284,5.627,5.8344,5.8361,5.9169,6.0796,6.1372,6.1686,6.1783,6.2309,6.2263,6.1769,6.1869,6.2197,6.2692,6.2761,6.2793,6.2793,6.2793,6.2793,6.2793,6.2793,6.2793,6.2793,0.0,0.0,0.0,0.0,0.0,0.0,0.0,0.0,0.0,0.0,0.0,3.4266,3.4293,3.4481,3.4509,3.4281,3.4185,3.4039,3.3817,3.3618,3.3383,3.3087,3.3084,3.2947,3.2585,3.3203,3.3718,3.4092,0.0,0.0,0.0,3.7457,3.7641,0.0,0.0,0.0,0.0,3.8142,3.8604,3.8871,4.014,4.0981,0.0,0.0,0.0,0.0,0.0,0.0,0.0,4.2917,4.3142,4.3243,4.393,0.0,0.0,0.0,4.6814,4.7386,4.707,4.6942,4.6845,0.0,4.7543,4.8755,4.9775,5.0836,5.1813,5.2587,5.3146,5.3258,5.2453,5.3173,5.4243,5.5335,5.5947,5.6665,5.7754,5.6983,5.6443,5.6849,5.5837,5.5037,5.4819,5.4717,5.4753,5.4995,5.5,5.5142,5.5487,5.5509,5.5633,5.5894,5.5901,5.6773,5.8588,5.8588,5.9559,6.1461,6.2099,6.2406,6.2412,6.2686,6.2667,6.2406,6.2406,6.2559,6.2793,6.2793,6.2793,6.2793,6.2793,6.2793,6.2793,6.2793,6.2793,6.2793,0.0,0.0,0.0,0.0,0.0,0.0,0.0,0.0,0.0,0.0,0.0,3.429,3.4343,0.0,0.0,0.0,3.4011,3.3835,3.3477,3.3433,3.3316,3.3082,0.0,3.2931,3.2928,3.36,3.423,0.0,0.0,0.0,3.6847,3.7698,3.7887,0.0,3.7605,0.0,0.0,0.0,0.0,0.0,0.0,0.0,0.0,0.0,0.0,0.0,0.0,0.0,0.0,0.0,0.0,0.0,0.0,4.5966,0.0,0.0,0.0,4.8065,4.7841,0.0,4.7061,4.6931,4.8007,4.9258,0.0,0.0,5.2383,0.0,5.3464,5.3534,5.2667,5.3484,5.461,5.5554,5.6261,5.7034,5.7962,5.7185,5.6605,5.6919,5.5908,5.5119,5.4863,5.493,5.5101,5.5387,5.5546,5.584,5.6276,5.6303,5.6364,5.6506,5.6494,5.7236,5.8747,5.9156,6.0282,6.2137,6.2585,6.2793,6.2793,6.2793,6.2793,6.2793,6.2793,6.2793,6.2793,6.2793,6.2793,6.2793,6.2793,6.2793,6.2793,6.2793,6.2793,6.2793,0.0,0.0,0.0,0.0,0.0,0.0,0.0,0.0,0.0,0.0,0.0,3.4275,3.4473,3.455,3.4467,3.4124,3.4039,3.3878,3.3612,3.3174,3.3117,3.3556,0.0,0.0,3.4358,3.3832,0.0,0.0,0.0,0.0,3.8018,3.8075,3.7887,3.7523,3.7896,3.8497,3.918,0.0,0.0,0.0,4.1108,4.1336,0.0,0.0,0.0,0.0,0.0,0.0,0.0,0.0,0.0,0.0,0.0,0.0,0.0,0.0,0.0,0.0,0.0,4.7912,4.7458,4.7004,4.8427,4.9961,0.0,0.0,5.3052,5.3083,5.3464,5.3659,5.3154,5.4347,5.5598,5.6172,5.7134,5.8015,5.8569,5.7724,5.7072,5.7091,5.5978,5.5139,5.5007,5.5336,5.5506,5.5399,5.5929,5.6269,5.6303,5.6303,5.6521,5.7046,5.7065,5.7745,5.9144,6.0683,6.1875,6.2749,6.2798,6.2793,6.2793,6.2793,6.2793,6.2793,6.2793,6.2793,6.2793,6.2793,6.2793,6.2793,6.2793,6.2793,6.2793,6.2793,6.2793,6.2793,0.0,0.0,0.0,0.0,0.0,0.0,0.0,0.0,0.0,0.0,0.0,0.0,0.0,3.3878,3.3793,3.3535,3.3386,3.3335,3.3404,3.3175,3.3106,3.3276,0.0,0.0,0.0,0.0,0.0,0.0,0.0,3.7698,3.8097,3.8097,3.8309,3.8652,3.8801,3.8903,3.9058,4.0166,0.0,0.0,4.2105,4.2414,4.2807,0.0,0.0,0.0,0.0,0.0,0.0,0.0,0.0,0.0,0.0,0.0,0.0,0.0,0.0,0.0,0.0,0.0,4.7559,4.7394,4.8903,5.0454,5.0456,5.2049,5.3552,5.3552,5.3688,5.3746,5.3577,5.463,5.5687,5.6208,5.7189,5.8088,5.8625,5.7783,5.7103,5.7103,5.6391,5.5833,5.5655,5.6123,5.6512,5.6734,5.6875,5.7116,5.7498,5.7437,5.7486,5.7666,5.7672,5.842,5.9967,6.1043,6.1998,6.2793,6.2793,6.2793,6.2793,6.2793,6.2793,6.2793,6.2793,6.2793,6.2793,6.2793,6.2793,6.2793,6.2793,6.2793,6.2793,6.2793,6.2793,6.2793,0.0,0.0,0.0,0.0,0.0,3.3537,0.0,0.0,0.0,0.0,0.0,0.0,0.0,0.0,3.3592,3.3394,3.3021,3.2912,3.3213,3.3149,3.3195,3.3398,3.3789,0.0,0.0,0.0,0.0,0.0,0.0,0.0,0.0,3.8226,3.8644,3.9313,3.9697,3.9896,0.0,0.0,0.0,4.23,0.0,4.2963,4.3261,0.0,0.0,0.0,0.0,0.0,0.0,0.0,0.0,0.0,0.0,0.0,0.0,0.0,0.0,0.0,4.8504,0.0,0.0,4.7836,4.9286,5.0707,5.0707,5.2305,5.3808,5.3808,5.3808,5.3808,5.3808,5.4637,5.5536,5.6196,5.7341,5.8284,5.8646,5.7928,5.737,5.737,5.6899,5.6506,5.6324,5.682,5.7266,5.7486,5.7564,0.0,5.818,5.8065,5.8002,5.8002,5.8002,5.8767,6.0376,6.0933,6.1741,6.2793,6.2793,6.2793,6.2793,6.2793,6.2818,6.2861,6.2861,6.2836,6.2793,6.2793,6.2836,6.2861,6.283,6.2836,6.2861,6.283,6.2793,6.2793,0.0,3.3306,3.3306,3.3306,3.3306,3.3306,3.3306,0.0,0.0,0.0,0.0,0.0,0.0,0.0,0.0,3.3695,3.3033,3.2783,3.3105,3.3146,3.3416,3.4014,3.4046,0.0,0.0,0.0,0.0,0.0,0.0,0.0,0.0,0.0,3.8883,3.9376,4.0525,4.1472,4.2199,0.0,4.1951,4.2325,0.0,4.2849,4.2951,0.0,0.0,0.0,4.5258,4.6028,0.0,0.0,0.0,0.0,0.0,0.0,0.0,0.0,0.0,0.0,0.0,0.0,0.0,0.0,4.9514,5.0727,5.0727,5.2315,5.3808,5.3808,5.3808,5.3808,5.3808,5.4453,5.5289,5.6167,5.7634,5.8669,5.8706,5.824,5.7899,5.7899,5.7443,5.7066,5.694,5.7413,5.7689,5.7546,5.7948,5.8208,5.8208,5.8071,5.8002,5.8002,5.8002,5.8767,6.0376,6.0395,6.1202,6.2793,6.2793,6.2793,6.2817,6.2817,6.288,6.3008,6.3008,6.2929,6.2805,6.2805,6.2886,6.2996,6.2855,6.2886,6.299,6.2842,6.2793,6.2793,3.3321,3.3306,3.3306,3.3306,3.3306,3.3306,0.0,0.0,0.0,0.0,0.0,0.0,0.0,0.0,0.0,3.3045,3.3446,3.3705,3.374,3.4305,3.4673,3.479,3.5128,3.5628,0.0,0.0,0.0,0.0,0.0,0.0,0.0,0.0,0.0,0.0,4.139,4.2195,4.2632,4.254,0.0,0.0,4.3888,4.4017,0.0,0.0,0.0,0.0,0.0,4.7143,0.0,0.0,4.759,4.7851,0.0,0.0,0.0,0.0,0.0,0.0,4.8546,0.0,0.0,0.0,0.0,0.0,5.1204,5.2544,5.3808,5.3808,5.3808,5.3808,5.3808,5.4453,5.5289,5.6167,5.7151,5.8043,5.8618,5.824,5.7899,5.7899,5.7771,5.7659,5.7629,5.8105,5.8406,0.0,5.8403,5.8427,5.8427,5.824,5.8094,5.8002,5.8002,5.8767,6.0376,6.0395,6.1202,6.2793,6.2793,6.2842,6.2947,6.2947,6.3014,6.3135,6.3135,6.3111,6.3093,6.3093,6.3117,6.3123,6.2996,6.2972,6.299,6.2842,6.2793,6.2793,3.2951,3.292,3.292,3.292,3.292,3.292,0.0,0.0,0.0,0.0,0.0,0.0,0.0,0.0,0.0,3.4002,3.4342,3.4545,3.4508,3.5069,3.548,3.564,3.6016,3.6395,0.0,0.0,0.0,0.0,0.0,0.0,0.0,0.0,0.0,0.0,4.1693,4.249,0.0,0.0,0.0,0.0,4.4748,0.0,0.0,4.6345,4.66,0.0,0.0,0.0,4.7861,4.7664,4.772,0.0,0.0,0.0,0.0,0.0,0.0,0.0,0.0,0.0,0.0,0.0,0.0,0.0,5.1398,5.2642,5.3808,5.3808,5.3808,5.3808,5.3808,5.4174,5.4774,5.5628,5.6464,5.7393,5.8539,5.8428,5.8235,5.8235,5.8235,5.8235,5.8235,5.8516,5.8706,5.8706,5.8588,5.8484,5.8459,5.8284,5.8169,5.8095,5.8025,5.8621,5.9893,6.023,6.1037,6.2303,6.2689,6.2923,6.3002,6.3057,6.3171,6.3284,6.3284,6.3313,6.3378,6.3378,6.3331,6.3272,6.3147,6.3081,6.3063,6.2929,6.2842,6.2793,0.0,3.2406,3.2406,3.2406,3.2406,3.2406,0.0,0.0,0.0,0.0,0.0,0.0,0.0,0.0,0.0,0.0,3.5446,3.5336,3.5336,3.5693,0.0,0.0,3.6713,3.7041,3.7492,0.0,0.0,0.0,0.0,0.0,0.0,0.0,0.0,0.0,4.181,4.2666,0.0,0.0,0.0,4.4505,4.5572,4.6038,0.0,0.0,4.7333,0.0,4.8065,4.8215,4.8162,4.7731,4.7937,0.0,0.0,0.0,0.0,0.0,4.8874,0.0,0.0,0.0,0.0,0.0,0.0,0.0,5.1398,5.2642,5.3808,5.3808,5.3808,5.3808,5.3808,5.3808,5.4063,5.4862,5.5739,5.6835,5.8358,5.8632,5.8706,5.8706,5.8706,5.8706,5.8706,5.8706,5.8706,5.8706,5.8598,5.8492,5.842,5.8297,5.8225,5.8203,5.8077,5.8394,5.919,6.0003,6.0811,6.1624,6.2567,6.302,6.3051,6.3177,6.3296,6.3424,6.3424,6.35,6.359,6.359,6.3534,6.3412,6.3278,6.3225,6.3213,6.3069,6.2941,6.2818,3.2401,3.2406,3.2406,3.2406,3.2406,0.0,0.0,0.0,0.0,0.0,0.0,0.0,0.0,0.0,0.0,0.0,0.0,3.6171,3.6171,3.6782,0.0,3.7282,3.7079,3.7131,3.7496,3.7353,0.0,0.0,0.0,0.0,0.0,0.0,0.0,0.0,4.2959,4.3712,0.0,0.0,0.0,4.7004,4.7231,0.0,4.7831,4.8,4.7859,4.7611,4.77,4.7744,4.7715,0.0,4.8135,4.8655,0.0,0.0,0.0,0.0,0.0,0.0,0.0,0.0,0.0,0.0,0.0,0.0,5.1398,5.2642,5.3808,5.3808,5.3808,5.3808,5.3808,5.3808,5.4063,5.4862,5.5739,5.6636,5.7597,5.8284,5.8706,5.8706,5.8706,5.8706,5.8706,5.8706,5.8706,5.8706,5.869,5.8609,5.8497,5.847,5.8373,5.8208,5.818,5.8498,5.919,6.0003,6.0853,6.1764,6.2603,6.3117,6.3312,6.3354,6.3429,6.3557,6.3557,6.3574,6.359,6.359,6.3579,6.3551,6.3412,6.3366,6.333,6.3219,6.3087,6.2966,3.2406,3.2406,3.2511,3.2888,0.0,0.0,0.0,0.0,0.0,0.0,0.0,0.0,0.0,0.0,0.0,0.0,0.0,0.0,0.0,0.0,0.0,3.7505,3.7528,3.7719,3.808,3.8098,3.8276,0.0,0.0,0.0,0.0,0.0,0.0,0.0,0.0,0.0,0.0,0.0,4.733,4.7722,4.792,0.0,4.8301,4.8301,4.801,4.7658,4.8087,4.812,4.7955,4.7955,4.8081,0.0,0.0,4.8245,4.8601,0.0,4.8736,4.8904,0.0,0.0,0.0,4.9406,0.0,0.0,0.0,5.2935,5.3808,5.3808,5.3808,5.3808,5.3808,5.3808,5.3938,5.4346,5.5103,5.5795,5.6204,5.7671,5.8706,5.8706,5.8706,5.8706,5.8706,5.8706,5.8706,5.8706,5.8706,5.8667,5.859,5.8532,5.8452,5.8356,5.832,5.8461,5.8793,6.0001,6.0846,6.1316,6.2593,6.3265,6.3406,6.3464,6.3539,6.359,6.359,6.359,6.359,6.359,6.359,6.3585,6.3528,6.3458,6.3395,6.3325,6.3206,6.3087,3.2849,3.2849,3.3038,3.3639,0.0,0.0,0.0,0.0,0.0,0.0,0.0,0.0,0.0,0.0,0.0,0.0,0.0,0.0,0.0,0.0,0.0,0.0,3.8227,3.8515,3.8891,3.8914,3.9255,3.9921,0.0,0.0,0.0,0.0,0.0,0.0,0.0,0.0,0.0,0.0,0.0,4.795,0.0,4.842,4.842,4.842,4.8182,4.7934,4.8564,4.8578,4.8287,4.8191,0.0,4.7884,4.8094,4.8273,0.0,0.0,0.0,0.0,0.0,0.0,0.0,0.0,0.0,5.1806,0.0,0.0,0.0,5.3808,5.3808,5.3808,5.3808,0.0,0.0,5.3585,0.0,0.0,0.0,5.678,0.0,5.8446,5.8618,5.8706,5.8706,5.8706,5.8706,5.8706,5.8706,5.8706,5.8706,5.8604,5.8527,5.8505,5.8456,5.842,5.8393,6.0011,6.0817,6.0858,6.2582,6.3412,6.3441,6.3551,6.359,6.359,6.359,6.359,6.359,6.359,6.359,6.359,6.359,6.3534,6.3441,6.3441,6.3354,6.3231,3.4434,3.4434,3.4469,3.4552,0.0,0.0,0.0,0.0,0.0,0.0,0.0,0.0,0.0,0.0,0.0,0.0,0.0,0.0,4.0596,0.0,0.0,0.0,0.0,0.0,3.9661,3.9723,3.9944,4.0321,0.0,0.0,0.0,0.0,0.0,0.0,4.4964,0.0,0.0,0.0,4.8106,0.0,4.8801,4.8825,0.0,4.8825,4.8798,4.8727,4.8467,4.8339,4.8243,0.0,4.8164,4.8632,0.0,4.8212,0.0,0.0,0.0,0.0,0.0,0.0,0.0,0.0,5.1858,0.0,0.0,0.0,5.3808,5.3808,0.0,0.0,0.0,0.0,0.0,0.0,0.0,0.0,5.4049,5.5461,5.6835,5.756,5.826,5.8706,5.8706,5.8706,5.8706,5.8706,5.8706,5.8706,5.8706,5.8696,5.8625,5.8505,5.8489,5.8459,5.8393,6.0011,6.0856,6.0994,6.2623,6.3458,6.3574,6.3585,6.359,6.359,6.359,6.359,6.359,6.359,6.359,6.359,6.359,6.3585,6.3574,6.3574,6.3481,6.3383,3.4877,3.4697,3.4837,3.5262,0.0,0.0,0.0,0.0,0.0,0.0,0.0,0.0,0.0,0.0,0.0,0.0,0.0,4.0321,0.0,0.0,0.0,0.0,0.0,0.0,0.0,4.0546,4.0716,4.1096,4.171,0.0,0.0,0.0,0.0,0.0,4.5965,0.0,4.7499,0.0,0.0,0.0,0.0,0.0,0.0,4.8904,4.8904,4.8856,4.8448,4.8453,4.8624,0.0,4.8435,0.0,0.0,0.0,0.0,0.0,0.0,0.0,0.0,0.0,0.0,0.0,0.0,0.0,5.3195,0.0,5.3808,0.0,0.0,0.0,0.0,0.0,0.0,0.0,5.3864,0.0,0.0,0.0,5.6037,5.7337,0.0,0.0,5.8656,5.8706,5.8706,5.8706,5.8706,5.8706,5.8706,5.8706,5.8672,5.8619,5.8619,5.8598,5.8569,6.0205,6.1067,6.1148,6.2743,6.3545,6.359,6.359,6.359,6.359,6.359,6.359,6.359,6.359,6.359,6.359,6.359,6.359,6.359,6.359,6.3562,6.3492,3.554,0.0,0.0,0.0,0.0,0.0,0.0,0.0,0.0,0.0,0.0,0.0,4.0655,4.0931,0.0,0.0,0.0,4.1049,0.0,0.0,4.0506,0.0,0.0,0.0,0.0,0.0,4.1535,4.1926,4.2335,0.0,0.0,0.0,0.0,0.0,0.0,4.7546,4.8073,0.0,0.0,4.8904,4.8904,4.8904,4.8904,4.8904,4.8904,4.887,4.8569,4.8651,4.8928,4.9027,4.8947,0.0,4.927,0.0,0.0,0.0,0.0,0.0,5.1676,0.0,0.0,0.0,0.0,0.0,0.0,0.0,0.0,0.0,0.0,0.0,0.0,0.0,0.0,0.0,0.0,5.3715,0.0,5.4161,0.0,0.0,0.0,0.0,0.0,5.8706,5.8706,5.8706,5.8706,5.8706,5.8706,5.8706,5.8706,5.8706,5.8706,5.8706,5.8706,6.0364,6.12,6.1219,6.2835,6.359,6.359,6.359,6.359,6.359,6.359,6.359,6.359,6.359,6.359,6.359,6.359,6.359,6.359,6.359,6.359,6.3579,3.6937,3.6937,0.0,0.0,0.0,0.0,0.0,0.0,0.0,0.0,0.0,0.0,0.0,0.0,0.0,0.0,0.0,4.3456,4.383,0.0,4.3104,0.0,0.0,4.1955,0.0,0.0,0.0,0.0,0.0,0.0,0.0,0.0,0.0,0.0,0.0,4.812,4.8867,4.8886,4.8904,4.8904,4.8904,4.8904,4.8904,0.0,4.8904,4.8904,4.8891,0.0,0.0,4.9341,4.9741,0.0,0.0,0.0,0.0,0.0,0.0,0.0,0.0,0.0,0.0,5.3566,0.0,0.0,0.0,0.0,5.3808,0.0,0.0,0.0,0.0,0.0,0.0,0.0,0.0,0.0,0.0,0.0,0.0,0.0,0.0,0.0,0.0,5.8706,5.8706,0.0,5.8706,5.8706,5.8706,5.8706,5.8706,5.8706,5.8706,5.8706,5.8706,6.0364,6.12,6.1219,6.2835,6.359,6.359,6.359,6.359,6.359,6.359,6.359,6.359,6.359,6.359,6.359,6.359,6.359,6.359,6.359,6.359,6.359,3.7007,0.0,0.0,0.0,0.0,0.0,0.0,3.9585,0.0,0.0,0.0,0.0,0.0,0.0,4.3642,0.0,0.0,4.4544,4.4413,4.427,0.0,0.0,0.0,4.4065,0.0,0.0,0.0,0.0,0.0,0.0,4.5711,0.0,0.0,0.0,0.0,4.8644,0.0,0.0,0.0,0.0,0.0,4.8904,4.8904,0.0,0.0,4.896,4.9499,4.9684,0.0,5.0523,5.0847,5.0981,5.1116,5.1644,5.2197,5.2197,5.2563,0.0,0.0,0.0,5.3455,5.3734,0.0,0.0,0.0,0.0,0.0,0.0,0.0,0.0,0.0,0.0,0.0,0.0,0.0,0.0,0.0,0.0,0.0,0.0,0.0,0.0,0.0,0.0,0.0,0.0,5.8706,0.0,5.8706,5.8706,5.8706,5.8706,5.8706,5.8706,5.8706,6.0364,6.12,6.1219,6.2835,6.359,6.359,6.359,6.359,6.359,6.359,6.359,6.359,6.359,6.359,6.359,6.359,6.359,6.359,6.359,6.359,6.359,3.7687,0.0,0.0,0.0,0.0,0.0,0.0,0.0,0.0,0.0,4.1896,0.0,4.3115,0.0,4.4017,0.0,4.4651,4.4967,4.5026,4.5032,0.0,4.5434,4.5501,0.0,0.0,0.0,0.0,0.0,0.0,4.5627,4.6301,4.6984,0.0,0.0,0.0,4.8904,4.8904,0.0,4.8904,0.0,0.0,4.8904,0.0,0.0,4.9332,4.9387,0.0,5.0297,5.0687,5.1546,5.1825,5.1881,5.2159,5.2605,5.3028,5.3028,5.3381,5.3808,5.3808,5.3808,0.0,5.3808,5.3808,0.0,5.3808,0.0,0.0,0.0,0.0,0.0,0.0,0.0,0.0,0.0,0.0,0.0,0.0,5.3808,0.0,0.0,0.0,0.0,0.0,0.0,0.0,0.0,0.0,0.0,0.0,5.8706,5.8706,5.8706,5.8706,5.8706,5.8706,6.0364,6.12,6.1219,6.2835,6.359,6.359,6.359,6.359,6.359,6.359,6.359,6.359,6.359,6.359,6.359,6.359,6.359,6.359,6.359,6.359,6.359,3.8945,3.9141,0.0,0.0,3.9508,0.0,0.0,0.0,4.1932,0.0,4.2827,4.3131,4.3851,4.3962,4.4164,4.4589,4.4641,0.0,4.5869,4.5916,0.0,0.0,4.6016,4.5814,4.5365,0.0,0.0,0.0,0.0,0.0,4.7104,4.7548,0.0,0.0,4.8904,0.0,4.8904,4.8904,4.8904,4.8904,4.8904,4.8923,4.9034,4.9814,5.0144,5.0223,5.0223,5.0766,5.1584,5.2401,5.2656,5.2791,5.3566,5.3808,5.3808,5.3808,5.3808,5.3808,5.3808,5.3808,5.3808,5.3808,0.0,0.0,0.0,0.0,5.3808,0.0,0.0,0.0,0.0,0.0,0.0,0.0,0.0,0.0,0.0,0.0,0.0,0.0,0.0,0.0,0.0,0.0,0.0,0.0,0.0,0.0,0.0,5.8706,5.8706,5.8706,5.8706,5.8725,5.8762,6.0383,6.1219,6.1274,6.2848,6.359,6.359,6.359,6.359,6.359,6.359,6.359,6.359,6.359,6.359,6.359,6.359,6.359,6.359,6.359,6.359,6.359,3.9196,3.9736,4.0266,0.0,4.0597,4.0673,0.0,0.0,0.0,0.0,4.3284,4.3791,4.4294,4.4917,4.5591,4.6294,4.6628,0.0,0.0,0.0,0.0,4.7187,4.7506,4.7184,4.6139,4.6921,0.0,4.6535,0.0,0.0,4.8407,4.8545,4.8704,0.0,0.0,0.0,4.8904,4.8904,4.8904,4.8904,4.8904,4.9257,0.0,0.0,5.0873,5.1955,5.1955,5.2099,5.2415,5.3213,5.3492,5.3529,5.3734,5.3808,5.3808,5.3808,5.3808,5.3808,5.3808,5.3808,5.3808,5.3808,5.3808,5.3808,0.0,0.0,0.0,0.0,0.0,0.0,0.0,0.0,0.0,0.0,0.0,0.0,0.0,0.0,0.0,5.3808,0.0,0.0,0.0,0.0,0.0,0.0,0.0,0.0,5.8706,5.8706,5.8706,5.8706,5.8706,5.8985,5.9598,6.0661,6.1497,6.211,6.3126,6.359,6.359,6.359,6.359,6.359,6.359,6.359,6.359,6.359,6.359,6.359,6.359,6.359,6.359,6.359,6.359,6.359,3.9987,0.0,0.0,4.1953,0.0,0.0,4.2108,0.0,0.0,4.3758,4.4167,0.0,4.5174,4.5681,4.6136,4.6537,4.6813,0.0,0.0,0.0,0.0,4.7601,4.7851,4.7666,4.6939,4.7633,0.0,4.7269,0.0,0.0,4.8642,4.8812,4.8904,0.0,0.0,4.8904,4.8904,4.8904,4.8904,4.8923,4.9313,0.0,0.0,5.091,5.1783,5.2656,5.2991,5.3121,5.3195,5.3659,5.3808,5.3808,5.3808,5.3808,5.3808,5.3808,5.3808,5.3808,5.3808,5.3808,5.3808,5.3808,5.3808,5.3808,5.3808,5.3808,5.3901,0.0,0.0,0.0,0.0,0.0,0.0,0.0,0.0,0.0,0.0,0.0,0.0,0.0,5.4198,0.0,0.0,0.0,0.0,0.0,0.0,0.0,0.0,5.8706,5.8706,5.8706,5.8706,5.9096,5.9895,6.0749,6.159,6.2407,6.3225,6.359,6.359,6.359,6.359,6.359,6.359,6.359,6.359,6.359,6.359,6.359,6.359,6.359,6.359,6.359,6.359,6.359,0.0,0.0,0.0,0.0,0.0,0.0,0.0,4.3617,0.0,4.4962,0.0,4.5441,4.6071,4.6147,4.6135,4.6086,0.0,4.6423,4.6793,4.6925,4.7143,4.7496,4.7569,4.7543,4.7421,4.7596,0.0,0.0,0.0,0.0,0.0,4.8633,4.8816,0.0,0.0,0.0,0.0,4.8904,4.896,4.9127,4.9875,5.0283,5.0595,5.2043,5.2679,5.2842,5.3548,5.3808,5.3808,5.3808,5.3808,5.3808,5.3808,5.3808,5.3808,5.3808,5.3808,5.3808,5.3808,5.3808,5.3826,5.3938,5.3956,5.3994,5.4105,5.4124,5.4328,5.5034,5.5164,5.5405,0.0,0.0,0.0,0.0,0.0,0.0,0.0,0.0,0.0,0.0,0.0,0.0,0.0,0.0,0.0,0.0,0.0,0.0,0.0,0.0,5.8706,5.8706,5.8706,5.9133,6.0062,6.0829,6.1664,6.2569,6.3275,6.359,6.359,6.359,6.359,6.359,6.359,6.359,6.359,6.359,6.359,6.359,6.359,6.359,6.359,6.359,6.359,6.359,0.0,0.0,0.0,0.0,0.0,4.4683,4.4544,4.4631,4.4734,4.4764,4.5297,4.5732,4.5865,4.5865,4.6067,4.6537,4.6607,0.0,0.0,0.0,0.0,4.7044,4.7394,4.7237,4.6459,4.7582,4.7795,0.0,0.0,0.0,0.0,0.0,0.0,0.0,0.0,0.0,4.8904,4.8904,0.0,4.9907,5.0056,5.0947,5.2192,5.2494,5.3009,5.3604,5.3752,5.3808,5.3808,5.3808,5.3808,5.3808,5.3808,5.3808,5.3808,5.3808,5.3808,5.3808,5.3808,5.3808,5.3956,5.4625,5.4787,5.4973,5.5702,5.5851,5.5893,5.6037,5.6074,5.6116,5.6265,0.0,0.0,0.0,0.0,0.0,0.0,0.0,0.0,0.0,0.0,5.6705,0.0,0.0,0.0,0.0,0.0,0.0,0.0,0.0,5.8706,0.0,5.8706,5.9436,0.0,0.0,6.1943,6.3386,6.3535,6.359,6.359,6.359,6.359,6.359,6.359,6.359,6.359,6.359,6.359,6.359,6.359,6.359,6.359,6.359,6.359,6.359,0.0,0.0,0.0,0.0,0.0,0.0,0.0,4.5223,0.0,4.5262,4.5632,4.5871,4.5808,4.5922,4.6036,4.6119,4.6254,4.6394,4.6554,4.6689,4.6666,4.6435,4.673,0.0,4.6203,4.7106,4.7464,4.7264,0.0,0.0,0.0,0.0,0.0,4.8619,0.0,4.8904,0.0,0.0,0.0,5.0186,5.104,5.1876,5.2656,5.3065,5.3455,5.3808,5.3808,5.3808,5.3808,5.3808,5.3808,5.3808,5.3808,5.3808,5.3808,5.3808,5.3808,5.3882,5.4309,5.4416,5.4625,5.5461,5.5665,5.5777,5.6204,5.6302,5.6413,5.6835,5.6928,5.6928,5.6928,5.6928,0.0,0.0,0.0,0.0,0.0,0.0,0.0,0.0,0.0,0.0,0.0,0.0,0.0,0.0,0.0,0.0,0.0,0.0,5.8706,0.0,0.0,0.0,6.1182,0.0,6.242,6.359,6.359,6.359,6.359,6.359,6.359,6.359,6.359,6.359,6.359,6.359,6.359,6.359,6.359,6.359,6.359,6.359,6.359,6.359,0.0,4.4176,0.0,0.0,4.5304,0.0,4.5476,4.5515,4.56,4.5693,4.5819,4.5827,4.5736,4.5903,4.5909,4.5632,4.5789,4.5833,4.5647,4.5833,4.5954,4.5954,4.6148,4.6222,4.6153,4.6805,4.7248,0.0,0.0,0.0,0.0,0.0,0.0,0.0,0.0,0.0,0.0,0.0,5.0316,5.0743,5.2062,5.2698,5.2916,5.3566,5.3808,5.3808,5.3808,5.3808,5.3808,5.3808,5.3808,5.3808,5.3808,5.3808,5.3826,5.3994,5.4063,5.4235,5.5052,5.527,5.5479,5.6334,5.6557,5.6594,5.6761,5.6817,5.6984,5.7615,5.7764,5.7764,5.7764,5.7764,0.0,0.0,0.0,0.0,0.0,0.0,0.0,0.0,0.0,0.0,5.7467,0.0,0.0,0.0,0.0,0.0,5.8706,0.0,0.0,0.0,0.0,6.0322,6.1182,0.0,6.2797,6.359,6.359,6.359,6.359,6.359,6.359,6.359,6.359,6.359,6.359,6.359,6.359,6.359,6.359,6.359,6.359,6.359,6.359,6.359,0.0,0.0,0.0,0.0,0.0,0.0,4.5594,4.5496,4.5423,4.5437,4.545,4.545,4.5443,4.5463,4.5515,4.5583,4.5615,4.5673,4.577,4.5801,4.5814,4.5814,4.6248,4.6327,4.6023,4.73,4.7648,0.0,0.0,0.0,0.0,0.0,0.0,0.0,0.0,0.0,0.0,5.0135,5.1026,5.2378,5.2545,5.3046,5.3696,5.3771,5.3808,5.3808,5.3808,5.3808,5.3808,5.3808,5.3808,5.3808,5.3808,5.3808,5.3938,5.4676,5.488,5.5089,5.5944,5.619,5.6371,5.7188,5.7393,5.7578,5.8303,5.8483,5.8507,5.8576,5.86,5.86,5.86,5.86,5.8563,0.0,0.0,0.0,0.0,0.0,0.0,0.0,0.0,0.0,0.0,5.8154,0.0,0.0,5.8706,0.0,0.0,0.0,0.0,5.8706,5.9486,6.0322,6.1182,6.1999,6.2797,6.359,6.359,6.359,6.359,6.359,6.359,6.359,6.359,6.359,6.359,6.359,6.359,6.359,6.359,6.359,6.359,6.359,6.359,6.359,0.0,0.0,0.0,0.0,0.0,0.0,0.0,4.5437,4.5397,4.5397,4.5469,4.5496,4.541,4.5531,4.56,4.5496,4.5544,4.5594,4.5567,4.5645,4.5673,4.5673,4.6253,4.6507,4.6362,4.7196,4.76,0.0,0.0,0.0,0.0,0.0,0.0,0.0,0.0,4.9796,5.0167,5.1193,5.2011,5.2642,5.3139,5.3511,5.3808,5.3808,5.3808,5.3808,5.3808,5.3808,5.3808,5.3808,5.3808,5.3808,5.3808,5.4124,5.4583,5.4917,5.5368,5.5962,5.6798,5.7021,5.7207,5.8024,5.8228,5.8297,5.8632,5.8706,5.8706,5.8706,5.8706,5.8706,5.8706,5.8706,5.8706,0.0,0.0,0.0,0.0,0.0,0.0,0.0,0.0,0.0,0.0,0.0,0.0,0.0,0.0,0.0,0.0,0.0,0.0,5.8706,0.0,6.0847,6.12,6.2476,6.3275,6.359,6.359,6.359,6.359,6.359,6.359,6.359,6.359,6.359,6.359,6.359,6.359,6.359,6.359,6.359,6.359,6.359,6.359,6.359,4.5397,0.0,4.5397,0.0,4.5397,4.5397,4.5397,4.5397,4.5397,4.5397,4.5483,4.5509,4.541,4.5574,4.5613,4.5417,4.5489,4.5502,4.5404,4.5496,4.5602,4.5776,4.6234,0.0,4.6737,4.7214,4.7645,4.8024,4.8075,0.0,0.0,0.0,0.0,0.0,4.9847,5.0367,5.091,5.2099,5.2731,5.2991,5.3566,5.3808,5.3808,5.3808,5.3808,5.3808,5.3808,5.3808,5.3808,5.3808,5.3956,5.4156,5.4156,5.4546,5.5103,5.5586,5.6167,5.6835,5.7634,5.7857,5.7987,5.8563,5.8706,5.8706,5.8706,5.8706,5.8706,5.8706,5.8706,5.8706,5.8706,5.8706,5.8706,5.8706,0.0,0.0,0.0,0.0,0.0,0.0,5.8706,5.8706,5.8706,5.8706,0.0,0.0,0.0,0.0,0.0,0.0,0.0,0.0,0.0,0.0,6.1553,6.2903,6.359,6.359,6.359,6.359,6.359,6.359,6.359,6.359,6.359,6.359,6.359,6.359,6.359,6.359,6.359,6.359,6.359,6.359,6.359,6.359,4.5397,4.5397,4.5397,4.5397,4.5397,4.5397,4.5397,4.5397,4.5397,4.5397,4.5397,4.5397,4.5397,4.5404,4.5404,4.5397,4.5397,4.5397,4.5397,4.5397,4.5641,0.0,0.0,4.6477,4.7079,4.7545,4.7882,4.8109,0.0,0.0,4.8306,0.0,4.8947,5.0089,5.0093,5.1022,5.2563,5.2582,5.3065,5.3789,5.3808,5.3808,5.3808,5.3808,5.3808,5.3808,5.3808,5.3808,5.3808,5.3808,5.4323,5.4992,5.4992,5.4992,5.5331,5.6984,5.7485,5.7653,5.847,5.8687,5.8687,5.8706,5.8706,5.8706,5.8706,5.8706,5.8706,5.8706,5.8706,5.8706,5.8706,5.8706,5.8706,5.8706,0.0,0.0,0.0,0.0,0.0,0.0,5.8706,5.8706,5.8706,5.8706,0.0,0.0,0.0,0.0,0.0,0.0,0.0,5.9858,6.0736,0.0,6.2389,6.3187,6.359,6.359,6.359,6.359,6.359,6.359,6.359,6.359,6.359,6.359,6.359,6.359,6.359,6.359,6.359,6.359,6.359,6.359,6.359,6.359,4.5397,4.5397,4.5397,4.5397,4.5397,4.5397,4.5397,4.5397,4.5397,4.5397,4.5397,4.5397,4.5397,4.5397,4.5397,0.0,4.5397,4.5397,0.0,4.5739,4.6013,4.6192,4.681,4.7248,4.7432,4.7994,4.8161,4.79,0.0,0.0,0.0,4.9524,5.0055,5.1008,5.1565,5.2099,5.2642,5.3195,5.3566,5.3808,5.3808,5.3808,5.3808,5.3808,5.3808,5.3808,5.3808,5.3808,5.3882,5.4434,5.4787,5.5201,5.6334,5.67,5.6817,5.7337,5.7894,5.8377,5.8632,5.8706,5.8706,5.8706,5.8706,5.8706,5.8706,5.8706,5.8706,5.8706,5.8706,5.8706,5.8706,5.8706,5.8706,5.8706,5.8706,0.0,0.0,0.0,0.0,0.0,5.8706,5.8706,5.8706,5.8706,0.0,0.0,0.0,0.0,0.0,0.0,0.0,0.0,6.1269,0.0,6.2407,6.32,6.359,6.359,6.359,6.359,6.359,6.359,6.359,6.359,6.359,6.359,6.359,6.359,6.359,6.359,6.359,6.359,6.359,6.359,6.359,6.359,4.5397,4.5397,4.5397,4.5397,4.5645,4.5852,4.5852,4.6093,4.6266,4.6266,4.6266,4.6266,4.6266,4.6266,0.0,4.5449,4.5397,4.5397,4.5397,4.5707,4.5999,4.6192,4.6753,4.7165,4.7335,4.788,0.0,4.825,4.9055,4.9732,5.0324,5.0324,5.0866,5.1881,5.2378,5.2768,5.3083,5.3585,5.3808,5.3808,5.3808,5.3808,5.3808,5.3808,5.3808,5.3808,5.3808,5.3994,5.4323,5.4829,5.5424,5.6101,5.71,5.7623,5.7898,5.7934,5.8303,5.8706,5.8706,5.8706,5.8706,5.8706,5.8706,5.8706,5.8706,5.8706,5.8706,5.8706,5.8706,5.8706,5.8706,5.8706,5.8706,5.8706,5.8706,5.8706,5.8706,0.0,0.0,0.0,0.0,0.0,0.0,5.8706,5.8706,0.0,0.0,0.0,0.0,0.0,0.0,6.0823,6.1845,6.2556,6.2848,6.3349,6.359,6.359,6.359,6.359,6.359,6.359,6.359,6.359,6.359,6.359,6.359,6.359,6.359,6.359,6.359,6.359,6.359,6.359,6.359,6.359,4.5466,4.5483,4.55,0.0,4.6186,0.0,4.6676,4.7255,4.7703,4.7703,4.7703,4.7703,4.7703,4.7703,4.711,4.5673,0.0,0.0,0.0,4.5592,4.5825,4.6332,4.6387,4.6612,4.7046,4.7529,4.8211,4.9159,5.0052,5.0603,5.0816,5.0826,5.1493,5.2675,5.2675,5.3102,5.3808,5.3808,5.3808,5.3808,5.3808,5.3808,5.3808,5.3808,5.3826,5.3882,5.3882,5.4393,5.5093,5.5159,5.6189,5.7463,5.7402,5.7884,5.8516,5.8646,5.8701,5.8701,5.8706,5.8706,5.8706,5.8706,5.8706,5.8706,5.8706,5.8706,5.8706,5.8706,5.8706,5.8706,5.8706,5.8706,5.8706,5.8706,5.8706,5.8706,5.8706,0.0,0.0,0.0,0.0,0.0,0.0,5.8706,5.8725,0.0,0.0,0.0,0.0,0.0,6.0786,6.2352,6.2439,6.2829,6.359,6.359,6.359,6.359,6.359,6.359,6.359,6.359,6.359,6.359,6.359,6.359,6.359,6.359,6.359,6.359,6.359,6.359,6.359,6.359,6.359,6.359,0.0,0.0,4.6496,4.7065,4.7307,4.7445,4.7445,4.7582,4.7703,4.7703,4.7703,4.7703,4.7703,4.7703,4.7548,4.7186,4.7162,4.7162,4.7162,4.7486,4.7746,4.7874,4.8275,4.8537,4.8651,4.9221,4.9865,5.0592,5.0536,5.1003,5.2005,5.2092,5.2646,5.3529,5.3529,5.3622,5.3808,5.3808,5.3808,5.3808,5.3808,5.3808,5.3808,5.3808,5.4174,5.4713,5.4713,5.5202,5.594,5.6675,5.7033,5.731,5.8003,5.8317,5.8435,5.8511,5.8543,5.8559,5.8667,5.8706,5.8706,5.8706,5.8706,5.8706,5.8706,5.8706,5.8706,5.8706,5.8706,5.8706,5.8706,5.8706,5.8706,5.8706,5.8706,5.8706,5.8706,5.8706,0.0,0.0,5.8706,5.8706,5.8706,5.8706,5.8953,0.0,0.0,0.0,6.1733,6.1813,6.1993,6.2383,6.2996,6.3405,6.359,6.359,6.359,6.359,6.359,6.359,6.359,6.359,6.359,6.359,6.359,6.359,6.359,6.359,6.359,6.359,6.359,6.359,6.359,6.359,6.359,6.359,4.7014,4.71,4.722,4.7634,4.7979,4.8203,4.8203,4.8513,4.8755,4.8755,4.8755,4.8755,4.8755,4.8755,4.8755,4.8755,4.81,4.7703,4.7703,4.7939,4.8072,4.8072,4.859,4.8873,4.8873,4.9649,5.0553,5.1566,5.1709,5.2195,5.2995,5.3076,5.3352,5.3808,5.3808,5.3808,5.3808,5.3808,5.3808,5.3808,5.3808,5.3808,5.3845,5.4212,5.4625,5.5042,5.5383,5.5995,5.6727,5.7164,5.7492,5.7765,5.8219,5.8347,5.8327,5.8351,5.8425,5.8527,5.8661,5.8706,5.8706,5.8706,5.8706,5.8706,5.8706,5.8706,5.8706,5.8706,5.8706,5.8706,5.8706,5.8706,5.8706,5.8706,5.8706,5.8706,5.8706,5.8706,0.0,5.8706,5.8706,5.8706,5.8706,5.9022,5.943,5.9876,6.0619,0.0,6.2352,6.2755,6.2946,6.2946,6.3368,6.359,6.359,6.359,6.359,6.359,6.359,6.359,6.359,6.359,6.359,6.359,6.359,6.359,6.359,6.359,6.359,6.359,6.359,6.359,6.359,6.359,6.359,6.359,4.7834,4.7876,4.791,4.8031,4.8565,4.8972,4.8972,4.9565,5.0003,5.0003,5.0003,5.0003,5.0003,5.0003,5.0003,5.0003,4.8807,4.8048,4.8048,4.8114,4.8169,4.8169,4.8673,4.8968,4.8968,4.9887,5.0981,5.2279,5.2984,5.3459,5.3704,5.37,5.374,5.3808,5.3808,5.3808,5.3808,5.3808,5.3808,5.3808,5.3808,5.3864,5.4063,5.4736,5.513,5.5421,5.6054,5.6776,5.7418,5.732,5.7756,5.8327,5.8225,5.8191,5.8174,5.8197,5.8318,5.8479,5.8609,5.8656,5.8672,5.8687,5.8706,5.8706,5.8706,5.8706,5.8706,5.8706,5.8706,5.8706,5.8706,5.8706,5.8706,5.8706,5.8706,5.8706,5.8706,0.0,5.8706,5.8706,5.8706,5.8743,5.8873,5.9505,6.0006,6.0266,6.1609,6.2439,6.2569,6.3238,6.359,6.359,6.359,6.359,6.359,6.359,6.359,6.359,6.359,6.359,6.359,6.359,6.359,6.359,6.359,6.359,6.359,6.359,6.359,6.359,6.359,6.359,6.359,6.359,6.359,6.359,4.8506,4.8627,4.8841,4.9521,4.9745,4.9814,4.9814,4.9917,5.0003,5.0003,5.0003,5.0003,5.0003,5.0003,5.0003,5.0003,4.9779,4.9641,4.9641,5.007,5.0317,5.0317,5.0825,5.1119,5.1119,5.1712,5.2375,5.311,5.3355,5.3558,5.3709,5.3759,5.3793,5.3808,5.3808,5.3808,5.3808,5.3808,5.3808,5.3808,5.3808,5.4212,5.4829,5.4955,5.581,5.6952,5.7066,5.7513,5.8061,5.8163,5.8131,5.8071,5.8174,5.8111,5.8048,5.8169,5.8225,5.8281,5.8415,5.8494,5.8553,5.8667,5.8706,5.8706,5.8706,5.8706,5.8706,5.8706,5.8706,5.8706,5.8706,5.8706,5.8706,5.8706,5.8706,5.8706,5.8706,0.0,5.8706,5.8706,5.8706,5.8966,5.9653,5.9839,6.0489,6.1906,6.2259,6.2705,6.3386,6.3535,6.359,6.359,6.359,6.359,6.359,6.359,6.359,6.359,6.359,6.359,6.359,6.359,6.359,6.359,6.359,6.359,6.359,6.359,6.359,6.359,6.359,6.359,6.359,6.359,6.359,6.359,4.9375,4.9444,4.9565,4.9934,5.0003,5.0003,5.0003,5.0003,5.0003,5.0003,5.0003,5.0003,5.0003,5.0003,5.0003,5.0003,5.0003,5.0113,5.0404,5.0664,5.0796,5.0796,5.1582,5.2179,5.2466,5.2705,5.2972,5.3256,5.3314,5.3396,5.3498,5.3594,5.3648,5.3635,5.376,5.3774,5.3745,5.3779,5.3774,5.3777,5.4222,5.4572,5.4929,5.5799,5.6564,5.7233,5.7636,5.796,5.8203,5.8191,5.8094,5.8008,5.8065,5.8042,5.8008,5.8071,5.8197,5.8327,5.8382,5.8456,5.8516,5.8588,5.8646,5.8706,5.8706,5.8706,5.8706,5.8706,5.8706,5.8706,5.8706,5.8706,5.8706,5.8706,5.8706,0.0,5.8706,5.8706,5.886,5.9282,5.9356,5.9672,6.0513,6.099,6.1572,6.2333,6.2797,6.32,6.3572,6.359,6.359,6.359,6.359,6.359,6.359,6.359,6.359,6.359,6.359,6.359,6.359,6.359,6.359,6.359,6.359,6.359,6.359,6.359,6.359,6.359,6.359,6.359,6.359,6.359,6.359,6.359,5.0003,5.0003,5.0003,5.0003,5.0003,5.0003,5.0003,5.0003,5.0003,5.0003,5.0003,5.0003,5.0003,5.0003,5.0003,5.0003,5.0099,5.0359,5.0762,5.1026,5.1171,5.1171,5.2078,5.2778,5.3185,5.3196,5.3206,5.322,5.322,5.3277,5.3354,5.3446,5.3504,5.3514,5.3668,5.3692,5.3674,5.3901,5.3984,5.3997,5.4812,5.5186,5.5386,5.6628,5.7203,5.7428,5.7991,5.818,5.8141,5.8031,5.8002,5.8002,5.8002,5.8002,5.8002,5.8002,5.8152,5.8316,5.8349,5.8396,5.8436,5.8476,5.8572,5.8651,5.8651,5.869,5.8706,5.8706,5.8706,5.8706,5.8706,5.8706,5.8706,5.8706,0.0,5.899,0.0,5.9152,5.951,6.0136,6.0192,6.0545,6.1404,6.2036,6.2476,6.2662,6.3256,6.359,6.359,6.359,6.359,6.359,6.359,6.359,6.359,6.359,6.359,6.359,6.359,6.359,6.359,6.359,6.359,6.359,6.359,6.359,6.359,6.359,6.359,6.359,6.359,6.359,6.359,6.359,6.359,6.359,5.0003,5.0003,5.0003,5.0003,5.0003,5.0003,5.0003,5.0003,5.0003,5.0003,5.0003,5.0003,5.0003,5.0003,5.0003,5.0003,5.0446,5.0766,5.0807,5.1737,5.2285,5.2285,5.2828,5.3159,5.3196,5.3196,5.323,5.3297,5.3297,5.3359,5.3494,5.3504,5.3504,5.3504,5.3524,5.3524,5.3551,5.4317,5.4626,5.4689,5.5507,5.6264,5.6937,5.7053,5.7523,5.814,5.8184,5.8129,5.8008,5.8002,5.8002,5.8002,5.8002,5.8002,5.8002,5.8002,5.8008,5.8054,5.818,5.8219,5.8253,5.8382,5.8454,5.8516,5.8516,5.8614,5.8706,5.8706,5.8706,5.8706,5.8706,5.8706,5.8706,5.8706,0.0,0.0,5.9802,6.0513,6.1033,6.1107,6.1107,6.1423,6.2222,6.237,6.2705,6.346,6.3572,6.359,6.359,6.359,6.359,6.359,6.359,6.359,6.359,6.359,6.359,6.359,6.359,6.359,6.359,6.359,6.359,6.359,6.359,6.359,6.359,6.359,6.359,6.359,6.359,6.359,6.359,6.359,6.359,6.359,5.0003,5.0003,5.0003,5.0003,5.0003,5.0003,5.0003,5.0003,5.0003,5.0003,5.0003,5.0003,5.0003,5.0003,5.0003,5.0003,5.0488,5.0796,5.0796,5.1481,5.2191,5.2873,5.3087,5.3196,5.3196,5.3196,5.3217,5.3241,5.3241,5.3267,5.3308,5.3362,5.3339,5.3319,5.3439,5.3722,5.4159,5.4548,5.4951,5.5446,5.6263,5.6722,5.6969,5.7471,5.7829,5.8089,5.8089,5.8042,5.8002,5.8002,5.8002,5.8002,5.8002,5.8002,5.8107,5.8596,5.8737,5.8859,5.9408,5.8895,5.8324,5.8885,5.917,5.9437,5.9937,6.0154,6.0253,6.0253,6.0253,6.0253,6.0253,6.0253,6.0253,6.0253,0.0,6.0717,6.0717,6.0996,6.1386,6.1887,6.1943,6.2259,6.3076,6.3145,6.3275,6.3572,6.359,6.359,6.359,6.359,6.359,6.359,6.359,6.359,6.359,6.359,6.359,6.359,6.359,6.359,6.359,6.359,6.359,6.359,6.359,6.359,6.359,6.359,6.359,6.359,6.359,6.359,6.359,6.359,6.359,6.359,5.0003,5.0003,5.0003,5.0003,5.0003,5.0003,5.0003,5.0003,5.0003,5.0003,5.0003,5.0003,5.0003,5.0003,5.0003,5.0003,5.0488,5.0796,5.0796,5.1467,5.2173,5.2917,5.3103,5.3196,5.3196,5.3196,5.3196,5.3196,5.3196,5.3196,5.3196,5.3256,5.3385,5.3586,5.3718,5.4186,5.4872,5.5212,5.5656,5.618,5.6995,5.7262,5.7238,5.7795,5.8002,5.8002,5.8002,5.8002,5.8002,5.8002,5.8002,5.8033,5.8309,5.8547,5.8859,5.9416,5.9581,5.971,6.0248,5.9652,5.9023,5.9581,5.9912,6.0258,6.0813,6.1078,6.12,6.12,6.12,6.12,6.12,6.12,6.12,6.12,6.1404,6.1572,6.1572,6.1794,6.2166,6.2705,6.2773,6.2996,6.3553,6.359,6.359,6.359,6.359,6.359,6.359,6.359,6.359,6.359,6.359,6.359,6.359,6.359,6.359,6.359,6.359,6.359,6.359,6.359,6.359,6.359,6.359,6.359,6.359,6.359,6.359,6.359,6.359,6.359,6.359,6.359,6.359,6.359,5.0003,5.0003,5.0003,5.0003,5.0003,5.0003,5.0003,5.0003,5.0003,5.0003,5.0003,5.0003,5.0003,5.0003,5.0003,5.0003,5.0488,5.0796,5.0796,5.1805,5.239,5.239,5.2912,5.3196,5.3196,5.3196,5.3196,5.3196,5.3196,5.3196,5.3196,5.3214,5.3636,5.4399,5.4418,5.4864,5.5658,5.6449,5.6792,5.6884,5.7685,5.8002,5.8002,5.8002,5.8002,5.8002,5.8002,5.8002,5.8002,5.8002,5.8002,5.8143,5.8958,5.9765,6.0395,6.0413,6.0413,6.0413,6.0413,6.0413,6.0413,6.0413,6.0615,6.0805,6.0824,6.1041,6.1219,6.1219,6.1219,6.1219,6.1219,6.1219,6.1219,6.1219,6.1887,6.2407,6.2407,6.3095,6.359,6.359,6.359,6.359,6.359,6.359,6.359,6.359,6.359,6.359,6.359,6.359,6.359,6.359,6.359,6.359,6.359,6.359,6.359,6.359,6.359,6.359,6.359,6.359,6.359,6.359,6.359,6.359,6.359,6.359,6.359,6.359,6.359,6.359,6.359,6.359,6.359,6.359,5.0003,5.0003,5.0003,5.0003,5.0003,5.0003,5.0003,5.0003,5.0003,5.0003,5.0003,5.0003,5.0003,5.0003,5.0003,5.0003,5.0488,5.0796,5.0796,5.1443,5.1848,5.1848,5.2717,5.3196,5.3196,5.3196,5.3196,5.3196,5.3196,5.3196,5.3214,5.3788,5.4179,5.4418,5.4992,5.569,5.6449,5.6706,5.7128,5.7666,5.7905,5.8002,5.8002,5.8002,5.8002,5.8002,5.8002,5.8002,5.8002,5.8002,5.8376,5.8976,5.9783,6.0211,6.0505,6.108,6.1251,6.1374,6.193,6.2077,6.1949,6.1374,6.1443,6.1784,6.2363,6.2697,6.2885,6.2885,6.2885,6.2885,6.2885,6.2885,6.2885,6.2885,6.3089,6.3238,6.3238,6.3442,6.359,6.359,6.359,6.359,6.359,6.359,6.359,6.359,6.359,6.359,6.359,6.359,6.359,6.359,6.359,6.359,6.359,6.359,6.359,6.359,6.359,6.359,6.359,6.359,6.359,6.359,6.359,6.359,6.359,6.359,6.359,6.359,6.359,6.359,6.359,6.359,6.359,6.359,5.0003,5.0003,5.0003,5.0003,5.0003,5.0003,5.0003,5.0003,5.0003,5.0003,5.0003,5.0003,5.0003,5.0003,5.0003,5.0003,5.0295,5.0481,5.0481,5.0997,5.1384,5.1582,5.2419,5.2972,5.319,5.3196,5.3196,5.3196,5.3526,5.3673,5.3697,5.4491,5.5042,5.5372,5.5868,5.6528,5.7275,5.7275,5.7556,5.8002,5.8002,5.8002,5.8002,5.8002,5.8002,5.8002,5.8002,5.8198,5.8468,5.8468,5.922,6.023,6.0725,6.1092,6.1441,6.1924,6.2071,6.2181,6.2664,6.2793,6.2683,6.2193,6.229,6.2621,6.3161,6.3454,6.359,6.359,6.359,6.359,6.359,6.359,6.359,6.359,6.359,6.359,6.359,6.359,6.359,6.359,6.359,6.359,6.359,6.359,6.359,6.359,6.359,6.359,6.359,6.359,6.359,6.359,6.359,6.359,6.359,6.359,6.359,6.359,6.359,6.359,6.359,6.359,6.359,6.359,6.359,6.359,6.359,6.359,6.359,6.359,6.359,6.359,6.359,6.359,6.359,6.359,5.0003,5.0003,5.0003,5.0003,5.0003,5.0003,5.0003,5.0003,5.0003,5.0003,5.0003,5.0003,5.0003,5.0003,5.0003,5.0003,5.0003,5.0003,5.0003,5.0551,5.1085,5.1587,5.2228,5.282,5.3295,5.3306,5.3306,5.3306,5.4106,5.4509,5.4528,5.5322,5.6112,5.6792,5.6884,5.7312,5.8002,5.8002,5.8002,5.8002,5.8002,5.8002,5.8002,5.8002,5.8033,5.8112,5.8112,5.8615,5.9319,5.9398,6.0395,6.1618,6.1692,6.2218,6.2793,6.2793,6.2793,6.2793,6.2793,6.2793,6.2793,6.2805,6.299,6.3219,6.336,6.35,6.359,6.359,6.359,6.359,6.359,6.359,6.359,6.359,6.359,6.359,6.359,6.359,6.359,6.359,6.359,6.359,6.359,6.359,6.359,6.359,6.359,6.359,6.359,6.359,6.359,6.359,6.359,6.359,6.359,6.359,6.359,6.359,6.359,6.359,6.359,6.359,6.359,6.359,6.359,6.359,6.359,6.359,6.359,6.359,6.359,6.359,6.359,6.359,6.359,6.359,5.0003,5.0003,5.0003,5.0003,5.0003,5.0003,5.0003,5.0003,5.0003,5.0003,5.0003,5.0003,5.0003,5.0003,5.0003,5.0003,5.0003,5.0003,5.0003,5.0897,5.1486,5.1588,5.3115,5.4021,5.4137,5.4142,5.4142,5.4142,5.4955,5.5346,5.5365,5.6161,5.6633,5.6835,5.7464,5.7831,5.8002,5.8002,5.8002,5.8002,5.8002,5.8002,5.8002,5.8002,5.84,5.8939,5.8939,5.9453,6.0248,6.0878,6.1306,6.171,6.234,6.2664,6.2793,6.2793,6.2793,6.2793,6.2793,6.2793,6.2836,6.2929,6.3002,6.3075,6.3219,6.3436,6.359,6.359,6.359,6.359,6.359,6.359,6.359,6.359,6.359,6.359,6.359,6.359,6.359,6.359,6.359,6.359,6.359,6.359,6.359,6.359,6.359,6.359,6.359,6.359,6.359,6.359,6.359,6.359,6.359,6.359,6.359,6.359,6.359,6.359,6.359,6.359,6.359,6.359,6.359,6.359,6.359,6.359,6.359,6.359,6.359,6.359,6.359,6.359,6.359,6.359,5.0003,5.0003,5.0003,5.0003,5.0003,5.0003,5.0003,5.0003,5.0003,5.0003,5.0003,5.0003,5.0003,5.0003,5.0003,5.0003,5.0003,5.0262,5.0912,5.149,5.218,5.3096,5.4064,5.4716,5.4968,5.5354,5.5354,5.4974,5.5781,5.6161,5.6198,5.7005,5.7367,5.7385,5.7813,5.8002,5.8002,5.8002,5.8002,5.8002,5.8002,5.8002,5.8033,5.8431,5.8829,5.9245,5.9636,6.0285,6.1098,6.19,6.2175,6.2248,6.2664,6.2793,6.2793,6.2793,6.2793,6.2793,6.2793,6.2793,6.283,6.2886,6.2953,6.3057,6.326,6.34,6.3528,6.3579,6.359,6.359,6.359,6.359,6.359,6.359,6.359,6.359,6.359,6.359,6.359,6.359,6.359,6.359,6.359,6.359,6.359,6.359,6.359,6.359,6.359,6.359,6.359,6.359,6.359,6.359,6.359,6.359,6.359,6.359,6.359,6.359,6.359,6.359,6.359,6.359,6.359,6.359,6.359,6.359,6.359,6.359,6.359,6.359,6.359,6.359,6.359,6.359,5.0003,5.0003,5.0003,5.0003,5.0003,5.0003,5.0003,5.0003,5.0003,5.0003,5.0003,5.0003,5.0003,5.0107,5.0193,5.0193,5.0406,5.1002,5.2112,5.2373,5.3171,5.4738,5.5015,5.5353,5.5794,5.6583,5.662,5.58,5.662,5.7018,5.7018,5.7685,5.8002,5.8002,5.8002,5.8002,5.8002,5.8002,5.8002,5.8002,5.8002,5.8076,5.829,5.8958,5.9374,5.971,6.0376,6.1117,6.1906,6.2572,6.2793,6.2793,6.2793,6.2793,6.2793,6.2793,6.2793,6.2793,6.2793,6.2793,6.2793,6.2793,6.288,6.3033,6.3271,6.3371,6.3429,6.3545,6.3579,6.359,6.359,6.359,6.359,6.359,6.359,6.359,6.359,6.359,6.359,6.359,6.359,6.359,6.359,6.359,6.359,6.359,6.359,6.359,6.359,6.359,6.359,6.359,6.359,6.359,6.359,6.359,6.359,6.359,6.359,6.359,6.359,6.359,6.359,6.359,6.359,6.359,6.359,6.359,6.359,6.359,6.359,6.359,6.359,6.359,6.359,6.359,5.0003,5.0003,5.0003,5.0003,5.0003,5.0003,5.0003,5.0003,5.0003,5.0003,5.0003,5.0003,5.0003,5.0572,5.0944,5.0944,5.2014,5.2755,5.2944,5.3859,5.4526,5.4786,5.5909,5.6552,5.6651,5.7428,5.7446,5.6633,5.7446,5.7831,5.7831,5.7947,5.8002,5.8002,5.8002,5.8002,5.8002,5.8002,5.8002,5.8002,5.8002,5.8419,5.9043,5.9153,6.0059,6.1282,6.1398,6.1955,6.2646,6.2756,6.2793,6.2793,6.2793,6.2793,6.2793,6.2793,6.2793,6.2793,6.2793,6.2793,6.2793,6.2793,6.2805,6.2861,6.302,6.323,6.3406,6.3424,6.3522,6.359,6.359,6.359,6.359,6.359,6.359,6.359,6.359,6.359,6.359,6.359,6.359,6.359,6.359,6.359,6.359,6.359,6.359,6.359,6.359,6.359,6.359,6.359,6.359,6.359,6.359,6.359,6.359,6.359,6.359,6.359,6.359,6.359,6.359,6.359,6.359,6.359,6.359,6.359,6.359,6.359,6.359,6.359,6.359,6.359,6.359,6.359,5.0003,5.0003,5.0003,5.0003,5.0003,5.0003,5.0003,5.0003,5.0003,5.0003,5.0003,5.0159,5.0572,5.1272,5.186,5.2181,5.2754,5.3554,5.465,5.5186,5.5801,5.6554,5.7154,5.7464,5.7464,5.7813,5.7831,5.7464,5.7831,5.8002,5.8002,5.8002,5.8002,5.8002,5.8002,5.8002,5.8002,5.8002,5.8253,5.867,5.867,5.9141,5.9912,6.0376,6.097,6.1655,6.2108,6.2505,6.2793,6.2793,6.2793,6.2793,6.2793,6.2793,6.2793,6.2793,6.2793,6.2793,6.2793,6.2793,6.2793,6.2793,6.2793,6.283,6.2867,6.3039,6.3218,6.3377,6.3447,6.3517,6.3579,6.359,6.359,6.359,6.359,6.359,6.359,6.359,6.359,6.359,6.359,6.359,6.359,6.359,6.359,6.359,6.359,6.359,6.359,6.359,6.359,6.359,6.359,6.359,6.359,6.359,6.359,6.359,6.359,6.359,6.359,6.359,6.359,6.359,6.359,6.359,6.359,6.359,6.359,6.359,6.359,6.359,6.359,6.359,6.359,6.359]},{"header":{"parameterUnit":"m.s-1","parameterCategory":1,"la1":30.6,"la2":28.766,"lo1":-90.7593,"lo2":-88.6598,"dy":0.0162,"dx":0.0183,"nx":116,"ny":114,"refTime":"2024-03-18T06:00:00:Z","depth":0,"parameterNumber":3,"parameterNumberName":"V-component_of_WINDS"},"data":[0.0,0.0,0.0,0.0,0.0,0.0,0.0,0.0,0.0,0.0,0.0,0.0,0.0,0.0,0.0,0.0,0.0,0.0,0.0,0.0,0.0,0.0,0.0,0.0,0.0,0.0,0.0,0.0,0.0,0.0,0.0,0.0,0.0,0.0,0.0,0.0,0.0,0.0,0.0,0.0,0.0,0.0,0.0,0.0,0.0,0.0,0.0,0.0,0.0,0.0,0.0,0.0,0.0,0.0,0.0,0.0,0.0,0.0,0.0,0.0,0.0,0.0,0.0,0.0,0.0,0.0,0.0,0.0,0.0,0.0,0.0,0.0,0.0,0.0,0.0,0.0,0.0,0.0,0.0,0.0,0.0,0.0,0.0,0.0,0.0,0.0,0.0,0.0,0.0,0.0,0.0,0.0,0.0,0.0,0.0,0.0,0.0,0.0,0.0,0.0,0.0,0.0,0.0,0.0,0.0,0.0,0.0,0.0,0.0,0.0,0.0,0.0,0.0,0.0,0.0,0.0,0.0,0.0,0.0,0.0,0.0,0.0,0.0,0.0,0.0,0.0,0.0,0.0,0.0,0.0,0.0,0.0,0.0,0.0,0.0,0.0,0.0,0.0,0.0,0.0,0.0,0.0,0.0,0.0,0.0,0.0,0.0,0.0,0.0,0.0,0.0,0.0,0.0,0.0,0.0,0.0,0.0,0.0,0.0,0.0,0.0,0.0,0.0,0.0,0.0,0.0,0.0,0.0,0.0,0.0,0.0,0.0,0.0,0.0,0.0,0.0,0.0,0.0,0.0,0.0,0.0,0.0,0.0,0.0,0.0,0.0,0.0,0.0,0.0,0.0,0.0,0.0,0.0,0.0,0.0,0.0,0.0,0.0,0.0,0.0,0.0,0.0,0.0,0.0,0.0,0.0,0.0,0.0,0.0,0.0,0.0,0.0,0.0,0.0,0.0,0.0,0.0,0.0,0.0,0.0,0.0,0.0,0.0,0.0,0.0,0.0,0.0,0.0,0.0,0.0,0.0,0.0,0.0,0.0,0.0,0.0,0.0,0.0,0.0,0.0,0.0,0.0,0.0,0.0,0.0,0.0,0.0,0.0,0.0,0.0,0.0,0.0,0.0,0.0,0.0,0.0,0.0,0.0,0.0,0.0,0.0,0.0,0.0,0.0,0.0,0.0,0.0,0.0,0.0,0.0,0.0,0.0,0.0,0.0,0.0,0.0,0.0,0.0,0.0,0.0,0.0,0.0,0.0,0.0,0.0,0.0,0.0,0.0,0.0,0.0,0.0,0.0,0.0,0.0,0.0,0.0,0.0,0.0,0.0,0.0,0.0,0.0,0.0,0.0,0.0,0.0,0.0,0.0,0.0,0.0,0.0,0.0,0.0,0.0,0.0,0.0,0.0,0.0,0.0,0.0,0.0,0.0,0.0,0.0,0.0,0.0,0.0,0.0,0.0,0.0,0.0,0.0,0.0,0.0,0.0,0.0,0.0,0.0,0.0,0.0,0.0,0.0,0.0,0.0,0.0,0.0,0.0,0.0,0.0,0.0,0.0,0.0,0.0,0.0,0.0,0.0,0.0,0.0,0.0,0.0,0.0,0.0,0.0,0.0,0.0,0.0,0.0,0.0,0.0,0.0,0.0,0.0,0.0,0.0,0.0,0.0,0.0,0.0,0.0,0.0,0.0,0.0,0.0,0.0,0.0,0.0,0.0,0.0,0.0,0.0,0.0,0.0,0.0,0.0,0.0,0.0,0.0,0.0,0.0,0.0,0.0,0.0,0.0,0.0,0.0,0.0,0.0,0.0,0.0,0.0,0.0,0.0,0.0,0.0,0.0,0.0,0.0,0.0,0.0,0.0,0.0,0.0,0.0,0.0,0.0,0.0,0.0,0.0,0.0,0.0,0.0,0.0,0.0,0.0,0.0,0.0,0.0,0.0,0.0,0.0,0.0,0.0,0.0,0.0,0.0,0.0,0.0,0.0,0.0,0.0,0.0,0.0,0.0,0.0,0.0,0.0,0.0,0.0,0.0,0.0,0.0,0.0,0.0,0.0,0.0,0.0,0.0,0.0,0.0,0.0,0.0,0.0,0.0,0.0,0.0,0.0,0.0,0.0,0.0,0.0,0.0,0.0,0.0,0.0,0.0,0.0,0.0,0.0,0.0,0.0,0.0,0.0,0.0,0.0,0.0,0.0,0.0,0.0,0.0,0.0,0.0,0.0,0.0,0.0,0.0,0.0,0.0,0.0,0.0,0.0,0.0,0.0,0.0,0.0,0.0,0.0,0.0,0.0,0.0,0.0,0.0,0.0,0.0,0.0,0.0,0.0,0.0,0.0,0.0,0.0,0.0,0.0,0.0,0.0,0.0,0.0,0.0,0.0,0.0,0.0,0.0,0.0,0.0,0.0,0.0,0.0,0.0,0.0,0.0,0.0,0.0,0.0,0.0,0.0,0.0,0.0,0.0,0.0,0.0,0.0,0.0,0.0,0.0,0.0,0.0,0.0,0.0,0.0,0.0,0.0,0.0,0.0,0.0,0.0,0.0,0.0,0.0,0.0,0.0,0.0,0.0,0.0,0.0,0.0,0.0,0.0,0.0,0.0,0.0,0.0,0.0,0.0,0.0,0.0,0.0,0.0,0.0,0.0,0.0,0.0,0.0,0.0,0.0,0.0,0.0,0.0,0.0,0.0,0.0,0.0,0.0,0.0,0.0,0.0,0.0,0.0,0.0,0.0,0.0,0.0,0.0,0.0,0.0,0.0,0.0,0.0,0.0,0.0,0.0,0.0,0.0,0.0,0.0,0.0,0.0,0.0,0.0,0.0,0.0,0.0,0.0,0.0,0.0,0.0,0.0,0.0,0.0,0.0,0.0,0.0,0.0,0.0,0.0,0.0,0.0,0.0,0.0,0.0,0.0,0.0,0.0,0.0,0.0,0.0,0.0,0.0,0.0,0.0,0.0,0.0,0.0,0.0,0.0,0.0,0.0,0.0,0.0,0.0,0.0,0.0,0.0,0.0,0.0,0.0,0.0,0.0,0.0,0.0,0.0,0.0,0.0,0.0,0.0,0.0,0.0,0.0,0.0,0.0,0.0,0.0,0.0,0.0,0.0,0.0,0.0,0.0,0.0,0.0,0.0,0.0,0.0,0.0,0.0,0.0,0.0,0.0,0.0,0.0,0.0,0.0,0.0,0.0,0.0,0.0,0.0,0.0,0.0,0.0,0.0,0.0,0.0,0.0,0.0,0.0,0.0,0.0,0.0,0.0,0.0,0.0,0.0,0.0,0.0,0.0,0.0,0.0,0.0,0.0,0.0,0.0,0.0,0.0,0.0,0.0,0.0,0.0,0.0,0.0,0.0,0.0,0.0,0.0,0.0,0.0,0.0,0.0,0.0,0.0,0.0,0.0,0.0,0.0,0.0,0.0,0.0,0.0,0.0,0.0,0.0,0.0,0.0,0.0,0.0,0.0,0.0,0.0,0.0,0.0,0.0,0.0,0.0,0.0,0.0,0.0,0.0,0.0,0.0,0.0,0.0,0.0,0.0,0.0,0.0,0.0,0.0,0.0,0.0,0.0,0.0,0.0,0.0,0.0,0.0,0.0,0.0,0.0,0.0,0.0,0.0,0.0,0.0,0.0,0.0,0.0,0.0,0.0,0.0,0.0,0.0,0.0,0.0,0.0,0.0,0.0,0.0,0.0,0.0,0.0,0.0,0.0,0.0,0.0,0.0,0.0,0.0,0.0,0.0,0.0,0.0,0.0,0.0,0.0,0.0,0.0,0.0,0.0,0.0,0.0,0.0,0.0,0.0,0.0,0.0,0.0,0.0,0.0,0.0,0.0,0.0,0.0,0.0,0.0,0.0,0.0,0.0,0.0,0.0,0.0,0.0,0.0,0.0,0.0,0.0,0.0,0.0,0.0,0.0,0.0,0.0,0.0,0.0,0.0,0.0,0.0,0.0,0.0,0.0,0.0,0.0,0.0,0.0,0.0,0.0,0.0,0.0,0.0,0.0,0.0,0.0,0.0,0.0,0.0,0.0,0.0,0.0,0.0,0.0,0.0,0.0,0.0,0.0,0.0,0.0,0.0,0.0,0.0,0.0,0.0,0.0,0.0,0.0,0.0,0.0,0.0,0.0,0.0,0.0,0.0,0.0,0.0,0.0,0.0,0.0,0.0,0.0,0.0,0.0,0.0,0.0,0.0,0.0,0.0,0.0,0.0,0.0,0.0,0.0,0.0,0.0,0.0,0.0,0.0,0.0,0.0,0.0,0.0,0.0,0.0,0.0,0.0,0.0,0.0,0.0,0.0,0.0,0.0,0.0,0.0,0.0,0.0,0.0,0.0,0.0,0.0,0.0,0.0,0.0,0.0,0.0,0.0,0.0,0.0,0.0,0.0,0.0,0.0,0.0,0.0,0.0,0.0,0.0,0.0,0.0,0.0,0.0,0.0,0.0,0.0,0.0,0.0,0.0,0.0,0.0,0.0,0.0,0.0,0.0,0.0,0.0,0.0,0.0,0.0,0.0,0.0,0.0,0.0,0.0,0.0,0.0,0.0,0.0,0.0,0.0,0.0,0.0,0.0,0.0,0.0,0.0,0.0,0.0,0.0,0.0,0.0,0.0,0.0,0.0,0.0,0.0,0.0,0.0,0.0,0.0,0.0,0.0,0.0,0.0,0.0,0.0,0.0,0.0,0.0,0.0,0.0,0.0,0.0,0.0,0.0,0.0,0.0,0.0,0.0,0.0,0.0,0.0,0.0,0.0,0.0,0.0,0.0,0.0,0.0,0.0,0.0,0.0,0.0,0.0,0.0,0.0,0.0,0.0,0.0,0.0,0.0,0.0,0.0,0.0,0.0,0.0,0.0,0.0,0.0,0.0,0.0,0.0,0.0,0.0,0.0,0.0,0.0,0.0,0.0,0.0,0.0,0.0,0.0,0.0,0.0,0.0,0.0,0.0,0.0,0.0,0.0,0.0,0.0,0.0,0.0,0.0,0.0,0.0,0.0,0.0,0.0,0.0,0.0,0.0,0.0,0.0,0.0,0.0,0.0,0.0,0.0,0.0,0.0,0.0,0.0,0.0,0.0,0.0,0.0,0.0,0.0,0.0,0.0,0.0,0.0,0.0,0.0,0.0,0.0,0.0,0.0,0.0,0.0,0.0,0.0,0.0,0.0,0.0,0.0,0.0,0.0,0.0,0.0,0.0,0.0,0.0,0.0,0.0,0.0,0.0,0.0,0.0,0.0,0.0,0.0,0.0,0.0,0.0,0.0,0.0,0.0,0.0,0.0,0.0,0.0,0.0,0.0,0.0,0.0,0.0,0.0,0.0,0.0,0.0,0.0,0.0,0.0,0.0,0.0,0.0,0.0,0.0,0.0,0.0,0.0,0.0,0.0,0.0,0.0,0.0,0.0,0.0,0.0,0.0,0.0,0.0,0.0,0.0,0.0,0.0,0.0,0.0,0.0,0.0,0.0,0.0,0.0,0.0,0.0,0.0,0.0,0.0,0.0,0.0,0.0,0.0,0.0,0.0,0.0,0.0,0.0,0.0,0.0,0.0,0.0,0.0,0.0,0.0,0.0,0.0,0.0,0.0,0.0,0.0,0.0,0.0,0.0,0.0,0.0,0.0,0.0,0.0,0.0,0.0,0.0,0.0,0.0,0.0,0.0,0.0,0.0,0.0,0.0,0.0,0.0,0.0,0.0,0.0,0.0,0.0,0.0,0.0,0.0,0.0,0.0,0.0,0.0,0.0,0.0,0.0,0.0,0.0,0.0,0.0,0.0,0.0,0.0,0.0,0.0,0.0,0.0,0.0,0.0,0.0,0.0,0.0,0.0,0.0,0.0,0.0,0.0,0.0,0.0,0.0,0.0,0.0,0.0,0.0,0.0,0.0,0.0,0.0,0.0,0.0,0.0,0.0,0.0,0.0,0.0,0.0,0.0,0.0,0.0,0.0,0.0,0.0,0.0,0.0,0.0,0.0,0.0,0.0,0.0,0.0,0.0,0.0,0.0,0.0,0.0,0.0,0.0,0.0,0.0,0.0,0.0,0.0,0.0,0.0,0.0,0.0,0.0,0.0,0.0,0.0,0.0,0.0,0.0,1.4819,0.0,0.0,0.0,0.0,0.0,0.0,0.0,0.0,0.0,0.0,0.0,0.0,0.0,0.0,0.0,0.0,0.0,0.0,0.0,0.0,0.0,0.0,0.0,0.0,0.0,0.0,0.0,0.0,0.0,0.0,0.0,0.0,0.0,0.0,0.0,0.0,0.0,1.69,1.69,1.7092,1.7495,1.8082,1.8082,1.8073,1.8109,0.0,0.0,0.0,0.0,0.0,0.0,0.0,0.0,0.0,0.0,0.0,0.0,0.0,0.0,0.0,0.0,0.0,0.0,0.0,0.0,0.0,0.0,0.0,0.0,0.0,0.0,0.0,0.0,0.0,0.0,0.0,0.0,0.0,0.0,0.0,0.0,0.0,0.0,0.0,0.0,0.0,0.0,0.0,0.0,0.0,0.0,0.0,0.0,0.0,0.0,0.0,0.0,0.0,0.0,0.0,0.0,0.0,0.0,0.0,0.0,0.0,0.0,0.0,0.0,0.0,0.0,0.0,0.0,0.0,0.0,0.0,1.5296,0.0,0.0,0.0,0.0,0.0,0.0,0.0,0.0,0.0,0.0,0.0,0.0,0.0,0.0,0.0,0.0,0.0,0.0,0.0,0.0,0.0,0.0,0.0,1.6786,1.69,1.69,1.69,1.69,0.0,0.0,0.0,0.0,0.0,1.69,1.69,1.6964,1.7,1.7,1.7477,1.8054,1.8705,1.8769,1.8632,1.832,1.8659,0.0,0.0,0.0,0.0,0.0,0.0,0.0,0.0,0.0,0.0,0.0,0.0,0.0,0.0,0.0,0.0,0.0,0.0,0.0,0.0,0.0,0.0,0.0,0.0,0.0,0.0,0.0,0.0,0.0,0.0,0.0,0.0,0.0,0.0,0.0,0.0,0.0,0.0,0.0,0.0,0.0,0.0,0.0,0.0,0.0,0.0,0.0,0.0,0.0,0.0,0.0,0.0,0.0,0.0,0.0,0.0,0.0,0.0,0.0,0.0,0.0,0.0,0.0,1.5935,1.6127,1.6313,1.6588,1.6708,1.6686,1.6062,1.5894,1.6067,1.6281,0.0,0.0,0.0,0.0,0.0,0.0,0.0,0.0,0.0,0.0,0.0,0.0,0.0,0.0,0.0,0.0,0.0,0.0,0.0,0.0,0.0,1.6786,1.69,1.69,1.69,1.69,1.69,0.0,1.69,1.69,1.69,1.69,1.69,1.7238,1.7422,1.7422,1.8164,1.8595,1.8705,1.9053,1.9191,1.9136,1.9201,1.9219,1.9218,0.0,0.0,0.0,0.0,0.0,0.0,0.0,0.0,0.0,0.0,0.0,0.0,0.0,0.0,0.0,0.0,0.0,0.0,0.0,0.0,0.0,0.0,0.0,0.0,0.0,0.0,0.0,0.0,0.0,0.0,0.0,0.0,0.0,0.0,0.0,0.0,0.0,0.0,0.0,0.0,0.0,1.3147,1.3424,0.0,0.0,0.0,0.0,0.0,0.0,0.0,0.0,0.0,0.0,0.0,0.0,0.0,1.612,1.6195,1.6382,1.6514,1.6534,1.6584,1.6486,1.6313,1.6588,1.6721,1.6793,1.6914,0.0,1.6281,1.6538,0.0,0.0,0.0,0.0,0.0,0.0,0.0,0.0,0.0,0.0,0.0,0.0,0.0,0.0,0.0,0.0,0.0,0.0,0.0,0.0,0.0,1.6786,1.69,1.69,1.69,1.69,1.69,1.69,1.69,1.69,1.69,1.7009,1.7229,1.7412,1.7715,1.8164,1.8531,1.8815,1.9035,1.9219,1.9301,1.9301,1.9301,1.9301,1.9301,1.9301,0.0,0.0,0.0,0.0,0.0,0.0,0.0,0.0,0.0,0.0,0.0,0.0,0.0,0.0,0.0,0.0,0.0,0.0,0.0,0.0,0.0,0.0,0.0,0.0,0.0,0.0,0.0,0.0,0.0,0.0,0.0,0.0,0.0,0.0,0.0,0.0,0.0,0.0,0.0,1.3255,1.3475,1.3902,1.395,1.4005,0.0,0.0,0.0,0.0,0.0,0.0,0.0,0.0,0.0,1.6173,1.6153,1.6256,1.6526,1.6488,1.6643,1.6979,1.6979,1.7003,1.7034,1.715,1.7216,1.7258,1.7369,1.7269,1.704,1.7162,1.7137,1.704,0.0,0.0,0.0,0.0,1.7307,1.7414,0.0,0.0,0.0,0.0,0.0,0.0,0.0,0.0,0.0,0.0,0.0,0.0,1.6647,1.6812,1.69,1.69,1.69,1.69,1.69,1.69,1.69,1.69,1.7,1.7193,1.7486,1.7697,1.8155,1.8852,1.8852,1.9017,1.9301,1.9301,1.9301,1.9301,1.9301,1.9301,1.9301,1.9301,1.9301,1.9301,0.0,0.0,0.0,0.0,0.0,0.0,0.0,0.0,0.0,0.0,0.0,0.0,0.0,0.0,0.0,0.0,0.0,0.0,0.0,0.0,0.0,0.0,0.0,0.0,0.0,0.0,0.0,0.0,0.0,0.0,0.0,0.0,0.0,0.0,0.0,0.0,0.0,1.4026,1.4274,1.5086,1.4881,1.4931,0.0,0.0,0.0,0.0,0.0,0.0,1.5998,1.6333,1.6625,1.682,1.6558,1.6585,1.6934,1.6737,1.6856,1.73,1.73,1.7414,1.7595,1.7595,1.7595,1.7595,1.7595,1.7595,1.7595,1.7595,1.7595,1.7595,1.7595,1.7595,1.7595,1.7595,1.7595,1.7595,0.0,0.0,0.0,0.0,0.0,0.0,0.0,0.0,0.0,0.0,0.0,1.6447,1.6839,1.6891,1.69,1.69,1.69,1.69,1.69,1.69,1.69,1.69,1.7266,1.7486,1.7504,1.8256,1.8852,1.9265,1.9265,1.9283,1.9301,1.9301,1.9301,1.9301,1.9301,1.9301,1.9301,1.9301,1.9301,1.9301,1.9301,0.0,0.0,0.0,0.0,0.0,0.0,0.0,0.0,0.0,0.0,0.0,0.0,0.0,0.0,0.0,0.0,0.0,0.0,0.0,0.0,0.0,0.0,0.0,0.0,0.0,0.0,0.0,0.0,0.0,0.0,0.0,0.0,0.0,0.0,0.0,0.0,0.0,0.0,1.7351,1.646,0.0,0.0,0.0,0.0,1.7349,1.6955,1.6531,1.6294,1.6841,1.7153,1.7166,1.7395,1.7529,1.7548,1.7542,1.7549,1.7575,1.7575,1.7595,1.7595,1.7595,1.7595,1.7595,1.7595,1.7595,1.7595,1.7595,1.7595,1.7595,1.7595,1.7595,1.7595,1.7595,1.7595,1.7595,0.0,0.0,0.0,0.0,0.0,0.0,0.0,0.0,1.5964,1.6149,1.6246,1.6403,1.6682,1.6821,1.69,1.69,1.69,1.69,1.69,1.69,1.69,1.69,1.7284,1.7743,1.8256,1.8815,1.9164,1.9301,1.9301,1.9301,1.9301,1.9301,1.9301,1.9301,1.9301,1.9301,1.9301,1.9301,1.9301,1.9301,1.9301,1.9301,0.0,0.0,0.0,0.0,0.0,0.0,0.0,0.0,0.0,0.0,0.0,0.0,0.0,0.0,0.0,0.0,0.0,0.0,0.0,0.0,0.0,0.0,0.0,0.0,0.0,0.0,0.0,0.0,0.0,0.0,0.0,0.0,0.0,0.0,0.0,0.0,0.0,1.6727,1.7248,0.0,1.7474,1.7872,1.8065,1.7864,1.8501,1.8601,1.7938,1.8275,1.817,1.7481,1.7555,1.7595,1.7595,1.8277,1.8277,1.7608,1.8304,1.8264,1.7595,1.7595,1.7595,1.7595,1.7595,1.7595,1.7595,1.7595,1.7595,1.7595,1.7595,1.7595,1.7595,1.7595,1.7595,1.7595,0.0,0.0,0.0,0.0,0.0,0.0,0.0,0.0,1.5964,1.614,1.6298,1.6473,1.6682,1.6821,1.69,1.69,1.69,1.69,1.69,1.7027,1.7101,1.7101,1.7623,1.8219,1.8888,1.9154,1.9301,1.9301,1.9301,1.9375,1.9502,1.9502,1.9576,1.9704,1.9704,1.9631,1.9502,1.9502,1.942,1.9301,1.9301,1.9301,1.9301,0.0,0.0,0.0,0.0,0.0,0.0,0.0,0.0,0.0,0.0,0.0,0.0,0.0,0.0,0.0,0.0,0.0,0.0,0.0,0.0,0.0,0.0,0.0,0.0,0.0,0.0,0.0,0.0,0.0,0.0,0.0,0.0,0.0,0.0,0.0,1.8056,1.7535,1.8558,1.9091,1.8564,1.9275,1.9544,1.9024,1.9846,1.9946,1.8994,1.9461,1.9448,1.8748,1.8343,1.8133,1.8133,1.8493,1.8304,1.7608,1.8317,1.8291,1.7595,1.7595,1.7595,1.7595,1.7595,1.7595,1.7595,1.7595,1.7595,1.7595,1.7595,1.7595,1.7595,1.7595,1.7595,1.7595,0.0,0.0,0.0,0.0,0.0,0.0,0.0,1.5964,1.6149,1.6281,1.6473,1.6673,1.6874,1.69,1.69,1.69,1.69,1.6908,1.6927,1.7284,1.7513,1.7541,1.8283,1.8888,1.9292,1.9301,1.9311,1.932,1.932,1.952,1.9913,1.9913,2.0134,2.05,2.05,2.028,1.9913,1.9913,1.9694,1.9338,1.9311,1.9301,1.9301,0.0,0.0,0.0,0.0,0.0,0.0,0.0,0.0,0.0,0.0,0.0,0.0,0.0,0.0,0.0,0.0,0.0,0.0,0.0,0.0,0.0,0.0,0.0,0.0,0.0,0.0,0.0,0.0,0.0,0.0,0.0,0.0,0.0,1.9217,1.975,2.0101,2.0032,2.0444,2.0933,2.1447,2.0709,2.0391,2.0904,2.0987,2.0493,1.9319,2.03,2.0885,2.0847,1.9785,1.9215,1.9254,1.8264,1.774,1.77,1.77,1.7694,1.7661,1.7635,1.7615,1.7622,1.7622,1.7622,1.7622,1.7622,1.7622,1.7635,1.7615,1.7595,1.7595,1.7595,1.7595,1.7595,0.0,0.0,0.0,0.0,0.0,0.0,0.0,1.5964,1.6114,1.6149,1.6412,1.662,1.6682,1.6812,1.69,1.69,1.69,1.7019,1.7321,1.744,1.7761,1.8338,1.8577,1.8888,1.9292,1.9301,1.9438,1.974,1.974,1.9941,2.0335,2.0335,2.0399,2.05,2.05,2.0436,2.0335,2.0335,2.0271,2.0126,1.953,1.9301,1.9301,0.0,0.0,0.0,0.0,0.0,0.0,0.0,0.0,0.0,0.0,0.0,0.0,0.0,0.0,0.0,0.0,0.0,0.0,0.0,0.0,0.0,0.0,0.0,0.0,0.0,0.0,0.0,0.0,0.0,0.0,0.0,0.0,2.0027,1.9681,2.0407,2.0869,2.054,2.0958,2.1335,2.1493,2.1707,2.1896,2.2042,2.2828,2.2467,2.0539,2.0731,2.0526,1.9694,1.9358,1.9604,2.0416,2.0903,2.0762,1.9991,1.9991,1.9691,1.9083,1.8271,1.8023,1.825,1.825,1.825,1.825,1.825,1.825,1.821,1.7769,1.7595,1.7595,1.7595,1.7595,1.7595,0.0,0.0,0.0,0.0,0.0,0.0,0.0,1.5964,1.6096,1.6096,1.6394,1.6594,1.6594,1.6786,1.69,1.69,1.7046,1.7248,1.7477,1.7825,1.8293,1.8925,1.8952,1.9053,1.9292,1.9466,1.9676,1.9903,2.0068,2.0363,2.0758,2.0758,2.0839,2.1004,2.1004,2.0912,2.0758,2.0758,2.0647,2.0454,1.9988,1.9704,1.9529,1.9356,1.9301,1.9301,1.9301,1.9301,1.9301,1.9301,0.0,0.0,0.0,0.0,0.0,0.0,0.0,0.0,0.0,0.0,0.0,0.0,0.0,0.0,0.0,0.0,0.0,0.0,0.0,0.0,0.0,0.0,0.0,0.0,2.1453,2.1331,2.1246,2.1803,2.193,2.1129,2.1977,2.244,2.1969,2.2698,2.3013,2.2539,2.355,2.3438,2.1662,2.2017,2.2059,2.1556,2.1079,2.0994,2.1327,2.1986,2.1773,2.0648,2.1152,2.1254,2.0925,2.0277,2.0173,2.0513,2.0513,2.0513,2.0513,2.0513,2.0186,0.0,0.0,0.0,0.0,0.0,1.7976,1.7976,0.0,0.0,0.0,0.0,0.0,0.0,0.0,1.5964,1.6096,1.6096,1.6394,1.6594,1.6594,1.6786,1.69,1.69,1.7266,1.7541,1.7623,1.8302,1.8879,1.9283,1.9301,1.932,1.9366,1.9721,1.994,2.0042,2.039,2.0766,2.117,2.117,2.1361,2.1707,2.1707,2.1508,2.117,2.117,2.0958,2.0628,2.0593,2.0298,1.9858,1.9502,1.9347,1.9301,1.9301,1.9301,1.9301,1.9301,0.0,0.0,0.0,0.0,0.0,0.0,0.0,0.0,0.0,0.0,0.0,0.0,0.0,0.0,0.0,0.0,0.0,0.0,0.0,0.0,0.0,0.0,0.0,0.0,2.2437,2.281,2.3214,2.345,2.3132,2.1951,2.3104,2.3659,2.2778,2.3488,2.3646,2.2753,2.367,2.3709,2.2435,0.0,0.0,0.0,0.0,2.2753,2.2303,2.2462,2.2003,2.0955,2.1942,2.263,2.3002,2.2865,2.303,2.3394,2.3394,2.3394,2.3394,2.3394,2.2709,2.1432,1.9395,1.8605,1.8605,1.8605,1.8605,1.8605,0.0,0.0,0.0,0.0,0.0,0.0,0.0,1.5964,1.6096,1.6096,1.6394,1.6594,1.6594,1.6786,1.69,1.69,1.7266,1.7779,1.843,1.8613,1.8879,1.9283,1.9301,1.9447,1.9776,1.9858,2.0225,2.0868,2.095,2.1198,2.1579,2.1579,2.1625,2.1707,2.1707,2.1661,2.1579,2.1579,2.1542,2.1442,2.1104,2.0546,1.9885,1.9812,1.9575,1.9301,1.9301,1.9301,1.9301,1.9301,1.9301,1.9301,1.9301,1.952,0.0,0.0,0.0,0.0,0.0,0.0,0.0,0.0,0.0,0.0,0.0,0.0,0.0,0.0,0.0,0.0,0.0,0.0,0.0,2.2793,2.2997,2.3223,2.3633,2.3897,2.3971,2.3715,2.3181,2.31,2.3795,2.3238,2.3125,2.382,2.4376,2.3766,2.1637,2.2048,2.238,2.2459,2.2254,2.2964,2.4705,2.5071,2.513,2.4889,0.0,0.0,2.4851,2.393,2.3703,2.4025,2.4025,2.4025,2.4025,2.4025,2.3865,2.335,2.0384,1.9227,1.9227,1.9227,1.9227,1.9227,0.0,0.0,0.0,0.0,0.0,0.0,0.0,1.5894,1.5947,1.5947,1.6184,1.635,1.635,1.6586,1.6708,1.6604,1.7053,1.7724,1.864,1.8705,1.8879,1.9283,1.9493,1.9694,1.9894,2.0298,2.0703,2.1097,2.1297,2.1496,2.1707,2.1707,2.1707,2.1707,2.1707,2.1707,2.1707,2.1707,2.1707,2.168,2.148,2.104,2.0472,2.028,1.995,1.9631,1.9832,1.9768,1.963,1.9832,1.9896,1.9896,1.9896,2.0033,2.0207,0.0,0.0,0.0,0.0,0.0,0.0,0.0,0.0,0.0,0.0,0.0,0.0,0.0,0.0,2.2055,2.2268,0.0,2.2869,2.3244,2.3526,2.3763,2.3976,2.4115,2.4202,2.4202,2.3696,2.3562,2.414,2.3872,2.3888,2.4451,2.4865,2.4596,2.3409,2.3537,2.3743,2.3945,2.4156,2.4611,2.5391,2.6395,2.6609,2.5995,2.6247,2.6535,2.6883,2.6319,2.6248,2.6596,2.6596,2.6596,2.6551,2.5876,2.5608,2.5314,2.2385,2.1475,2.1803,2.1803,2.1386,2.0792,0.0,0.0,0.0,0.0,0.0,0.0,0.0,1.5805,1.5805,1.5805,1.5982,1.6096,1.6096,1.6359,1.6517,1.6475,1.6884,1.7588,1.8631,1.8632,1.8797,1.9283,1.9685,1.994,2.0013,2.073,2.1134,2.1216,2.1533,2.1707,2.1707,2.1707,2.1707,2.1707,2.1707,2.1707,2.1707,2.1707,2.1707,2.1707,2.1707,2.1508,2.1189,2.0868,2.0425,2.0059,2.0381,2.0298,2.0069,2.039,2.05,2.05,2.05,2.0546,2.062,2.062,2.0665,0.0,0.0,0.0,0.0,0.0,0.0,0.0,0.0,0.0,2.1725,2.1799,2.2073,2.235,2.2494,2.3062,2.3538,2.3623,2.3944,2.4202,2.4202,2.4202,2.4202,2.4202,2.4202,2.4238,2.4309,2.4608,2.4825,2.4911,2.5287,2.5416,2.5185,2.5316,2.5552,2.5874,2.6277,2.6247,2.5745,2.7115,2.7268,2.6255,2.7297,2.8014,2.8397,2.8397,2.8623,2.8999,2.8999,2.8999,2.8925,2.7828,2.7383,2.7187,2.5078,2.4607,2.501,2.3975,2.2909,2.1991,0.0,0.0,0.0,0.0,0.0,0.0,0.0,0.0,1.5805,1.5805,1.5982,1.6096,1.6096,1.6237,1.6537,1.7054,1.6997,1.7441,1.8622,1.8366,1.8513,1.9265,1.9685,2.0068,2.0437,2.0868,2.128,2.1634,2.168,2.1707,2.1707,2.1707,2.1707,2.1707,2.1707,2.1707,2.1707,2.1707,2.1707,2.1707,2.1707,2.1668,2.1634,2.1579,2.1085,2.0436,2.0482,2.0472,2.0436,2.0482,2.05,2.05,2.05,2.0749,2.1033,2.1033,2.1299,2.1579,2.1616,2.1634,2.1643,2.1689,2.1707,2.1707,0.0,0.0,2.1808,2.2167,2.2268,2.2524,2.3236,2.3447,2.3633,2.4048,2.4174,2.4202,2.4202,2.4202,2.4202,2.4202,2.4202,2.4336,2.47,2.477,2.4957,2.5306,2.5714,2.5464,2.4392,2.5013,2.5416,2.5474,2.5851,2.6377,2.6987,2.7535,2.7539,2.7074,2.7557,2.8014,2.8397,2.8397,2.8623,2.8999,2.8999,2.8999,2.8984,2.8841,2.8782,2.8752,2.846,2.8391,2.789,2.3183,2.1348,2.1222,0.0,0.0,0.0,0.0,0.0,0.0,0.0,0.0,0.0,1.5805,1.5867,1.5929,1.5929,1.5982,1.6193,1.6634,1.6598,1.691,1.7769,1.7998,1.8347,1.8935,1.9776,2.0326,2.0501,2.1123,2.1524,2.1707,2.1707,2.1707,2.1707,2.1707,2.1707,2.1707,2.1707,2.1707,2.1707,2.1707,2.1707,2.1707,2.1707,2.1707,2.1707,2.1707,2.1487,2.1194,2.1194,2.105,0.0,2.1123,2.1194,2.1194,2.1194,2.1304,2.1453,2.1453,2.157,2.1707,2.1707,2.1707,0.0,0.0,2.1707,2.1707,2.1707,2.1881,2.2103,2.2268,2.2668,2.3108,2.3447,2.3727,2.3963,0.0,2.4202,2.4202,2.4202,2.4202,2.4293,2.4516,2.4544,2.4617,2.4779,2.5223,2.5576,2.5741,2.6123,2.6127,2.5621,2.5929,2.6107,2.6107,2.6725,2.7218,2.7555,2.8188,2.8403,2.8247,2.8427,2.8592,2.8751,2.8751,2.8843,2.8999,2.8999,2.9128,2.9293,2.846,2.8749,2.9538,2.7935,2.7811,2.8199,2.5522,2.4039,2.3255,0.0,0.0,0.0,0.0,0.0,0.0,0.0,0.0,0.0,0.0,1.5805,1.5805,1.5805,1.585,1.5982,1.6219,1.6281,1.6563,1.7162,1.7706,1.8218,1.8677,1.9749,2.039,2.05,2.1178,2.1588,2.1707,2.1707,2.1707,2.1707,2.1707,2.1707,2.1707,2.1707,2.1707,2.1707,2.1707,2.1707,2.1707,2.1707,2.1707,2.1707,2.1707,2.1707,2.1707,2.1707,2.1506,2.1306,2.1597,2.1707,2.1707,2.1707,2.1707,2.1707,2.1707,2.1707,2.1707,2.1707,0.0,0.0,2.1707,2.178,2.1863,2.1863,2.2174,2.2494,2.2616,2.3089,2.3538,2.3669,2.3963,2.4202,2.4202,2.4202,2.4202,2.4202,2.4303,2.4461,2.4773,2.5003,2.5131,2.5131,2.5659,2.6044,2.6164,2.6444,2.6605,2.6605,2.6807,2.6926,2.6926,2.772,2.8078,2.7968,2.854,2.8779,2.866,2.866,2.8724,2.8843,2.9063,2.917,2.9164,2.9284,2.9495,2.9684,2.867,2.9017,2.9993,2.8017,2.7844,2.8593,2.7249,2.585,2.4494,0.0,0.0,0.0,0.0,0.0,0.0,0.0,0.0,0.0,0.0,0.0,0.0,0.0,1.5973,1.6088,1.6105,1.6219,1.6563,1.7162,1.7577,1.8077,1.8677,1.9473,2.0096,2.0491,2.0914,2.1306,2.1707,2.1707,2.1707,2.1707,2.1707,2.1707,2.1707,2.1707,2.1707,2.1707,2.1707,2.1707,2.1707,2.1707,2.1707,2.1707,2.1707,2.1707,2.1707,2.1707,2.1689,2.1678,2.1698,2.1707,2.1707,2.1707,2.1707,2.1707,2.1707,2.1707,2.1707,2.1707,2.1707,2.1707,2.1707,2.1991,2.2286,2.2286,2.2584,2.2983,2.338,2.348,2.3642,2.4097,2.4192,2.4202,2.4202,2.4202,2.4202,2.4202,2.4547,2.4792,2.4797,2.5493,2.5962,0.0,2.598,2.615,2.655,2.6596,2.6605,2.6605,2.7343,2.7757,2.7757,2.8531,2.8779,2.8394,2.8412,2.8219,2.7844,2.7844,2.8041,2.8434,2.9234,2.9583,2.9601,2.9984,3.0167,3.0185,3.0139,3.0139,3.0179,3.0102,3.0102,2.9813,2.7122,2.5104,2.369,0.0,0.0,0.0,0.0,0.0,0.0,0.0,0.0,0.0,0.0,0.0,0.0,0.0,0.0,0.0,0.0,1.6061,1.6246,1.6466,1.7054,1.7614,1.8086,1.9003,1.9685,2.0087,2.0501,2.0905,2.1297,2.1297,2.1443,2.1707,2.1707,2.1707,2.1707,2.1707,2.1707,2.1707,2.1707,2.1707,2.1707,2.1707,2.1707,2.167,2.1407,2.1297,2.1271,0.0,2.1251,2.1707,2.1707,2.1707,2.1707,2.1707,2.1707,2.1707,2.1707,2.1707,2.1707,2.1707,2.189,2.2103,2.2103,2.2403,2.2693,2.2693,2.3004,2.3334,2.3471,2.3746,2.4012,2.4174,2.4202,2.4202,2.4202,2.4202,2.4202,2.4202,2.4557,2.4902,2.5168,2.5664,0.0,0.0,0.0,0.0,2.6596,2.6605,2.6715,2.6981,2.7247,2.7518,2.7784,2.832,2.854,2.8397,2.8654,2.8724,2.8601,2.8601,2.8812,2.9216,2.9482,2.9758,3.0008,3.014,3.0351,3.0526,2.9594,2.9904,3.0895,2.9976,3.0168,3.0851,2.9658,2.8307,2.6632,0.0,0.0,0.0,0.0,0.0,0.0,0.0,0.0,0.0,0.0,0.0,0.0,0.0,0.0,0.0,0.0,0.0,1.6044,1.6158,1.6696,1.7224,1.7669,1.8516,1.9204,1.9676,2.0079,2.0482,2.0886,2.0886,2.1024,2.1268,2.1425,2.1489,2.1498,2.1634,2.1707,2.1707,2.1707,2.1707,2.1689,2.1542,2.1489,2.1432,2.1042,2.0886,0.0,2.0592,2.0839,2.1286,2.1443,2.1579,2.1707,2.1707,2.1707,2.1707,2.1707,2.1808,2.1908,2.1908,2.2211,2.2513,2.2513,2.2812,2.3114,2.3114,2.3437,2.3746,2.3746,2.3993,2.4202,2.4202,2.4202,2.4202,2.4202,2.4202,2.4257,2.4391,2.4755,2.5168,2.5576,2.5967,2.6315,0.0,0.0,0.0,2.6797,2.6807,2.6995,2.7389,2.755,2.7742,2.8014,2.8403,2.8599,2.8599,2.8871,2.8999,2.8999,2.9146,2.9354,2.9611,2.9904,3.0164,3.0415,3.0577,3.0788,3.0938,3.0042,3.0345,3.1313,3.0406,3.0293,3.0558,2.9775,2.8613,2.7124,0.0,0.0,0.0,0.0,0.0,0.0,0.0,0.0,0.0,0.0,0.0,0.0,0.0,0.0,0.0,0.0,0.0,0.0,1.6246,1.6526,1.6909,1.7441,1.8032,1.8631,1.9208,1.963,2.0042,2.0446,2.0454,2.0472,2.0509,2.0895,2.106,2.1088,2.1471,2.1643,2.1643,2.1643,2.1643,2.1606,2.1214,2.106,2.1034,2.0619,2.0463,2.0463,2.0445,2.0445,2.0527,2.096,2.1372,2.1707,2.1707,2.1707,2.1696,2.1714,2.2,2.2293,2.2332,2.262,2.2929,2.2929,2.3233,2.3538,2.3538,2.3877,2.4202,2.4202,2.4202,2.4202,0.0,0.0,2.4202,2.4202,2.4202,2.4336,2.4733,2.515,2.5558,0.0,0.0,0.0,0.0,0.0,0.0,2.7206,0.0,2.7389,2.7802,2.8192,2.8407,2.8425,2.8807,2.8999,2.8999,2.8999,2.9008,2.9051,2.9427,2.962,2.9693,3.0449,3.0816,3.0861,3.1228,3.1394,3.1394,3.1394,3.1394,3.1394,3.1394,3.0584,2.9232,2.7833,2.6472,2.5617,0.0,0.0,0.0,0.0,0.0,0.0,0.0,0.0,0.0,0.0,0.0,0.0,0.0,0.0,0.0,0.0,0.0,0.0,1.592,1.6228,1.6554,1.6882,1.7424,1.787,1.8185,1.8719,1.9199,1.9613,1.9905,2.0207,2.05,2.0601,2.0647,2.0666,2.0756,2.0811,2.0811,2.0811,2.0811,2.0802,2.0692,2.0647,2.0611,2.0207,2.005,2.0004,1.9713,1.9805,2.016,2.0868,2.1372,2.1707,2.1707,2.1707,2.1762,2.2055,2.2222,2.2369,2.2678,2.3041,2.3343,2.3343,2.3681,2.4021,2.4021,2.4103,2.4202,2.4202,2.4202,2.4202,0.0,0.0,0.0,2.4202,2.4202,0.0,2.4733,2.515,0.0,2.5952,0.0,2.6605,2.6605,2.6871,0.0,0.0,2.7371,2.7518,2.821,2.8333,2.854,2.8834,2.8944,2.8999,2.8999,2.8999,2.9146,2.9455,2.9556,2.9907,3.0504,3.0715,3.0962,3.1247,3.1364,3.1394,3.1394,3.1394,3.1394,3.1394,3.1394,3.1175,3.0811,3.0446,3.008,2.9859,0.0,0.0,0.0,0.0,0.0,0.0,0.0,0.0,0.0,0.0,0.0,0.0,0.0,0.0,0.0,0.0,0.0,0.0,0.0,1.6026,1.6254,1.6643,1.6973,1.7315,1.766,1.8097,1.8464,1.8769,1.9007,1.9318,1.9703,1.9896,2.0071,2.0233,2.0418,2.05,2.05,2.05,2.05,0.0,0.0,2.0243,2.0198,1.9795,1.964,1.9612,1.9384,1.9676,2.0224,2.0674,2.1224,2.1707,2.1707,2.1707,2.178,2.2185,2.2433,2.2648,2.305,2.3477,2.3813,2.3813,2.4012,2.4202,2.4202,2.4202,2.4202,2.4202,2.4202,2.4202,2.4202,2.4202,0.0,0.0,0.0,0.0,2.4985,2.526,2.5609,0.0,2.6458,0.0,2.6843,2.7077,2.7444,0.0,2.7852,2.7999,2.8632,2.8669,2.877,2.899,2.8999,2.8999,2.8999,2.9188,2.9381,2.9601,2.9969,3.0357,3.0816,3.099,3.1183,3.1394,0.0,3.1394,3.1394,3.1394,3.1394,3.1394,3.1394,3.1014,3.0471,3.0471,3.0064,2.9509,0.0,0.0,0.0,0.0,0.0,0.0,0.0,0.0,0.0,0.0,0.0,0.0,0.0,0.0,0.0,0.0,0.0,0.0,0.0,0.0,1.6035,1.6473,1.6625,1.6874,1.7305,1.7615,1.7832,1.798,1.8063,1.8283,1.8632,1.898,1.9356,1.9767,2.0106,2.0289,2.0346,2.0346,2.0346,2.0308,1.9969,1.9812,1.9785,0.0,1.9301,1.9301,1.9301,1.9786,2.0427,2.0482,2.103,2.1707,2.1707,2.1744,2.1863,2.2256,2.2657,2.3068,2.3483,2.3889,2.4202,2.4202,2.4202,2.4202,2.4202,2.4202,2.4202,2.4202,2.4202,2.4202,2.4202,2.4202,2.4202,2.4202,0.0,2.4474,2.5291,2.5398,2.57,2.6504,2.6605,2.6761,2.7169,2.7252,2.7586,2.8333,2.8443,2.8627,2.8981,2.8999,2.8999,2.8999,2.8999,2.9027,2.9082,2.9427,2.9657,2.9776,3.0467,3.0834,3.0898,3.1238,3.1394,3.1394,3.1394,3.1394,3.1394,3.1394,3.1394,3.1394,3.1394,3.0649,2.9567,2.9371,2.8493,2.7362,0.0,0.0,0.0,0.0,0.0,0.0,0.0,0.0,0.0,0.0,1.5805,1.5805,0.0,0.0,0.0,0.0,0.0,0.0,0.0,0.0,0.0,1.5947,1.6369,1.6536,1.6343,1.7135,1.7488,1.7361,1.7861,1.8146,1.821,1.8274,1.8521,1.8906,1.898,1.92,1.9512,1.9512,1.9512,1.9493,1.9429,1.9402,1.9402,1.9329,0.0,0.0,1.9301,1.9593,2.005,2.039,2.103,2.1707,2.1707,2.1927,2.2266,2.2675,2.3078,2.3492,2.3944,2.4134,2.4202,2.4202,2.4202,2.4202,2.4202,2.4202,0.0,0.0,2.4202,2.4202,2.4202,2.4202,2.4202,2.4202,2.4202,2.4474,2.5291,2.5398,2.57,0.0,2.6605,2.6761,2.7169,2.75,0.0,0.0,2.8706,2.8926,2.899,2.8999,2.8999,2.8999,2.8999,2.9155,2.9491,2.9574,2.9926,3.0595,3.0733,3.0972,3.1293,3.1382,3.1394,3.1394,3.1394,0.0,3.1394,3.1394,3.1394,3.1394,3.1394,3.1249,3.0901,2.9731,2.9134,2.8748,0.0,0.0,0.0,0.0,0.0,0.0,0.0,0.0,1.5805,1.5805,1.5805,1.5805,1.5805,1.5805,0.0,0.0,0.0,0.0,0.0,0.0,0.0,0.0,1.6105,1.6246,1.6359,1.6696,1.6927,1.7034,0.0,1.7578,1.7789,1.7789,1.7999,1.8393,1.8393,1.8604,1.8989,1.8989,1.9118,1.9301,1.9301,1.9301,1.9301,0.0,0.0,0.0,0.0,1.9567,1.9958,2.0363,2.0894,2.1425,2.1634,2.1973,2.2375,2.2785,2.3187,2.3593,2.4067,2.4202,2.4202,2.4202,2.4202,2.4202,2.4202,0.0,0.0,2.4202,2.4202,2.4202,2.4202,2.4202,2.4202,2.4202,2.4373,2.4718,2.5328,2.5572,2.593,2.6531,2.6605,2.6834,0.0,2.7697,2.805,2.8669,2.8889,2.8999,2.8999,2.8999,2.8999,2.8999,2.8999,2.9183,2.9601,2.9806,3.021,3.0806,3.1008,3.121,3.1394,3.1394,3.1394,3.1394,3.1394,0.0,3.1394,3.1394,3.1394,3.1394,3.1394,3.0949,3.0228,2.9551,2.8814,2.8056,0.0,0.0,0.0,0.0,0.0,0.0,0.0,1.554,1.5805,1.5805,1.5805,1.5805,1.5805,1.5805,1.5805,0.0,0.0,0.0,0.0,0.0,0.0,0.0,0.0,0.0,0.0,0.0,0.0,1.6769,1.6804,0.0,0.0,0.0,0.0,0.0,1.7972,1.8192,1.8567,1.8567,1.8806,0.0,0.0,1.9218,0.0,0.0,0.0,0.0,0.0,1.9502,1.985,2.0346,2.0701,2.107,2.1654,2.2101,2.2504,2.2913,2.3316,2.3727,2.4097,2.4202,2.4202,2.4202,2.4202,2.4202,2.4202,2.4202,0.0,2.4202,2.4202,2.4202,2.4202,2.4202,2.4202,0.0,2.4474,2.4838,2.5324,2.5664,2.6049,0.0,2.6678,0.0,2.772,2.7876,0.0,2.8944,2.8999,2.8999,2.8999,2.8999,2.8999,2.8999,2.9082,2.932,2.9715,3.0137,3.0525,3.0935,3.1247,3.1394,3.1394,3.1394,3.1394,3.1394,3.1394,0.0,3.1394,3.1394,3.1394,3.1394,3.1394,3.0714,2.9714,2.9404,2.8378,2.7063,0.0,0.0,0.0,0.0,0.0,0.0,0.0,1.554,1.5805,1.5805,1.5805,1.5805,1.5805,1.5805,1.5805,0.0,0.0,0.0,0.0,0.0,0.0,0.0,0.0,0.0,0.0,0.0,0.0,1.6359,1.6542,0.0,0.0,0.0,0.0,0.0,0.0,1.7789,1.8164,1.8164,0.0,0.0,0.0,0.0,0.0,0.0,0.0,0.0,0.0,1.9319,1.9466,2.0234,2.0518,2.0747,2.1892,2.2522,2.2919,2.3325,0.0,0.0,2.4192,2.4202,2.4202,2.4202,2.4202,2.4202,2.4202,0.0,2.4202,2.4202,2.4202,2.4202,2.4202,2.4202,2.4202,2.4202,2.4238,2.452,2.5287,2.5425,2.5737,2.6504,0.0,0.0,2.7762,2.8128,2.8531,2.8962,2.8999,2.8999,2.8999,2.8999,2.8999,2.8999,2.9348,2.9733,3.014,3.0534,3.0953,3.1355,3.1375,3.1394,3.1394,3.1394,3.1394,3.1394,3.1394,0.0,0.0,3.1394,3.1394,3.1394,3.1394,3.1329,3.1046,2.9763,2.8378,2.6914,0.0,0.0,0.0,0.0,0.0,0.0,1.4488,1.4711,1.4886,1.5054,1.5078,1.5078,1.5078,1.5293,1.5541,0.0,0.0,0.0,0.0,0.0,0.0,0.0,0.0,0.0,0.0,0.0,0.0,1.6298,0.0,0.0,0.0,0.0,0.0,0.0,0.0,0.0,1.7734,1.7734,0.0,0.0,0.0,0.0,0.0,0.0,0.0,0.0,0.0,0.0,1.942,2.0236,2.05,2.0711,2.192,2.2577,2.2986,2.338,2.3831,2.4202,2.4202,2.4202,2.4202,2.4202,2.4202,2.4202,2.4202,0.0,2.4202,2.4202,2.4202,2.4202,2.4202,2.4202,2.4202,2.4202,2.4602,2.5021,2.5352,2.582,2.6238,2.6568,2.6967,0.0,0.0,0.0,2.8577,2.8962,2.8999,2.8999,2.8999,2.8999,2.9109,2.9348,2.9519,2.9907,3.0543,3.0724,3.0999,3.1394,3.1394,3.1394,3.1394,3.1394,3.1394,3.1394,3.1394,0.0,0.0,3.1394,3.1394,3.1394,3.1394,3.0885,3.0073,2.9518,2.8378,2.7013,0.0,0.0,0.0,0.0,0.0,1.371,1.4049,1.4166,1.4295,1.4557,1.4605,1.4605,1.4605,1.4848,1.5186,1.5585,0.0,0.0,0.0,0.0,0.0,0.0,0.0,0.0,0.0,0.0,0.0,1.6237,1.6377,1.6508,0.0,0.0,0.0,0.0,0.0,0.0,0.0,0.0,0.0,0.0,0.0,0.0,0.0,0.0,0.0,0.0,0.0,0.0,0.0,0.0,0.0,2.0673,2.1715,2.243,2.2986,2.338,2.3831,2.4202,2.4202,2.4202,2.4202,2.4202,2.4202,2.4202,0.0,0.0,2.4202,2.4202,2.4202,2.4202,2.4202,2.4202,2.4202,2.4202,2.4777,2.526,2.5379,2.5994,2.6504,2.6752,0.0,2.7536,0.0,2.8339,2.8696,2.8981,2.8999,2.8999,2.8999,2.9109,2.9317,2.9592,2.9721,3.0109,3.0781,3.0926,3.1118,3.1394,3.1394,3.1394,3.1394,3.1394,3.1394,3.1394,3.1394,0.0,0.0,3.1394,3.1394,3.1394,3.1394,3.0788,2.9926,2.9926,2.901,2.7751,0.0,0.0,0.0,0.0,0.0,0.0,0.0,1.4166,1.4295,1.4557,1.4605,1.4605,1.4605,1.4605,1.4775,1.5169,0.0,0.0,0.0,0.0,0.0,0.0,0.0,0.0,0.0,0.0,0.0,1.6096,1.6096,1.6272,1.6594,1.6594,0.0,0.0,0.0,0.0,0.0,0.0,0.0,0.0,0.0,0.0,0.0,0.0,0.0,0.0,0.0,0.0,0.0,0.0,0.0,0.0,0.0,2.2096,2.2986,2.338,2.3831,2.4202,2.4202,2.4202,2.4202,2.4202,2.4202,2.4202,2.4202,2.4202,2.4202,2.4202,2.4202,2.4202,2.4202,2.4202,2.4202,2.4202,2.4535,2.4957,2.5343,2.575,2.6301,0.0,0.0,2.7949,2.8342,2.8761,2.899,2.8999,2.8999,0.0,2.8999,2.9381,2.9601,2.9601,2.999,3.0387,3.0797,3.1192,3.141,3.1394,3.1394,3.1394,3.1394,3.1394,3.1394,3.1394,0.0,3.1394,0.0,3.1394,3.1394,3.1394,3.1394,3.1394,3.1377,3.1377,3.0487,2.929,0.0,0.0,0.0,0.0,0.0,0.0,0.0,1.3171,1.3151,1.3472,1.3712,1.3855,1.3855,1.4299,1.465,1.4776,0.0,0.0,0.0,0.0,0.0,0.0,0.0,0.0,0.0,0.0,1.5823,1.5894,1.6026,1.6149,1.6254,1.6351,1.6499,1.669,0.0,0.0,0.0,0.0,0.0,0.0,0.0,0.0,0.0,0.0,0.0,0.0,0.0,0.0,0.0,0.0,0.0,0.0,0.0,0.0,0.0,2.2641,2.34,2.4202,2.4202,2.4202,2.4202,2.4202,2.4202,2.4202,2.4202,2.4202,2.4202,2.4202,2.4202,2.4202,2.4202,2.4202,2.4202,2.4202,2.4777,2.5251,2.5379,2.5985,0.0,2.7142,2.7797,2.8366,0.0,0.0,2.8999,2.8999,2.8999,2.8999,2.8999,2.939,2.973,3.0008,3.0396,3.0791,3.1201,3.1345,3.1394,3.1394,3.1394,3.1394,3.1394,3.1394,3.1394,0.0,3.1394,3.1394,3.1394,3.1394,3.1394,3.1394,3.1394,3.1394,3.1394,3.1394,3.1111,3.0601,0.0,0.0,0.0,0.0,0.0,0.0,0.0,1.272,1.2619,1.2956,1.3294,1.3501,1.3501,1.4047,1.4461,1.4596,0.0,0.0,0.0,0.0,0.0,0.0,0.0,0.0,0.0,1.5805,1.5805,1.5805,1.5929,1.6035,1.6096,1.6184,1.6324,1.649,1.649,0.0,0.0,0.0,0.0,0.0,0.0,0.0,1.9301,0.0,0.0,0.0,0.0,0.0,0.0,0.0,0.0,0.0,0.0,0.0,0.0,0.0,2.2825,2.3742,2.3889,2.407,2.4202,2.4202,2.4202,2.4202,2.4202,2.4202,2.4078,2.3646,2.3895,2.4078,2.3646,2.3907,2.4202,2.4202,2.4878,2.5398,2.5398,2.6091,0.0,2.7362,0.0,0.0,0.0,2.8999,2.8999,2.8999,2.8999,2.9063,2.9225,2.9605,3.0008,3.0406,3.0678,3.099,3.141,3.1394,3.1394,3.1394,3.1394,3.1394,3.1394,3.1394,3.1394,3.1394,3.1394,3.1394,0.0,3.1394,3.1394,3.1394,3.1394,3.1078,3.0601,3.0601,3.0268,2.9648,0.0,0.0,0.0,0.0,0.0,0.0,0.0,0.0,1.2611,1.2918,1.3279,1.3501,1.3501,1.382,1.4192,1.4569,0.0,0.0,0.0,0.0,0.0,0.0,0.0,0.0,0.0,1.5805,1.5805,1.5805,1.5805,1.5903,1.6079,1.6079,1.6149,1.6289,1.6289,0.0,0.0,0.0,0.0,0.0,1.8745,1.9092,0.0,0.0,0.0,0.0,0.0,0.0,0.0,0.0,0.0,0.0,0.0,0.0,0.0,0.0,0.0,0.0,0.0,2.3782,2.414,2.4093,2.414,2.4177,2.4102,2.4078,0.0,2.2715,2.3338,2.3758,2.2703,2.3425,2.4211,2.4248,2.4896,2.5407,2.5434,2.6169,0.0,0.0,2.8518,0.0,2.8999,2.8999,2.8999,2.8999,2.8999,2.9188,2.9583,2.9981,3.0378,3.0797,3.0834,3.1027,3.141,3.1394,3.1394,3.1394,3.1394,3.1394,3.1394,3.1394,3.1394,0.0,3.1394,3.1394,3.1394,3.1394,3.1394,3.1394,3.1297,3.0455,2.929,2.9183,2.8279,2.7096,0.0,0.0,0.0,0.0,0.0,0.0,0.0,0.0,0.0,0.0,1.3132,1.3501,1.3501,1.345,1.3735,0.0,0.0,0.0,0.0,0.0,0.0,0.0,0.0,0.0,0.0,1.5805,1.5805,1.5805,1.5805,1.5814,1.5867,1.5867,1.5964,1.6149,1.6149,0.0,0.0,0.0,0.0,0.0,1.853,1.8802,0.0,0.0,0.0,0.0,1.8892,1.8773,0.0,0.0,0.0,0.0,0.0,0.0,0.0,0.0,2.1652,2.2297,2.271,0.0,2.3538,2.3021,2.355,2.3978,0.0,2.2891,2.2816,0.0,0.0,2.2816,2.2552,2.3425,2.4299,2.4608,2.5076,2.5508,2.5815,2.6825,0.0,2.7789,2.8518,2.8999,2.8999,2.8999,2.8999,2.8999,2.8999,2.9188,2.9583,2.9981,3.0378,3.0797,3.11,3.1293,3.1394,3.1394,3.1394,3.1394,3.1394,3.1394,3.1394,3.1394,3.1394,3.1394,3.1394,3.1394,3.1394,3.1394,3.1394,3.1297,3.0203,2.9584,2.915,2.8023,2.7403,2.6947,0.0,0.0,0.0,0.0,0.0,0.0,0.0,0.0,0.0,0.0,0.0,0.0,0.0,0.0,0.0,0.0,0.0,0.0,0.0,0.0,0.0,0.0,0.0,0.0,1.6036,1.564,1.5515,1.5708,1.5708,1.5708,1.5717,1.6119,1.6356,1.6457,1.6374,0.0,0.0,0.0,0.0,0.0,1.8323,0.0,0.0,0.0,0.0,0.0,1.8653,1.8513,0.0,1.8432,1.8953,1.9537,0.0,0.0,0.0,0.0,2.1089,2.1644,2.2111,2.2793,2.3189,2.2486,2.3167,2.3721,2.2581,2.2316,0.0,0.0,0.0,2.2304,2.1659,2.2995,2.4327,2.4724,2.5141,2.5664,2.6435,0.0,2.7867,2.8045,2.8623,2.8999,0.0,2.8999,2.8999,2.8999,2.8999,2.9256,2.9843,3.0075,3.0461,3.1054,3.1284,3.1394,3.1394,3.1394,3.1394,3.1394,3.1394,3.1394,3.1394,3.1394,3.1394,3.1394,3.1394,3.103,3.0439,3.0439,3.0031,2.9346,2.8583,2.7899,2.7237,2.6429,2.5726,2.5154,0.0,0.0,0.0,0.0,0.0,0.0,0.0,0.0,0.0,0.0,0.0,0.0,0.0,0.0,0.0,0.0,0.0,0.0,0.0,0.0,0.0,0.0,0.0,1.587,1.6017,1.5344,1.5194,1.56,1.56,1.5667,1.5809,1.6551,1.6899,1.6892,1.6654,1.6408,0.0,0.0,0.0,0.0,1.8098,0.0,0.0,0.0,0.0,0.0,0.0,0.0,0.0,1.8459,1.8866,1.926,1.9591,0.0,0.0,0.0,0.0,0.0,2.1448,2.2256,2.2828,2.2197,2.2895,2.3388,2.2076,2.1916,0.0,0.0,0.0,0.0,2.0828,2.2628,0.0,2.4765,2.5252,2.5958,2.705,2.7545,2.7949,2.8357,2.8761,0.0,2.8999,2.8999,2.8999,2.8999,2.8999,2.9357,3.0158,3.0204,3.0561,3.1366,3.1394,3.1394,3.1394,3.1394,3.1394,3.1394,3.1394,3.1394,3.1394,3.1394,3.1382,3.1302,0.0,0.0,2.9118,2.8974,2.818,2.7025,2.684,2.6045,2.4974,2.4754,2.3921,2.3099,0.0,0.0,0.0,0.0,0.0,0.0,0.0,0.0,0.0,0.0,0.0,0.0,0.0,0.0,0.0,0.0,0.0,0.0,0.0,0.0,0.0,0.0,1.562,1.5449,1.4707,1.4898,1.5194,1.56,1.56,1.5982,1.6701,1.6843,1.6899,1.6882,1.6507,1.6402,1.6539,0.0,0.0,1.7292,1.7841,0.0,0.0,0.0,0.0,0.0,0.0,0.0,0.0,1.8459,1.8866,1.926,1.9591,0.0,0.0,0.0,0.0,0.0,2.0493,2.1211,2.1976,2.1804,2.2623,2.2904,2.0802,0.0,0.0,0.0,0.0,0.0,0.0,2.3258,2.477,0.0,0.0,2.6596,0.0,0.0,2.7949,2.8357,0.0,2.8999,2.8999,2.8999,2.8999,2.8999,2.8999,2.9357,3.0158,3.0204,3.0561,3.1366,3.1394,3.1394,3.1394,3.1394,3.1394,3.1394,3.1394,3.1394,3.1394,3.1394,3.121,3.0835,0.0,2.8886,2.8301,2.7449,2.6978,2.6675,2.5704,2.5186,2.4856,2.3665,2.3082,2.3099,0.0,0.0,0.0,0.0,0.0,0.0,0.0,0.0,0.0,0.0,0.0,0.0,0.0,0.0,0.0,0.0,0.0,0.0,0.0,0.0,0.0,1.4168,1.4571,1.4788,1.4729,1.4593,1.4832,1.5491,1.5963,1.64,1.6803,1.7272,1.7405,1.7219,1.703,1.6777,1.6525,1.7017,1.7146,1.7092,0.0,0.0,0.0,0.0,0.0,0.0,0.0,0.0,0.0,0.0,1.9056,1.9294,1.9844,0.0,0.0,0.0,0.0,0.0,2.0114,2.0788,2.169,2.2084,2.2695,2.2749,0.0,0.0,0.0,0.0,0.0,0.0,0.0,0.0,2.4952,2.546,0.0,2.7054,2.7472,2.7876,2.8265,0.0,0.0,2.8999,2.8999,2.8999,2.8999,2.8999,2.8999,2.9256,2.9843,3.0075,3.0461,3.1054,3.1284,3.1394,3.1394,3.1394,3.1394,3.1394,3.1394,3.1394,3.1377,3.0601,3.0064,2.9644,0.0,2.7125,2.622,2.5758,2.5201,2.4587,2.4078,2.387,2.3785,2.3133,2.3382,2.4023,0.0,0.0,0.0,0.0,0.0,0.0,0.0,0.0,0.0,0.0,0.0,0.0,0.0,0.0,0.0,0.0,0.0,0.0,0.0,0.0,1.4448,1.3255,1.3373,1.3734,1.4333,1.4031,1.4367,1.5404,1.607,1.6596,1.7023,1.769,1.7857,1.7605,1.7538,1.7188,1.669,1.7265,1.7323,1.7097,0.0,0.0,0.0,0.0,0.0,0.0,0.0,0.0,0.0,0.0,0.0,0.0,0.0,0.0,0.0,1.9094,1.9581,2.0312,1.9694,2.0507,2.1644,2.2097,2.256,0.0,0.0,0.0,0.0,0.0,0.0,0.0,0.0,2.3656,0.0,2.6008,2.6738,0.0,0.0,0.0,0.0,0.0,0.0,2.8999,2.8999,2.8999,2.8999,2.8999,2.8999,2.9188,2.9583,2.9889,3.0293,3.0772,3.11,3.1302,3.1394,3.1394,3.1394,3.1394,3.1394,3.1394,3.1361,3.0276,2.9425,2.8708,2.7304,2.5847,2.443,2.4188,2.3572,2.2783,2.2873,2.2893,2.2893,2.2893,2.3587,2.4406,0.0,0.0,0.0,0.0,0.0,0.0,0.0,0.0,0.0,0.0,0.0,0.0,0.0,0.0,0.0,0.0,0.0,0.0,0.0,0.0,1.4019,1.323,1.234,1.203,1.2397,1.2906,1.3896,1.5404,1.5467,1.6324,1.7919,1.7971,1.7993,1.795,1.7639,1.747,1.7418,1.748,1.7478,1.7486,1.7849,0.0,0.0,0.0,0.0,0.0,0.0,0.0,0.0,0.0,0.0,0.0,0.0,0.0,2.0102,1.9094,1.9774,2.0498,1.8859,2.0144,2.1812,2.1179,2.1831,0.0,2.1191,2.1755,0.0,2.114,0.0,0.0,0.0,2.4153,2.5402,2.6404,2.6917,2.7343,2.7738,0.0,2.8559,2.8953,2.8999,2.8999,2.8999,2.8999,2.8999,2.8999,2.8999,2.9188,2.9583,2.9629,2.999,3.0779,3.0834,3.1027,3.141,3.1394,3.1394,3.1394,3.1394,3.1394,3.1394,3.1297,3.0314,2.8636,2.7279,2.5683,2.3967,2.2965,2.2509,2.2478,2.2769,2.2893,2.2893,2.2893,2.2962,2.3212,0.0,0.0,0.0,0.0,0.0,0.0,0.0,0.0,0.0,0.0,0.0,0.0,0.0,0.0,0.0,0.0,0.0,0.0,0.0,0.0,1.304,1.1759,1.1459,1.1701,1.2491,1.3386,1.4357,1.5404,1.6489,1.7355,1.8,1.8,1.8,1.7991,1.7866,1.7699,1.7513,1.7723,1.7689,1.753,1.7866,1.8,0.0,0.0,0.0,0.0,0.0,0.0,0.0,0.0,1.9427,1.977,2.0161,1.9866,1.9289,1.8911,1.9341,1.9866,1.9426,2.0622,2.1995,2.1963,2.2283,0.0,0.0,2.1734,2.1671,2.211,2.28,0.0,0.0,0.0,2.5483,2.6432,2.6965,2.7387,2.7746,2.8357,2.8834,2.8981,2.8999,2.8999,2.8999,2.8999,2.8999,2.8999,2.8999,2.9063,2.9225,2.9464,2.9748,3.0036,3.054,3.0871,3.1027,3.129,3.1394,3.1394,3.1394,3.1394,3.1377,3.0487,2.9124,2.7377,2.5992,2.4492,2.2974,2.2573,2.2525,2.2723,2.2853,2.2893,2.2893,2.2893,2.2893,2.2979,0.0,0.0,0.0,0.0,0.0,0.0,0.0,0.0,0.0,0.0,0.0,0.0,0.0,0.0,0.0,0.0,0.0,0.0,0.0,1.2771,1.2082,1.085,1.099,1.16,1.2676,1.3938,1.4994,1.5811,1.7284,1.8,1.8,1.8,1.8,1.8,1.8,1.7866,1.7673,1.7899,1.7866,1.7682,1.7917,1.8,0.0,0.0,0.0,0.0,0.0,0.0,0.0,0.0,1.9326,1.988,1.9835,1.9572,1.9234,1.9047,1.9487,2.0041,2.0078,2.1122,2.226,2.2534,0.0,0.0,2.2518,2.2004,2.1709,2.2682,2.3241,0.0,0.0,0.0,0.0,0.0,2.7076,2.7462,2.7919,2.8568,2.8999,2.8999,2.8999,2.8999,2.8999,2.8999,2.8999,2.8999,2.8999,2.8999,2.8999,2.9256,2.9473,2.9601,3.0128,3.054,3.0806,3.1073,3.1265,3.1394,3.1394,3.1394,3.1361,3.0406,2.907,2.7442,2.6006,2.4562,2.3186,2.2738,2.2696,2.2893,2.2893,2.2893,2.2893,2.2893,2.2893,2.2893,0.0,0.0,0.0,0.0,0.0,0.0,0.0,0.0,0.0,0.0,0.0,0.0,0.0,0.0,0.0,0.0,0.0,0.0,1.2608,1.1836,1.1223,1.0822,1.099,1.161,1.2689,1.4355,1.5713,1.6709,1.7578,1.8,1.8,1.8,1.8,1.8,1.8,1.8,1.8,1.8,1.8,1.8,1.8,1.8,1.8,0.0,0.0,0.0,0.0,0.0,0.0,0.0,1.9148,2.0102,1.9106,1.9481,2.0166,1.9562,2.0335,2.1262,2.0657,2.1532,2.2594,0.0,0.0,0.0,2.2333,2.2581,2.259,2.2603,0.0,2.3992,2.4928,0.0,0.0,0.0,0.0,2.7548,2.8299,2.8751,2.8999,2.8999,2.8999,2.8999,2.8999,2.8999,2.8999,2.8999,2.8999,2.8999,2.8999,2.8999,2.9173,2.9583,2.9601,2.9981,3.0788,3.0806,3.0999,3.1394,3.1394,3.1394,3.1394,3.1394,3.0633,2.9216,2.7734,2.6305,2.4907,2.3502,2.2911,2.2893,2.2893,2.2893,2.2893,2.2893,2.2893,2.2893,0.0,0.0,0.0,0.0,0.0,0.0,0.0,0.0,0.0,0.0,0.0,0.0,0.0,0.0,0.0,0.0,0.0,0.0,1.1372,1.1111,1.0915,1.0812,1.113,1.21,1.3791,1.5788,1.7082,1.7609,1.787,1.8,1.8,1.8,1.8,1.8,1.8,1.8,1.8,1.8,1.8,1.8,1.8,1.8,1.8,0.0,0.0,0.0,0.0,0.0,0.0,0.0,0.0,0.0,1.8891,1.9003,1.911,1.841,1.9214,2.0354,2.0368,2.1457,0.0,2.2594,0.0,0.0,0.0,2.1404,0.0,0.0,2.3884,2.4498,2.5076,0.0,0.0,0.0,0.0,2.7332,2.8261,2.8751,2.8999,2.8999,2.8999,2.8999,2.8999,2.8999,2.8999,2.8999,2.8999,2.8999,2.8999,2.8999,2.9054,2.9164,2.9455,2.9843,3.0369,3.0669,3.0999,3.1394,3.1394,3.1394,3.1394,3.1394,3.0633,2.9216,2.7734,2.6864,2.6371,2.495,2.3785,2.2893,2.2893,2.2893,2.2893,2.2893,2.2893,2.2893,0.0,0.0,0.0,0.0,0.0,0.0,0.0,0.0,0.0,0.0,1.2925,1.2572,0.0,0.0,0.0,0.0,0.0,0.0,0.0,0.0,1.055,1.0794,1.1422,1.2743,1.4847,1.614,1.7122,1.7799,1.7933,1.7819,1.7497,1.784,1.8,1.8,1.8,1.8,1.8,1.8,1.8,1.8,1.8,1.8,1.8027,0.0,0.0,0.0,0.0,0.0,0.0,0.0,0.0,0.0,1.8465,1.8753,1.9284,1.8741,1.9493,2.0593,2.1072,2.1887,0.0,2.2594,2.2257,2.1796,2.1261,0.0,0.0,0.0,0.0,2.445,2.448,2.479,0.0,0.0,2.6975,2.7405,2.8137,2.8562,2.8791,2.8791,2.8791,2.885,2.8984,2.8999,2.8999,2.8999,2.8999,2.8999,2.8999,2.8999,2.8999,2.8999,2.9243,2.9632,3.0195,3.0433,3.0843,3.1394,3.1394,3.1394,3.1394,3.1394,3.0933,3.0024,2.7982,2.6781,2.6162,2.4754,2.3665,2.2893,2.2893,2.2893,2.2893,2.2893,2.2893,2.2893,0.0,0.0,1.3271,1.2537,0.0,0.0,0.0,0.0,0.0,0.0,1.3486,1.3003,0.0,0.0,0.0,0.0,0.0,0.0,0.0,0.0,1.0255,1.0859,1.1863,1.3491,1.5803,1.5725,1.6201,1.7327,1.7671,1.7486,1.6841,1.7629,1.8,1.8,1.8,1.8,1.7991,1.792,1.7931,1.7991,1.791,1.7956,1.8095,1.8459,0.0,0.0,0.0,0.0,0.0,0.0,0.0,0.0,1.7878,1.8626,2.0085,1.9726,2.0454,2.1552,2.2242,2.2518,0.0,2.2594,2.1734,0.0,2.1385,2.1423,2.1502,2.1929,0.0,2.3939,2.3451,2.449,2.5674,2.6543,2.7119,2.7538,2.7778,2.8193,2.8427,2.8337,2.8427,2.8636,2.8969,2.8999,2.8999,2.8999,2.8999,2.8999,2.8999,2.8999,2.8999,2.8999,2.8999,2.9394,3.0195,3.0204,3.0598,3.1394,3.1394,3.1329,3.1207,3.1345,3.1256,3.0876,2.8378,2.6355,2.4721,2.3563,2.3013,2.2893,2.2893,2.2893,2.2893,2.2893,2.2893,2.2893,0.0,0.0,1.3453,1.3271,0.0,0.0,0.0,0.0,0.0,0.0,0.0,0.0,0.0,0.0,0.0,0.0,0.0,0.0,0.0,0.0,1.0878,1.1484,1.2615,1.4169,1.6154,1.5611,1.5541,1.6008,1.6452,1.7035,1.7728,1.791,1.8,1.8,1.8,1.8,1.7959,1.7275,1.7367,1.7941,1.7265,1.7573,1.8477,1.8564,1.8469,0.0,0.0,0.0,0.0,0.0,0.0,0.0,1.7436,1.8145,1.8896,1.7791,1.9329,2.1374,2.1296,2.192,0.0,0.0,2.1734,2.0972,2.1278,2.0899,2.109,2.3234,2.3461,2.3217,2.3107,2.4349,2.5332,2.513,2.6234,2.6946,2.6485,2.7392,2.7816,2.7013,2.7861,2.8636,2.8969,2.8999,2.8999,2.8999,2.8999,2.8999,2.8999,2.8999,2.8999,2.8999,2.8999,2.9394,3.0195,3.0204,3.0598,3.1394,3.1394,3.082,2.978,3.0901,3.0178,2.804,2.8592,2.6746,2.3417,2.422,2.3904,2.2893,2.2893,2.2893,2.2893,2.2893,2.2893,2.2893,0.0,0.0,0.0,0.0,0.0,0.0,0.0,0.0,0.0,0.0,0.0,0.0,0.0,0.0,0.0,0.0,0.0,0.0,0.0,0.0,0.0,1.2615,1.3544,1.4658,1.6026,1.5305,1.5255,1.5946,1.5568,1.5764,0.0,0.0,1.7192,1.7377,1.7377,1.7377,1.7377,1.7347,1.7347,1.7394,1.7549,1.7718,1.7974,1.8807,1.8745,1.8292,1.9008,0.0,0.0,0.0,0.0,0.0,0.0,0.0,1.8797,1.781,1.9109,2.088,2.0894,0.0,0.0,2.192,0.0,2.0878,2.0795,2.0434,2.0777,2.3148,2.3288,2.2805,2.2197,2.404,2.5363,2.4504,2.5972,2.6846,2.5735,2.6825,2.7392,2.6375,2.7437,2.8463,2.8955,2.8999,2.8999,2.8999,2.8999,2.8999,2.8999,2.8999,2.8999,2.8999,2.8999,2.9394,3.0195,3.0204,3.0275,3.039,3.039,2.964,2.8271,2.901,2.8526,2.7113,2.7195,2.5969,2.3904,2.3972,2.3553,2.2893,2.2893,2.2893,2.2893,2.2893,2.2893,2.2893,0.0,0.0,0.0,0.0,0.0,0.0,0.0,0.0,0.0,0.0,0.0,0.0,0.0,0.0,0.0,0.0,0.0,0.0,0.0,0.0,0.0,1.3618,1.4194,1.4838,1.5576,1.4939,1.5074,1.6081,0.0,0.0,0.0,0.0,0.0,1.6921,1.677,1.678,1.6944,1.7367,1.7357,1.7095,1.7821,1.7891,1.7685,1.896,0.0,1.835,1.8681,1.9221,1.9526,1.7855,0.0,0.0,0.0,0.0,1.8856,1.8436,1.9131,2.0189,2.0988,2.1734,2.2131,2.1378,2.1099,0.0,2.0292,2.0135,2.0593,2.2313,2.2501,2.2105,2.1258,2.3553,2.5117,2.3676,2.5489,2.6461,2.4656,2.5951,2.671,2.5697,2.7006,2.8244,2.885,2.8969,2.8999,2.8999,2.8999,2.8999,2.8999,2.8999,2.8886,2.8663,2.8648,2.8923,2.9484,2.9493,2.93,2.8921,2.8666,2.7916,2.6738,2.6481,2.6514,2.6664,2.5506,2.4856,2.4551,2.3382,2.2893,2.2893,2.2893,2.2893,2.2893,2.2893,2.2893,2.2893,0.0,0.0,0.0,0.0,0.0,0.0,0.0,0.0,0.0,0.0,1.1446,1.1158,0.0,1.041,1.002,1.002,1.0494,1.0831,1.0906,0.0,0.0,1.351,1.3879,1.4294,1.4752,1.4646,1.4793,1.5168,0.0,0.0,0.0,0.0,0.0,1.7789,0.0,1.7115,1.7738,1.6345,1.6747,1.8221,1.6763,1.7445,1.928,0.0,0.0,0.0,0.0,1.8338,1.7658,1.7382,1.7483,0.0,0.0,0.0,1.7963,1.8287,1.8638,1.9426,2.1744,0.0,2.1327,0.0,2.1892,2.1173,0.0,0.0,2.0678,0.0,2.0515,2.0063,2.0945,2.288,2.3558,2.1196,2.3407,2.4533,2.1998,2.3822,2.5033,2.3962,2.6301,2.8148,2.8531,2.8821,2.8999,2.8999,2.8999,2.8999,2.8999,2.8999,2.8475,2.7308,2.7263,2.7066,2.6646,2.6654,2.6907,2.7387,2.6169,2.5472,2.5237,2.4016,2.4135,2.527,2.5075,2.4304,2.3167,2.2979,2.2893,2.2893,2.2893,2.2893,2.2893,2.2893,2.2893,2.2893,0.0,0.0,0.0,0.0,0.0,0.0,0.0,0.0,0.0,0.0,0.0,1.0897,1.0812,1.0265,1.0171,1.085,1.1149,1.1586,1.2277,1.2758,1.3361,1.4077,1.4033,1.4401,1.5249,1.4979,1.488,1.5001,0.0,0.0,0.0,1.5827,1.644,0.0,0.0,0.0,0.0,1.6609,1.6623,1.699,1.6498,1.6661,0.0,0.0,0.0,0.0,0.0,0.0,0.0,1.7027,1.7307,1.8092,1.652,0.0,0.0,0.0,1.7839,1.8472,2.0223,2.0808,2.1026,0.0,2.1043,2.0351,2.0079,1.9785,1.9695,2.0022,1.913,1.8876,2.0744,2.2742,2.327,2.0706,2.2995,2.4162,2.1486,2.3403,2.4725,2.3675,2.6019,2.793,2.8442,2.8636,2.8484,2.7927,2.7873,2.7549,2.6801,2.6756,2.6498,2.5897,2.5882,2.5948,2.6104,2.6104,2.6032,2.5911,2.4501,2.3819,2.3802,2.3184,2.3236,2.3819,2.3819,2.3468,2.2893,2.2893,2.2893,2.2893,2.2893,2.2893,2.2893,2.2893,2.2893,2.2893,0.0,0.0,0.0,0.0,0.0,0.0,0.0,0.0,0.0,0.0,0.0,1.0822,1.0653,0.0,0.0,0.0,1.1669,1.2169,1.3282,1.3339,1.3577,1.4138,0.0,1.4727,1.53,1.5334,1.5218,0.0,0.0,0.0,1.5914,1.5555,1.5863,0.0,1.6473,0.0,0.0,0.0,0.0,0.0,0.0,0.0,0.0,0.0,0.0,0.0,0.0,0.0,0.0,0.0,0.0,0.0,0.0,1.6645,0.0,0.0,0.0,1.812,1.8649,0.0,2.0539,2.0834,2.0316,1.9792,0.0,0.0,1.9001,0.0,1.8344,1.814,2.025,2.2,2.2394,2.0168,2.2215,2.3279,2.0918,2.2905,2.4301,2.3558,2.5866,2.7726,2.8313,2.814,2.7717,2.7052,2.668,2.6057,2.5056,2.4994,2.4856,2.4533,2.451,2.4664,2.4956,2.5091,2.4931,2.4457,2.34,2.2893,2.2893,2.2893,2.2893,2.2893,2.2893,2.2893,2.2893,2.2893,2.2893,2.2893,2.2893,2.2893,2.2893,2.2893,2.2893,2.2893,0.0,0.0,0.0,0.0,0.0,0.0,0.0,0.0,0.0,0.0,0.0,1.0869,1.0293,1.003,1.0312,1.1335,1.1586,1.2049,1.2881,1.3922,1.4057,1.3028,0.0,0.0,1.4023,1.553,0.0,0.0,0.0,0.0,1.5445,1.5407,1.5863,1.6657,1.5842,1.5615,1.5904,0.0,0.0,0.0,1.8115,1.8893,0.0,0.0,0.0,0.0,0.0,0.0,0.0,0.0,0.0,0.0,0.0,0.0,0.0,0.0,0.0,0.0,0.0,1.8467,1.9552,2.0621,2.0525,2.0138,0.0,0.0,1.9276,1.9304,1.8344,1.7889,1.9166,1.9999,2.0047,1.8625,2.004,2.0829,1.9402,2.151,2.3185,2.3139,2.5714,2.7642,2.799,2.7157,2.6717,2.6983,2.5821,2.5071,2.4994,2.4994,2.4448,2.3248,2.3201,2.2765,2.1838,2.235,2.2731,2.3013,2.2934,2.2893,2.2893,2.2893,2.2893,2.2893,2.2893,2.2893,2.2893,2.2893,2.2893,2.2893,2.2893,2.2893,2.2893,2.2893,2.2893,2.2893,0.0,0.0,0.0,0.0,0.0,0.0,0.0,0.0,0.0,0.0,0.0,0.0,0.0,1.1872,1.2112,1.281,1.3299,1.3479,1.3306,1.3869,1.4031,1.3624,0.0,0.0,0.0,0.0,0.0,0.0,0.0,1.5555,1.5404,1.5404,1.5661,1.6109,1.58,1.6015,1.6655,1.6843,0.0,0.0,1.7266,1.7541,1.7458,0.0,0.0,0.0,0.0,0.0,0.0,0.0,0.0,0.0,0.0,0.0,0.0,0.0,0.0,0.0,0.0,0.0,1.9306,1.9707,1.9418,1.9037,1.8975,1.8543,1.8146,1.8146,1.7801,1.7625,1.8073,1.9329,1.9857,1.8518,1.9884,2.0624,1.9296,2.1407,2.3107,2.3107,2.4794,2.6073,2.636,2.53,2.4371,2.39,2.3613,2.3076,2.2215,2.2372,2.2301,2.183,2.1814,2.1824,2.1863,2.2218,2.2565,2.2893,2.2893,2.2893,2.2893,2.2893,2.2893,2.2893,2.2893,2.2893,2.2893,2.2893,2.2893,2.2893,2.2893,2.2893,2.2893,2.2893,2.2893,2.2893,0.0,0.0,0.0,0.0,0.0,1.2968,0.0,0.0,0.0,0.0,0.0,0.0,0.0,0.0,1.2716,1.328,1.423,1.4482,1.3725,1.3879,1.4122,1.4392,1.4912,0.0,0.0,0.0,0.0,0.0,0.0,0.0,0.0,1.5082,1.5247,1.5784,1.5612,1.5904,0.0,0.0,0.0,1.6463,0.0,1.7386,1.7534,0.0,0.0,0.0,0.0,0.0,0.0,0.0,0.0,0.0,0.0,0.0,0.0,0.0,0.0,0.0,1.7028,0.0,0.0,1.8662,1.8535,1.8409,1.8409,1.793,1.7499,1.7499,1.7499,1.7499,1.7499,1.8596,1.9224,1.8429,1.95,2.0122,1.9232,2.1012,2.2436,2.2436,2.3605,2.4533,2.4802,2.3644,2.2648,2.2139,2.1989,0.0,2.0656,2.0919,2.1093,2.1093,2.1093,2.139,2.1994,2.2178,2.2472,2.2893,2.2893,2.2893,2.2893,2.2893,2.2825,2.2705,2.2705,2.2774,2.2893,2.2893,2.2832,2.2705,2.2849,2.2832,2.2705,2.2849,2.2893,2.2893,0.0,1.3499,1.3499,1.3499,1.3499,1.3499,1.3499,0.0,0.0,0.0,0.0,0.0,0.0,0.0,0.0,1.2608,1.4203,1.4865,1.4084,1.4038,1.44,1.5177,1.5247,0.0,0.0,0.0,0.0,0.0,0.0,0.0,0.0,0.0,1.4683,1.5784,1.5253,1.5172,1.5516,0.0,1.7484,1.8596,0.0,1.8715,2.0602,0.0,0.0,0.0,1.8328,1.787,0.0,0.0,0.0,0.0,0.0,0.0,0.0,0.0,0.0,0.0,0.0,0.0,0.0,0.0,1.7976,1.8354,1.8354,1.7902,1.7499,1.7499,1.7499,1.7499,1.7499,1.7726,1.7998,1.8267,1.8744,1.9098,1.911,2.0249,2.1091,2.1091,2.2248,2.3147,2.3404,2.2273,2.1659,2.1982,2.1127,2.0577,2.0577,2.0903,2.1093,2.1093,2.1093,2.139,2.1994,2.2001,2.2295,2.2893,2.2893,2.2893,2.2883,2.2883,2.2654,2.2293,2.2293,2.2516,2.2859,2.2859,2.2636,2.2327,2.2722,2.2636,2.2345,2.2756,2.2893,2.2893,1.3462,1.3499,1.3499,1.3499,1.3499,1.3499,0.0,0.0,0.0,0.0,0.0,0.0,0.0,0.0,0.0,1.4027,1.4673,1.5006,1.4879,1.505,1.5279,1.5546,1.6404,1.6673,0.0,0.0,0.0,0.0,0.0,0.0,0.0,0.0,0.0,0.0,1.5449,1.575,1.6793,1.7025,0.0,0.0,1.7122,1.8162,0.0,0.0,0.0,0.0,0.0,1.8823,0.0,0.0,1.8701,1.8623,0.0,0.0,0.0,0.0,0.0,0.0,1.6908,0.0,0.0,0.0,0.0,0.0,1.7164,1.7342,1.7499,1.7499,1.7499,1.7499,1.7499,1.7726,1.7998,1.8267,1.8587,1.8877,1.9064,2.0249,2.1091,2.1091,2.1438,2.1683,2.1762,2.0576,1.9826,0.0,1.9896,1.9887,1.9887,2.0427,2.084,2.1093,2.1093,2.139,2.1994,2.2001,2.2295,2.2893,2.2893,2.2756,2.2465,2.2465,2.2276,2.1932,2.1932,2.2001,2.211,2.211,2.2042,2.1966,2.2327,2.2396,2.2345,2.2756,2.2893,2.2893,1.4392,1.4464,1.4464,1.4464,1.4464,1.4464,0.0,0.0,0.0,0.0,0.0,0.0,0.0,0.0,0.0,1.4521,1.4966,1.5279,1.5364,1.5203,1.5335,1.5845,1.6248,1.6454,0.0,0.0,0.0,0.0,0.0,0.0,0.0,0.0,0.0,0.0,1.6083,1.5966,0.0,0.0,0.0,0.0,1.6953,0.0,0.0,1.8344,1.8813,0.0,0.0,0.0,1.8597,1.9046,1.8903,0.0,0.0,0.0,0.0,0.0,0.0,0.0,0.0,0.0,0.0,0.0,0.0,0.0,1.67,1.7105,1.7499,1.7499,1.7499,1.7499,1.7499,1.7635,1.7814,1.8091,1.8363,1.8665,1.9056,1.9763,2.0265,2.0265,2.0265,2.0265,2.0265,1.9561,1.911,1.911,1.9408,1.9657,1.9791,2.03,2.0688,2.0894,2.103,2.1336,2.1836,2.194,2.2235,2.2696,2.2662,2.2533,2.231,2.2156,2.1887,2.1559,2.1559,2.1473,2.1341,2.1341,2.1421,2.1593,2.1955,2.2087,2.2138,2.2516,2.2756,2.2893,0.0,1.5805,1.5805,1.5805,1.5805,1.5805,0.0,0.0,0.0,0.0,0.0,0.0,0.0,0.0,0.0,0.0,1.5217,1.5663,1.5663,1.5036,0.0,0.0,1.5631,1.5759,1.668,0.0,0.0,0.0,0.0,0.0,0.0,0.0,0.0,0.0,1.6641,1.5886,0.0,0.0,0.0,1.7419,1.6869,1.8004,0.0,0.0,1.8066,0.0,1.812,1.7773,1.7917,1.8877,1.8401,0.0,0.0,0.0,0.0,0.0,1.5998,0.0,0.0,0.0,0.0,0.0,0.0,0.0,1.67,1.7105,1.7499,1.7499,1.7499,1.7499,1.7499,1.7499,1.7599,1.7859,1.8128,1.8484,1.8979,1.9086,1.911,1.911,1.911,1.911,1.911,1.911,1.911,1.911,1.9376,1.9695,2.0027,2.0323,2.0529,2.0593,2.0887,2.1217,2.1598,2.1877,2.2114,2.2334,2.231,2.2259,2.2173,2.1869,2.1524,2.1144,2.1144,2.0977,2.07,2.07,2.0873,2.1179,2.1576,2.1731,2.1766,2.2121,2.2482,2.2825,1.577,1.5805,1.5805,1.5805,1.5805,0.0,0.0,0.0,0.0,0.0,0.0,0.0,0.0,0.0,0.0,0.0,0.0,1.5998,1.5998,1.6161,0.0,1.6575,1.7118,1.7191,1.6719,1.6655,0.0,0.0,0.0,0.0,0.0,0.0,0.0,0.0,1.5424,1.564,0.0,0.0,0.0,1.5927,1.5803,0.0,1.8077,1.7678,1.8222,1.9176,1.8955,1.8897,1.8916,0.0,1.7877,1.6531,0.0,0.0,0.0,0.0,0.0,0.0,0.0,0.0,0.0,0.0,0.0,0.0,1.67,1.7105,1.7499,1.7499,1.7499,1.7499,1.7499,1.7499,1.7599,1.7859,1.8128,1.8402,1.8732,1.8955,1.911,1.911,1.911,1.911,1.911,1.911,1.911,1.911,1.9158,1.9344,1.9679,1.9759,2.0046,2.0577,2.0656,2.0985,2.1598,2.1877,2.1998,2.2004,2.2207,2.1984,2.1415,2.1352,2.1127,2.0804,2.0804,2.0752,2.07,2.07,2.0735,2.0822,2.1179,2.1317,2.1363,2.1749,2.2128,2.2413,1.5805,1.5805,1.5857,1.6063,0.0,0.0,0.0,0.0,0.0,0.0,0.0,0.0,0.0,0.0,0.0,0.0,0.0,0.0,0.0,0.0,0.0,1.6698,1.6696,1.6794,1.6992,1.7,1.7079,0.0,0.0,0.0,0.0,0.0,0.0,0.0,0.0,0.0,0.0,0.0,1.5378,1.5563,1.6267,0.0,1.7595,1.7595,1.8264,1.9059,1.7949,1.7917,1.8408,1.8408,1.8022,0.0,0.0,1.7634,1.6749,0.0,1.6351,1.5905,0.0,0.0,0.0,1.6068,0.0,0.0,0.0,1.7216,1.7499,1.7499,1.7499,1.7499,1.7499,1.7499,1.7542,1.7675,1.7937,1.8146,1.8279,1.8756,1.911,1.911,1.911,1.911,1.911,1.911,1.911,1.911,1.911,1.9168,1.9338,1.9514,1.9753,2.0094,2.0259,2.0505,2.0856,2.1248,2.1435,2.1394,2.1648,2.1553,2.1196,2.1023,2.0856,2.07,2.07,2.07,2.07,2.07,2.07,2.0717,2.0891,2.1041,2.1231,2.1438,2.1725,2.207,1.601,1.601,1.6114,1.6441,0.0,0.0,0.0,0.0,0.0,0.0,0.0,0.0,0.0,0.0,0.0,0.0,0.0,0.0,0.0,0.0,0.0,0.0,1.6313,1.6535,1.7379,1.7376,1.7426,1.7514,0.0,0.0,0.0,0.0,0.0,0.0,0.0,0.0,0.0,0.0,0.0,1.5681,0.0,1.7265,1.7265,1.7265,1.7805,1.8355,1.6796,1.6816,1.7635,1.7838,0.0,1.8486,1.8042,1.7615,0.0,0.0,0.0,0.0,0.0,0.0,0.0,0.0,0.0,1.6833,0.0,0.0,0.0,1.7499,1.7499,1.7499,1.7499,0.0,0.0,1.7427,0.0,0.0,0.0,1.8466,0.0,1.9026,1.9064,1.911,1.911,1.911,1.911,1.911,1.911,1.911,1.911,1.936,1.953,1.9593,1.9861,2.0027,2.0106,2.0627,2.0867,2.0807,2.1073,2.1179,2.1092,2.0822,2.07,2.07,2.07,2.07,2.07,2.07,2.07,2.07,2.07,2.0873,2.1092,2.1092,2.1352,2.1714,1.6771,1.6771,1.6788,1.684,0.0,0.0,0.0,0.0,0.0,0.0,0.0,0.0,0.0,0.0,0.0,0.0,0.0,0.0,1.5065,0.0,0.0,0.0,0.0,0.0,1.7762,1.7673,1.7265,1.647,0.0,0.0,0.0,0.0,0.0,0.0,1.5373,0.0,0.0,0.0,1.5645,0.0,1.6033,1.6085,0.0,1.6085,1.6165,1.6378,1.7133,1.749,1.7753,0.0,1.7799,1.6597,0.0,1.7667,0.0,0.0,0.0,0.0,0.0,0.0,0.0,0.0,1.6865,0.0,0.0,0.0,1.7499,1.7499,0.0,0.0,0.0,0.0,0.0,0.0,0.0,0.0,1.7578,1.8037,1.8484,1.872,1.8965,1.911,1.911,1.911,1.911,1.911,1.911,1.911,1.911,1.9142,1.9296,1.9593,1.9641,1.9791,2.0106,2.0627,2.0751,2.0464,2.0953,2.1041,2.0752,2.0717,2.07,2.07,2.07,2.07,2.07,2.07,2.07,2.07,2.07,2.0717,2.0752,2.0752,2.0971,2.1265,1.6975,1.6899,1.6968,1.7211,0.0,0.0,0.0,0.0,0.0,0.0,0.0,0.0,0.0,0.0,0.0,0.0,0.0,1.6573,0.0,0.0,0.0,0.0,0.0,0.0,0.0,1.8079,1.8274,1.862,1.815,0.0,0.0,0.0,0.0,0.0,1.5827,0.0,1.6109,0.0,0.0,0.0,0.0,0.0,0.0,1.5905,1.5905,1.6051,1.7186,1.7173,1.6683,0.0,1.7107,0.0,0.0,0.0,0.0,0.0,0.0,0.0,0.0,0.0,0.0,0.0,0.0,0.0,1.73,0.0,1.7499,0.0,0.0,0.0,0.0,0.0,0.0,0.0,1.7518,0.0,0.0,0.0,1.8224,1.8647,0.0,0.0,1.9076,1.911,1.911,1.911,1.911,1.911,1.911,1.911,1.9152,1.9312,1.9312,1.9376,1.9526,2.0053,2.0248,2.0127,2.0652,2.0839,2.07,2.07,2.07,2.07,2.07,2.07,2.07,2.07,2.07,2.07,2.07,2.07,2.07,2.07,2.0787,2.0937,1.731,0.0,0.0,0.0,0.0,0.0,0.0,0.0,0.0,0.0,0.0,0.0,1.6632,1.6524,0.0,0.0,0.0,1.665,0.0,0.0,1.8074,0.0,0.0,0.0,0.0,0.0,1.8833,1.9481,1.8476,0.0,0.0,0.0,0.0,0.0,0.0,1.6212,1.562,0.0,0.0,1.5905,1.5905,1.5905,1.5905,1.5905,1.5905,1.6011,1.6842,1.6604,1.5957,1.6345,1.6824,0.0,1.6725,0.0,0.0,0.0,0.0,0.0,1.6791,0.0,0.0,0.0,0.0,0.0,0.0,0.0,0.0,0.0,0.0,0.0,0.0,0.0,0.0,0.0,0.0,1.7469,0.0,1.7614,0.0,0.0,0.0,0.0,0.0,1.911,1.911,1.911,1.911,1.911,1.911,1.911,1.911,1.911,1.911,1.911,1.911,1.9632,1.9904,1.991,2.0435,2.07,2.07,2.07,2.07,2.07,2.07,2.07,2.07,2.07,2.07,2.07,2.07,2.07,2.07,2.07,2.07,2.0735,1.7965,1.7965,0.0,0.0,0.0,0.0,0.0,0.0,0.0,0.0,0.0,0.0,0.0,0.0,0.0,0.0,0.0,1.5428,1.4519,0.0,1.6331,0.0,0.0,1.9231,0.0,0.0,0.0,0.0,0.0,0.0,0.0,0.0,0.0,0.0,0.0,1.5664,1.5893,1.5899,1.5905,1.5905,1.5905,1.5905,1.5905,0.0,1.5905,1.5905,1.5945,0.0,0.0,1.7473,1.7218,0.0,0.0,0.0,0.0,0.0,0.0,0.0,0.0,0.0,0.0,1.7421,0.0,0.0,0.0,0.0,1.7499,0.0,0.0,0.0,0.0,0.0,0.0,0.0,0.0,0.0,0.0,0.0,0.0,0.0,0.0,0.0,0.0,1.911,1.911,0.0,1.911,1.911,1.911,1.911,1.911,1.911,1.911,1.911,1.911,1.9632,1.9904,1.991,2.0435,2.07,2.07,2.07,2.07,2.07,2.07,2.07,2.07,2.07,2.07,2.07,2.07,2.07,2.07,2.07,2.07,2.07,1.8,0.0,0.0,0.0,0.0,0.0,0.0,1.9307,0.0,0.0,0.0,0.0,0.0,0.0,1.7425,0.0,0.0,1.7588,1.7916,1.8267,0.0,0.0,0.0,1.8098,0.0,0.0,0.0,0.0,0.0,0.0,1.5963,0.0,0.0,0.0,0.0,1.582,0.0,0.0,0.0,0.0,0.0,1.5905,1.5905,0.0,0.0,1.5923,1.6098,1.6158,0.0,1.692,1.6875,1.6657,1.7119,1.7139,1.696,1.696,1.7095,0.0,0.0,0.0,1.7385,1.7475,0.0,0.0,0.0,0.0,0.0,0.0,0.0,0.0,0.0,0.0,0.0,0.0,0.0,0.0,0.0,0.0,0.0,0.0,0.0,0.0,0.0,0.0,0.0,0.0,1.911,0.0,1.911,1.911,1.911,1.911,1.911,1.911,1.911,1.9632,1.9904,1.991,2.0435,2.07,2.07,2.07,2.07,2.07,2.07,2.07,2.07,2.07,2.07,2.07,2.07,2.07,2.07,2.07,2.07,2.07,1.8521,0.0,0.0,0.0,0.0,0.0,0.0,0.0,0.0,0.0,1.9956,0.0,1.8887,0.0,1.8868,0.0,1.8724,1.8828,1.8737,1.8725,0.0,1.7725,1.7609,0.0,0.0,0.0,0.0,0.0,0.0,1.7715,1.6809,1.658,0.0,0.0,0.0,1.5905,1.5905,0.0,1.5905,0.0,0.0,1.5905,0.0,0.0,1.6044,1.6062,0.0,1.6358,1.6485,1.6748,1.6839,1.6857,1.6948,1.7092,1.7246,1.7246,1.7361,1.7499,1.7499,1.7499,0.0,1.7499,1.7499,0.0,1.7499,0.0,0.0,0.0,0.0,0.0,0.0,0.0,0.0,0.0,0.0,0.0,0.0,1.7499,0.0,0.0,0.0,0.0,0.0,0.0,0.0,0.0,0.0,0.0,0.0,1.911,1.911,1.911,1.911,1.911,1.911,1.9632,1.9904,1.991,2.0435,2.07,2.07,2.07,2.07,2.07,2.07,2.07,2.07,2.07,2.07,2.07,2.07,2.07,2.07,2.07,2.07,2.07,1.9457,1.9502,0.0,0.0,1.9243,0.0,0.0,0.0,2.0466,0.0,2.0903,2.1037,2.1299,2.1338,2.0917,1.9852,1.9832,0.0,1.6965,1.684,0.0,0.0,1.6678,1.7115,1.8113,0.0,0.0,0.0,0.0,0.0,1.7115,1.6025,0.0,0.0,1.5905,0.0,1.5905,1.5905,1.5905,1.5905,1.5905,1.5911,1.5947,1.6201,1.6323,1.6334,1.6334,1.6495,1.6761,1.7026,1.7125,1.7153,1.7421,1.7499,1.7499,1.7499,1.7499,1.7499,1.7499,1.7499,1.7499,1.7499,0.0,0.0,0.0,0.0,1.7499,0.0,0.0,0.0,0.0,0.0,0.0,0.0,0.0,0.0,0.0,0.0,0.0,0.0,0.0,0.0,0.0,0.0,0.0,0.0,0.0,0.0,0.0,1.911,1.911,1.911,1.911,1.9116,1.9128,1.9638,1.991,1.9928,2.0458,2.07,2.07,2.07,2.07,2.07,2.07,2.07,2.07,2.07,2.07,2.07,2.07,2.07,2.07,2.07,2.07,2.07,1.9303,1.9488,1.9694,0.0,1.9773,1.9796,0.0,0.0,0.0,0.0,2.1125,2.1019,2.0361,2.0455,1.9853,1.8046,1.8795,0.0,0.0,0.0,0.0,1.8498,1.7776,1.7744,1.8597,1.832,0.0,1.7471,0.0,0.0,1.6226,1.5934,1.5825,0.0,0.0,0.0,1.5905,1.5905,1.5905,1.5905,1.5905,1.602,0.0,0.0,1.6545,1.6881,1.6881,1.6944,1.7046,1.7306,1.7397,1.7409,1.7475,1.7499,1.7499,1.7499,1.7499,1.7499,1.7499,1.7499,1.7499,1.7499,1.7499,1.7499,0.0,0.0,0.0,0.0,0.0,0.0,0.0,0.0,0.0,0.0,0.0,0.0,0.0,0.0,0.0,1.7499,0.0,0.0,0.0,0.0,0.0,0.0,0.0,0.0,1.911,1.911,1.911,1.911,1.911,1.9201,1.94,1.9728,2.0,2.02,2.0549,2.07,2.07,2.07,2.07,2.07,2.07,2.07,2.07,2.07,2.07,2.07,2.07,2.07,2.07,2.07,2.07,2.07,2.0169,0.0,0.0,2.0689,0.0,0.0,2.0552,0.0,0.0,2.1357,2.1542,0.0,2.111,2.1225,2.0889,1.9829,2.0325,0.0,0.0,0.0,0.0,1.9202,1.8623,1.8506,1.8964,1.8538,0.0,1.8071,0.0,0.0,1.663,1.6125,1.5905,0.0,0.0,1.5905,1.5905,1.5905,1.5905,1.5911,1.6038,0.0,0.0,1.6557,1.6841,1.7125,1.7234,1.7276,1.73,1.7451,1.7499,1.7499,1.7499,1.7499,1.7499,1.7499,1.7499,1.7499,1.7499,1.7499,1.7499,1.7499,1.7499,1.7499,1.7499,1.7499,1.753,0.0,0.0,0.0,0.0,0.0,0.0,0.0,0.0,0.0,0.0,0.0,0.0,0.0,1.7626,0.0,0.0,0.0,0.0,0.0,0.0,0.0,0.0,1.911,1.911,1.911,1.911,1.9237,1.9497,1.9775,2.003,2.0296,2.0562,2.07,2.07,2.07,2.07,2.07,2.07,2.07,2.07,2.07,2.07,2.07,2.07,2.07,2.07,2.07,2.07,2.07,0.0,0.0,0.0,0.0,0.0,0.0,0.0,2.1333,0.0,2.2051,0.0,2.2316,2.2673,2.2695,2.272,2.2774,0.0,2.2034,2.1094,2.08,2.03,1.9461,1.928,1.9345,1.9642,1.9215,0.0,0.0,0.0,0.0,0.0,1.6657,1.6112,0.0,0.0,0.0,0.0,1.5905,1.5923,1.5977,1.6205,1.6338,1.6454,1.6926,1.7117,1.7185,1.7415,1.7499,1.7499,1.7499,1.7499,1.7499,1.7499,1.7499,1.7499,1.7499,1.7499,1.7499,1.7499,1.7499,1.7505,1.7542,1.7548,1.756,1.7596,1.7602,1.7669,1.7898,1.794,1.8019,0.0,0.0,0.0,0.0,0.0,0.0,0.0,0.0,0.0,0.0,0.0,0.0,0.0,0.0,0.0,0.0,0.0,0.0,0.0,0.0,1.911,1.911,1.911,1.9249,1.9551,1.9783,2.0055,2.0368,2.0597,2.07,2.07,2.07,2.07,2.07,2.07,2.07,2.07,2.07,2.07,2.07,2.07,2.07,2.07,2.07,2.07,2.07,0.0,0.0,0.0,0.0,0.0,2.2218,2.2148,2.2191,2.2334,2.2624,2.2955,2.3176,2.3259,2.3259,2.2812,2.17,2.1548,0.0,0.0,0.0,0.0,2.0577,1.9707,2.0081,2.1958,1.93,1.8767,0.0,0.0,0.0,0.0,0.0,0.0,0.0,0.0,0.0,1.5905,1.5905,0.0,1.6231,1.6279,1.6569,1.6974,1.7056,1.724,1.7433,1.7481,1.7499,1.7499,1.7499,1.7499,1.7499,1.7499,1.7499,1.7499,1.7499,1.7499,1.7499,1.7499,1.7499,1.7548,1.7765,1.7835,1.7895,1.8116,1.8164,1.8161,1.8224,1.8236,1.8233,1.8281,0.0,0.0,0.0,0.0,0.0,0.0,0.0,0.0,0.0,0.0,1.8442,0.0,0.0,0.0,0.0,0.0,0.0,0.0,0.0,1.911,0.0,1.911,1.933,0.0,0.0,2.0145,2.0634,2.0682,2.07,2.07,2.07,2.07,2.07,2.07,2.07,2.07,2.07,2.07,2.07,2.07,2.07,2.07,2.07,2.07,2.07,0.0,0.0,0.0,0.0,0.0,0.0,0.0,2.3229,0.0,2.3109,2.3157,2.3247,2.3372,2.3147,2.2875,2.2619,2.2341,2.2005,2.1616,2.1324,2.1421,2.1962,2.1327,0.0,2.2581,2.0436,1.9539,2.0017,0.0,0.0,0.0,0.0,0.0,1.6696,0.0,1.5905,0.0,0.0,0.0,1.6322,1.6599,1.6871,1.7125,1.7258,1.7385,1.7499,1.7499,1.7499,1.7499,1.7499,1.7499,1.7499,1.7499,1.7499,1.7499,1.7499,1.7499,1.7524,1.7663,1.7714,1.7765,1.8037,1.8103,1.814,1.8279,1.8294,1.833,1.8484,1.8514,1.8514,1.8514,1.8514,0.0,0.0,0.0,0.0,0.0,0.0,0.0,0.0,0.0,0.0,0.0,0.0,0.0,0.0,0.0,0.0,0.0,0.0,1.911,0.0,0.0,0.0,1.9898,0.0,2.0319,2.07,2.07,2.07,2.07,2.07,2.07,2.07,2.07,2.07,2.07,2.07,2.07,2.07,2.07,2.07,2.07,2.07,2.07,2.07,0.0,2.3042,0.0,0.0,2.3412,0.0,2.4053,2.3978,2.3817,2.3596,2.3393,2.3334,2.3555,2.3184,2.3172,2.3755,2.3409,2.3322,2.3684,2.3322,2.3084,2.3084,2.2648,2.2497,2.2682,2.1115,2.0055,0.0,0.0,0.0,0.0,0.0,0.0,0.0,0.0,0.0,0.0,0.0,1.6364,1.6503,1.6932,1.7123,1.7209,1.7421,1.7499,1.7499,1.7499,1.7499,1.7499,1.7499,1.7499,1.7499,1.7499,1.7499,1.7505,1.756,1.7599,1.7638,1.7904,1.7992,1.8043,1.8321,1.8393,1.8406,1.846,1.8478,1.8532,1.8738,1.8786,1.8786,1.8786,1.8786,0.0,0.0,0.0,0.0,0.0,0.0,0.0,0.0,0.0,0.0,1.8689,0.0,0.0,0.0,0.0,0.0,1.911,0.0,0.0,0.0,0.0,1.9636,1.9898,0.0,2.0423,2.07,2.07,2.07,2.07,2.07,2.07,2.07,2.07,2.07,2.07,2.07,2.07,2.07,2.07,2.07,2.07,2.07,2.07,2.07,0.0,0.0,0.0,0.0,0.0,0.0,2.3829,2.4016,2.4152,2.4127,2.4102,2.4102,2.4115,2.4078,2.3978,2.3808,2.3746,2.3634,2.3447,2.3384,2.3359,2.3359,2.2354,2.2144,2.2946,1.988,1.9085,0.0,0.0,0.0,0.0,0.0,0.0,0.0,0.0,0.0,0.0,1.629,1.6579,1.7034,1.7089,1.7252,1.7463,1.7487,1.7499,1.7499,1.7499,1.7499,1.7499,1.7499,1.7499,1.7499,1.7499,1.7499,1.7542,1.7798,1.7865,1.7916,1.8194,1.8257,1.8333,1.8599,1.8665,1.8726,1.8961,1.9038,1.9028,1.9068,1.9058,1.9058,1.9058,1.9058,1.9046,0.0,0.0,0.0,0.0,0.0,0.0,0.0,0.0,0.0,0.0,1.8913,0.0,0.0,1.911,0.0,0.0,0.0,0.0,1.911,1.9364,1.9636,1.9898,2.0163,2.0423,2.07,2.07,2.07,2.07,2.07,2.07,2.07,2.07,2.07,2.07,2.07,2.07,2.07,2.07,2.07,2.07,2.07,2.07,2.07,0.0,0.0,0.0,0.0,0.0,0.0,0.0,2.4127,2.4202,2.4202,2.4065,2.4016,2.4177,2.3907,2.3817,2.4016,2.3882,2.3829,2.3879,2.373,2.3634,2.3634,2.2388,2.1857,2.2207,2.0277,1.9307,0.0,0.0,0.0,0.0,0.0,0.0,0.0,0.0,1.6195,1.6315,1.6634,1.6899,1.7105,1.7282,1.7403,1.7499,1.7499,1.7499,1.7499,1.7499,1.7499,1.7499,1.7499,1.7499,1.7499,1.7499,1.7602,1.7768,1.7877,1.8007,1.82,1.8472,1.8544,1.8605,1.8871,1.8937,1.8977,1.9086,1.911,1.911,1.911,1.911,1.911,1.911,1.911,1.911,0.0,0.0,0.0,0.0,0.0,0.0,0.0,0.0,0.0,0.0,0.0,0.0,0.0,0.0,0.0,0.0,0.0,0.0,1.911,0.0,1.9789,1.9904,2.0337,2.0597,2.07,2.07,2.07,2.07,2.07,2.07,2.07,2.07,2.07,2.07,2.07,2.07,2.07,2.07,2.07,2.07,2.07,2.07,2.07,2.4202,0.0,2.4202,0.0,2.4202,2.4202,2.4202,2.4202,2.4202,2.4202,2.404,2.3991,2.4177,2.3867,2.3792,2.4164,2.4028,2.4003,2.4189,2.4016,2.3771,2.3434,2.2472,0.0,2.1361,2.0285,1.925,1.8284,1.8094,0.0,0.0,0.0,0.0,0.0,1.6226,1.6396,1.6557,1.6944,1.7149,1.7234,1.7421,1.7499,1.7499,1.7499,1.7499,1.7499,1.7499,1.7499,1.7499,1.7499,1.7548,1.7629,1.7629,1.7756,1.7937,1.8094,1.8267,1.8484,1.8744,1.8816,1.8859,1.9046,1.911,1.911,1.911,1.911,1.911,1.911,1.911,1.911,1.911,1.911,1.911,1.911,0.0,0.0,0.0,0.0,0.0,0.0,1.911,1.911,1.911,1.911,0.0,0.0,0.0,0.0,0.0,0.0,0.0,0.0,0.0,0.0,2.0018,2.0476,2.07,2.07,2.07,2.07,2.07,2.07,2.07,2.07,2.07,2.07,2.07,2.07,2.07,2.07,2.07,2.07,2.07,2.07,2.07,2.07,2.4202,2.4202,2.4202,2.4202,2.4202,2.4202,2.4202,2.4202,2.4202,2.4202,2.4202,2.4202,2.4202,2.4189,2.4189,2.4202,2.4202,2.4202,2.4202,2.4202,2.3696,0.0,0.0,2.1874,2.0547,1.9391,1.8545,1.8002,0.0,0.0,1.7582,0.0,1.7123,1.6305,1.6291,1.6593,1.7095,1.7101,1.7258,1.7493,1.7499,1.7499,1.7499,1.7499,1.7499,1.7499,1.7499,1.7499,1.7499,1.7499,1.7683,1.7901,1.7901,1.7901,1.7995,1.8532,1.8695,1.875,1.9016,1.9104,1.9104,1.911,1.911,1.911,1.911,1.911,1.911,1.911,1.911,1.911,1.911,1.911,1.911,1.911,0.0,0.0,0.0,0.0,0.0,0.0,1.911,1.911,1.911,1.911,0.0,0.0,0.0,0.0,0.0,0.0,0.0,1.9485,1.9753,0.0,2.029,2.055,2.07,2.07,2.07,2.07,2.07,2.07,2.07,2.07,2.07,2.07,2.07,2.07,2.07,2.07,2.07,2.07,2.07,2.07,2.07,2.07,2.4202,2.4202,2.4202,2.4202,2.4202,2.4202,2.4202,2.4202,2.4202,2.4202,2.4202,2.4202,2.4202,2.4202,2.4202,0.0,2.4202,2.4202,0.0,2.3463,2.2878,2.2514,2.1056,2.0055,1.9617,1.8363,1.7977,1.8552,0.0,0.0,0.0,1.6706,1.6657,1.6573,1.6754,1.6944,1.7105,1.73,1.7421,1.7499,1.7499,1.7499,1.7499,1.7499,1.7499,1.7499,1.7499,1.7499,1.7524,1.772,1.7835,1.7952,1.8321,1.8457,1.8478,1.8647,1.8828,1.8985,1.9086,1.911,1.911,1.911,1.911,1.911,1.911,1.911,1.911,1.911,1.911,1.911,1.911,1.911,1.911,1.911,1.911,0.0,0.0,0.0,0.0,0.0,1.911,1.911,1.911,1.911,0.0,0.0,0.0,0.0,0.0,0.0,0.0,0.0,1.9944,0.0,2.0296,2.0573,2.07,2.07,2.07,2.07,2.07,2.07,2.07,2.07,2.07,2.07,2.07,2.07,2.07,2.07,2.07,2.07,2.07,2.07,2.07,2.07,2.4202,2.4202,2.4202,2.4202,2.4318,2.4428,2.4428,2.4557,2.4648,2.4648,2.4648,2.4648,2.4648,2.4648,0.0,2.4229,2.4202,2.4202,2.4202,2.3525,2.295,2.2514,2.1183,2.0249,1.9849,1.8604,0.0,1.8945,1.7809,1.7185,1.7083,1.7083,1.7004,1.6857,1.7034,1.7161,1.7264,1.7427,1.7499,1.7499,1.7499,1.7499,1.7499,1.7499,1.7499,1.7499,1.7499,1.756,1.7683,1.7832,1.8025,1.8279,1.8743,1.8966,1.9004,1.8894,1.8961,1.911,1.911,1.911,1.911,1.911,1.911,1.911,1.911,1.911,1.911,1.911,1.911,1.911,1.911,1.911,1.911,1.911,1.911,1.911,1.911,0.0,0.0,0.0,0.0,0.0,0.0,1.911,1.911,0.0,0.0,0.0,0.0,0.0,0.0,1.9799,2.0132,2.0345,2.0458,2.0622,2.07,2.07,2.07,2.07,2.07,2.07,2.07,2.07,2.07,2.07,2.07,2.07,2.07,2.07,2.07,2.07,2.07,2.07,2.07,2.07,2.4238,2.4248,2.4257,0.0,2.459,0.0,2.4834,2.5159,2.5398,2.5398,2.5398,2.5398,2.5398,2.5398,2.5098,2.4349,0.0,0.0,0.0,2.421,2.3681,2.2629,2.2515,2.1999,2.1008,1.9839,1.9204,1.9086,1.8885,1.8637,1.8339,1.8311,1.7888,1.7131,1.7131,1.727,1.7499,1.7499,1.7499,1.7499,1.7499,1.7499,1.7499,1.7499,1.7505,1.7524,1.7524,1.7722,1.7967,1.7955,1.8325,1.8827,1.9137,1.942,1.9561,1.9232,1.9126,1.9126,1.911,1.911,1.911,1.911,1.911,1.911,1.911,1.911,1.911,1.911,1.911,1.911,1.911,1.911,1.911,1.911,1.911,1.911,1.911,0.0,0.0,0.0,0.0,0.0,0.0,1.911,1.9116,0.0,0.0,0.0,0.0,0.0,1.9787,2.0278,2.0325,2.0452,2.07,2.07,2.07,2.07,2.07,2.07,2.07,2.07,2.07,2.07,2.07,2.07,2.07,2.07,2.07,2.07,2.07,2.07,2.07,2.07,2.07,2.07,0.0,0.0,2.4755,2.5058,2.5186,2.526,2.526,2.5333,2.5398,2.5398,2.5398,2.5398,2.5398,2.5398,2.5315,2.5122,2.5126,2.5126,2.5126,2.4293,2.3692,2.3431,2.2639,2.2072,2.182,2.0451,1.9157,1.7978,1.8534,1.8453,1.778,1.7525,1.7408,1.7409,1.7409,1.7439,1.7499,1.7499,1.7499,1.7499,1.7499,1.7499,1.7499,1.7499,1.7635,1.781,1.781,1.8136,1.8582,1.8535,1.8945,1.9471,1.9495,1.9725,1.9925,1.9577,1.9482,1.9434,1.9168,1.911,1.911,1.911,1.911,1.911,1.911,1.911,1.911,1.911,1.911,1.911,1.911,1.911,1.911,1.911,1.911,1.911,1.911,1.911,0.0,0.0,1.911,1.911,1.911,1.911,1.9173,0.0,0.0,0.0,2.0096,2.0103,2.018,2.0307,2.0507,2.064,2.07,2.07,2.07,2.07,2.07,2.07,2.07,2.07,2.07,2.07,2.07,2.07,2.07,2.07,2.07,2.07,2.07,2.07,2.07,2.07,2.07,2.07,2.503,2.5076,2.5141,2.5361,2.5544,2.5664,2.5664,2.5829,2.5958,2.5958,2.5958,2.5958,2.5958,2.5958,2.5958,2.5958,2.5609,2.5398,2.5398,2.4823,2.4477,2.4477,2.3388,2.279,2.279,2.0947,1.9326,1.7976,1.8566,1.8483,1.778,1.7598,1.7512,1.7499,1.7499,1.7499,1.7499,1.7499,1.7499,1.7499,1.7499,1.7499,1.7512,1.7647,1.7765,1.7934,1.8212,1.86,1.8998,1.9109,1.9481,1.989,2.0011,2.018,2.0297,2.011,1.9833,1.953,1.9184,1.911,1.911,1.911,1.911,1.911,1.911,1.911,1.911,1.911,1.911,1.911,1.911,1.911,1.911,1.911,1.911,1.911,1.911,1.911,0.0,1.911,1.911,1.911,1.911,1.9213,1.9346,1.9491,1.9733,0.0,2.0278,2.0428,2.0471,2.0471,2.0628,2.07,2.07,2.07,2.07,2.07,2.07,2.07,2.07,2.07,2.07,2.07,2.07,2.07,2.07,2.07,2.07,2.07,2.07,2.07,2.07,2.07,2.07,2.07,2.5484,2.5489,2.5508,2.5572,2.5857,2.609,2.609,2.6389,2.6605,2.6605,2.6605,2.6605,2.6605,2.6605,2.6605,2.6605,2.5985,2.5581,2.5581,2.5415,2.531,2.531,2.4152,2.3504,2.3504,2.1385,1.9682,1.8481,1.8714,1.8538,1.8002,1.7951,1.7769,1.7499,1.7499,1.7499,1.7499,1.7499,1.7499,1.7499,1.7499,1.7518,1.7599,1.7801,1.7979,1.8158,1.8671,1.91,1.9456,1.9684,1.9975,2.0297,2.0529,2.0624,2.0672,2.0609,2.0205,1.9673,1.9344,1.92,1.9152,1.9104,1.911,1.911,1.911,1.911,1.911,1.911,1.911,1.911,1.911,1.911,1.911,1.911,1.911,1.911,1.911,0.0,1.911,1.911,1.911,1.9122,1.9165,1.937,1.9533,1.9618,2.0036,2.0325,2.0368,2.0585,2.07,2.07,2.07,2.07,2.07,2.07,2.07,2.07,2.07,2.07,2.07,2.07,2.07,2.07,2.07,2.07,2.07,2.07,2.07,2.07,2.07,2.07,2.07,2.07,2.07,2.07,2.5842,2.5907,2.6003,2.6348,2.6467,2.6504,2.6504,2.6559,2.6605,2.6605,2.6605,2.6605,2.6605,2.6605,2.6605,2.6605,2.6485,2.6412,2.6412,2.546,2.4882,2.4882,2.3734,2.3094,2.3094,2.1734,2.0302,1.8824,1.86,1.8311,1.7987,1.7711,1.7543,1.7499,1.7499,1.7499,1.7499,1.7499,1.7499,1.7499,1.7499,1.7647,1.7832,1.7889,1.8353,1.9004,1.9094,1.9663,2.0347,2.0116,2.0443,2.0903,2.0672,2.0792,2.0967,2.0688,2.0529,2.037,2.0043,1.9749,1.945,1.9168,1.911,1.911,1.911,1.911,1.911,1.911,1.911,1.911,1.911,1.911,1.911,1.911,1.911,1.911,1.911,0.0,1.911,1.911,1.911,1.9195,1.9418,1.9479,1.9691,2.0133,2.0248,2.0393,2.0634,2.0682,2.07,2.07,2.07,2.07,2.07,2.07,2.07,2.07,2.07,2.07,2.07,2.07,2.07,2.07,2.07,2.07,2.07,2.07,2.07,2.07,2.07,2.07,2.07,2.07,2.07,2.07,2.6288,2.6325,2.6389,2.6568,2.6605,2.6605,2.6605,2.6605,2.6605,2.6605,2.6605,2.6605,2.6605,2.6605,2.6605,2.6605,2.6605,2.6313,2.5665,2.5105,2.4792,2.4792,2.3016,2.173,2.1081,2.0529,1.9888,1.917,1.901,1.8777,1.8486,1.8144,1.7983,1.7962,1.7646,1.7602,1.7755,1.7587,1.7602,1.7782,1.7929,1.8177,1.8462,1.8755,1.9115,1.9515,1.9846,2.0223,2.0593,2.0624,2.084,2.1077,2.0919,2.0982,2.1077,2.0903,2.0609,2.0297,2.0138,1.9861,1.9561,1.9408,1.9232,1.911,1.911,1.911,1.911,1.911,1.911,1.911,1.911,1.911,1.911,1.911,1.911,0.0,1.911,1.911,1.9142,1.9298,1.9322,1.9425,1.968,1.9854,2.0024,2.0272,2.0423,2.0573,2.0694,2.07,2.07,2.07,2.07,2.07,2.07,2.07,2.07,2.07,2.07,2.07,2.07,2.07,2.07,2.07,2.07,2.07,2.07,2.07,2.07,2.07,2.07,2.07,2.07,2.07,2.07,2.07,2.6605,2.6605,2.6605,2.6605,2.6605,2.6605,2.6605,2.6605,2.6605,2.6605,2.6605,2.6605,2.6605,2.6605,2.6605,2.6605,2.6341,2.5798,2.4861,2.427,2.3963,2.3963,2.1922,2.0342,1.9424,1.9395,1.9366,1.9272,1.9272,1.9112,1.8779,1.8517,1.8407,1.8377,1.7924,1.7851,1.8089,1.7904,1.7965,1.8231,1.8506,1.88,1.9122,1.9533,1.9784,1.9967,2.0429,2.0656,2.0767,2.1014,2.1093,2.1093,2.1093,2.1093,2.1093,2.1093,2.0736,2.0329,2.0234,2.0036,1.9801,1.9743,1.9456,1.9216,1.9216,1.9158,1.911,1.911,1.911,1.911,1.911,1.911,1.911,1.911,0.0,1.9185,0.0,1.9255,1.9354,1.9576,1.9594,1.9709,1.997,2.0175,2.0337,2.0398,2.0591,2.07,2.07,2.07,2.07,2.07,2.07,2.07,2.07,2.07,2.07,2.07,2.07,2.07,2.07,2.07,2.07,2.07,2.07,2.07,2.07,2.07,2.07,2.07,2.07,2.07,2.07,2.07,2.07,2.07,2.6605,2.6605,2.6605,2.6605,2.6605,2.6605,2.6605,2.6605,2.6605,2.6605,2.6605,2.6605,2.6605,2.6605,2.6605,2.6605,2.5583,2.4898,2.4814,2.2714,2.1474,2.1474,2.0213,1.9496,1.9395,1.9395,1.9243,1.8939,1.8939,1.8765,1.8436,1.8407,1.8407,1.8407,1.8348,1.8348,1.839,1.8686,1.8809,1.8864,1.913,1.939,1.9657,1.968,2.0053,2.0535,2.0586,2.0799,2.1077,2.1093,2.1093,2.1093,2.1093,2.1093,2.1093,2.1093,2.1077,2.0951,2.0656,2.0545,2.045,2.0138,1.9807,1.9561,1.9561,1.9328,1.911,1.911,1.911,1.911,1.911,1.911,1.911,1.911,0.0,0.0,1.9467,1.968,1.9849,1.9873,1.9873,1.9976,2.0236,2.0284,2.0393,2.0658,2.0694,2.07,2.07,2.07,2.07,2.07,2.07,2.07,2.07,2.07,2.07,2.07,2.07,2.07,2.07,2.07,2.07,2.07,2.07,2.07,2.07,2.07,2.07,2.07,2.07,2.07,2.07,2.07,2.07,2.07,2.6605,2.6605,2.6605,2.6605,2.6605,2.6605,2.6605,2.6605,2.6605,2.6605,2.6605,2.6605,2.6605,2.6605,2.6605,2.6605,2.55,2.4792,2.4792,2.3241,2.1652,2.0147,1.9634,1.9395,1.9395,1.9395,1.9336,1.9214,1.9214,1.9141,1.9025,1.8815,1.8823,1.8996,1.8596,1.8613,1.8963,1.8915,1.9123,1.9482,1.9751,2.0034,2.0331,2.0493,2.0709,2.091,2.091,2.0982,2.1093,2.1093,2.1093,2.1093,2.1093,2.1093,2.1149,2.1345,2.1415,2.1423,2.1458,2.1037,2.06,2.0654,2.0248,1.9887,2.0055,1.9836,1.9596,1.9596,1.9596,1.9596,1.9596,1.9596,1.9596,1.9596,0.0,1.9747,1.9747,1.9837,1.9964,2.0127,2.0145,2.0248,2.0514,2.0555,2.0597,2.0694,2.07,2.07,2.07,2.07,2.07,2.07,2.07,2.07,2.07,2.07,2.07,2.07,2.07,2.07,2.07,2.07,2.07,2.07,2.07,2.07,2.07,2.07,2.07,2.07,2.07,2.07,2.07,2.07,2.07,2.07,2.6605,2.6605,2.6605,2.6605,2.6605,2.6605,2.6605,2.6605,2.6605,2.6605,2.6605,2.6605,2.6605,2.6605,2.6605,2.6605,2.55,2.4792,2.4792,2.332,2.1694,2.0032,1.9591,1.9395,1.9395,1.9395,1.9395,1.9395,1.9395,1.9395,1.9395,1.917,1.9216,1.952,1.9039,1.9122,1.9583,1.9501,1.9709,2.0101,2.0375,2.0612,2.0851,2.1036,2.1093,2.1093,2.1093,2.1093,2.1093,2.1093,2.1093,2.1122,2.1223,2.1309,2.1423,2.1662,2.1723,2.177,2.1947,2.1528,2.1083,2.1263,2.0794,2.0327,2.0514,2.0214,1.9904,1.9904,1.9904,1.9904,1.9904,1.9904,1.9904,1.9904,1.997,2.0024,2.0024,2.0097,2.0218,2.0393,2.0434,2.0507,2.0688,2.07,2.07,2.07,2.07,2.07,2.07,2.07,2.07,2.07,2.07,2.07,2.07,2.07,2.07,2.07,2.07,2.07,2.07,2.07,2.07,2.07,2.07,2.07,2.07,2.07,2.07,2.07,2.07,2.07,2.07,2.07,2.07,2.07,2.6605,2.6605,2.6605,2.6605,2.6605,2.6605,2.6605,2.6605,2.6605,2.6605,2.6605,2.6605,2.6605,2.6605,2.6605,2.6605,2.55,2.4792,2.4792,2.2559,2.1217,2.1217,2.0046,1.9395,1.9395,1.9395,1.9395,1.9395,1.9395,1.9395,1.9395,1.9401,1.9555,1.98,1.9806,1.9952,2.0224,2.0563,2.0706,2.0739,2.0995,2.1093,2.1093,2.1093,2.1093,2.1093,2.1093,2.1093,2.1093,2.1093,2.1093,2.1162,2.1495,2.179,2.2001,2.2007,2.2007,2.2007,2.2007,2.2007,2.2007,2.2007,2.1446,2.09,2.0906,2.0387,1.991,1.991,1.991,1.991,1.991,1.991,1.991,1.991,2.0127,2.0296,2.0296,2.052,2.07,2.07,2.07,2.07,2.07,2.07,2.07,2.07,2.07,2.07,2.07,2.07,2.07,2.07,2.07,2.07,2.07,2.07,2.07,2.07,2.07,2.07,2.07,2.07,2.07,2.07,2.07,2.07,2.07,2.07,2.07,2.07,2.07,2.07,2.07,2.07,2.07,2.07,2.6605,2.6605,2.6605,2.6605,2.6605,2.6605,2.6605,2.6605,2.6605,2.6605,2.6605,2.6605,2.6605,2.6605,2.6605,2.6605,2.55,2.4792,2.4792,2.3325,2.246,2.246,2.05,1.9395,1.9395,1.9395,1.9395,1.9395,1.9395,1.9395,1.9401,1.9594,1.972,1.9806,1.9998,2.0252,2.0563,2.0657,2.0811,2.0989,2.1076,2.1093,2.1093,2.1093,2.1093,2.1093,2.1093,2.1093,2.1093,2.1093,2.1265,2.1502,2.1796,2.1934,2.2041,2.2231,2.2275,2.2338,2.2579,2.2633,2.2586,2.2338,2.1739,2.1236,2.1473,2.0978,2.047,2.047,2.047,2.047,2.047,2.047,2.047,2.047,2.0537,2.0585,2.0585,2.0652,2.07,2.07,2.07,2.07,2.07,2.07,2.07,2.07,2.07,2.07,2.07,2.07,2.07,2.07,2.07,2.07,2.07,2.07,2.07,2.07,2.07,2.07,2.07,2.07,2.07,2.07,2.07,2.07,2.07,2.07,2.07,2.07,2.07,2.07,2.07,2.07,2.07,2.07,2.6605,2.6605,2.6605,2.6605,2.6605,2.6605,2.6605,2.6605,2.6605,2.6605,2.6605,2.6605,2.6605,2.6605,2.6605,2.6605,2.5921,2.5514,2.5514,2.4376,2.3502,2.3016,2.1145,1.9888,1.9409,1.9395,1.9395,1.9395,1.9515,1.9568,1.9561,1.9833,2.0034,2.0154,2.0334,2.0575,2.0864,2.0864,2.0949,2.1093,2.1093,2.1093,2.1093,2.1093,2.1093,2.1093,2.1093,2.1182,2.1299,2.1299,2.1573,2.194,2.2121,2.2255,2.2382,2.2539,2.2592,2.2632,2.2847,2.2893,2.2853,2.2656,2.2039,2.1505,2.1556,2.1116,2.07,2.07,2.07,2.07,2.07,2.07,2.07,2.07,2.07,2.07,2.07,2.07,2.07,2.07,2.07,2.07,2.07,2.07,2.07,2.07,2.07,2.07,2.07,2.07,2.07,2.07,2.07,2.07,2.07,2.07,2.07,2.07,2.07,2.07,2.07,2.07,2.07,2.07,2.07,2.07,2.07,2.07,2.07,2.07,2.07,2.07,2.07,2.07,2.07,2.07,2.6605,2.6605,2.6605,2.6605,2.6605,2.6605,2.6605,2.6605,2.6605,2.6605,2.6605,2.6605,2.6605,2.6605,2.6605,2.6605,2.6605,2.6605,2.6605,2.5376,2.4145,2.3053,2.1767,2.0557,1.9464,1.9435,1.9435,1.9435,1.9693,1.984,1.9846,2.0119,2.0406,2.0706,2.0739,2.0877,2.1093,2.1093,2.1093,2.1093,2.1093,2.1093,2.1093,2.1093,2.1122,2.1133,2.1133,2.1352,2.1645,2.1656,2.2001,2.2408,2.2435,2.2645,2.2893,2.2893,2.2893,2.2893,2.2893,2.2893,2.2893,2.2859,2.2345,2.1749,2.1334,2.0977,2.07,2.07,2.07,2.07,2.07,2.07,2.07,2.07,2.07,2.07,2.07,2.07,2.07,2.07,2.07,2.07,2.07,2.07,2.07,2.07,2.07,2.07,2.07,2.07,2.07,2.07,2.07,2.07,2.07,2.07,2.07,2.07,2.07,2.07,2.07,2.07,2.07,2.07,2.07,2.07,2.07,2.07,2.07,2.07,2.07,2.07,2.07,2.07,2.07,2.07,2.6605,2.6605,2.6605,2.6605,2.6605,2.6605,2.6605,2.6605,2.6605,2.6605,2.6605,2.6605,2.6605,2.6605,2.6605,2.6605,2.6605,2.6605,2.6605,2.4584,2.3277,2.3002,2.1141,1.998,1.9721,1.9706,1.9706,1.9706,1.9985,2.011,2.0117,2.0441,2.063,2.0704,2.0915,2.1049,2.1093,2.1093,2.1093,2.1093,2.1093,2.1093,2.1093,2.1093,2.1256,2.1489,2.1489,2.1676,2.1947,2.2158,2.2295,2.2442,2.2709,2.2847,2.2893,2.2893,2.2893,2.2893,2.2893,2.2893,2.2832,2.2516,2.231,2.2104,2.1749,2.1168,2.07,2.07,2.07,2.07,2.07,2.07,2.07,2.07,2.07,2.07,2.07,2.07,2.07,2.07,2.07,2.07,2.07,2.07,2.07,2.07,2.07,2.07,2.07,2.07,2.07,2.07,2.07,2.07,2.07,2.07,2.07,2.07,2.07,2.07,2.07,2.07,2.07,2.07,2.07,2.07,2.07,2.07,2.07,2.07,2.07,2.07,2.07,2.07,2.07,2.07,2.6605,2.6605,2.6605,2.6605,2.6605,2.6605,2.6605,2.6605,2.6605,2.6605,2.6605,2.6605,2.6605,2.6605,2.6605,2.6605,2.6605,2.6409,2.5959,2.4749,2.3591,2.2572,2.145,2.0577,2.0007,2.0147,2.0147,1.9992,2.0286,2.0441,2.0454,2.0748,2.0898,2.0904,2.1042,2.1093,2.1093,2.1093,2.1093,2.1093,2.1093,2.1093,2.1122,2.1285,2.1448,2.1618,2.1743,2.196,2.2238,2.2549,2.2649,2.2676,2.2847,2.2893,2.2893,2.2893,2.2893,2.2893,2.2893,2.2893,2.2849,2.2636,2.2448,2.2156,2.1628,2.1214,2.0891,2.0735,2.07,2.07,2.07,2.07,2.07,2.07,2.07,2.07,2.07,2.07,2.07,2.07,2.07,2.07,2.07,2.07,2.07,2.07,2.07,2.07,2.07,2.07,2.07,2.07,2.07,2.07,2.07,2.07,2.07,2.07,2.07,2.07,2.07,2.07,2.07,2.07,2.07,2.07,2.07,2.07,2.07,2.07,2.07,2.07,2.07,2.07,2.07,2.07,2.6605,2.6605,2.6605,2.6605,2.6605,2.6605,2.6605,2.6605,2.6605,2.6605,2.6605,2.6605,2.6605,2.666,2.6706,2.6706,2.6555,2.6127,2.5346,2.4893,2.3865,2.2081,2.1862,2.1317,2.0307,2.0595,2.0608,2.0292,2.0608,2.0771,2.0771,2.0995,2.1093,2.1093,2.1093,2.1093,2.1093,2.1093,2.1093,2.1093,2.1093,2.112,2.1216,2.1495,2.1665,2.177,2.1994,2.2245,2.2532,2.2813,2.2893,2.2893,2.2893,2.2893,2.2893,2.2893,2.2893,2.2893,2.2893,2.2893,2.2893,2.2893,2.2654,2.2224,2.1535,2.13,2.1127,2.0839,2.0735,2.07,2.07,2.07,2.07,2.07,2.07,2.07,2.07,2.07,2.07,2.07,2.07,2.07,2.07,2.07,2.07,2.07,2.07,2.07,2.07,2.07,2.07,2.07,2.07,2.07,2.07,2.07,2.07,2.07,2.07,2.07,2.07,2.07,2.07,2.07,2.07,2.07,2.07,2.07,2.07,2.07,2.07,2.07,2.07,2.07,2.07,2.07,2.6605,2.6605,2.6605,2.6605,2.6605,2.6605,2.6605,2.6605,2.6605,2.6605,2.6605,2.6605,2.6605,2.6907,2.7123,2.7123,2.6378,2.5855,2.5733,2.3663,2.229,2.2013,2.1287,2.0793,2.0637,2.0902,2.0909,2.063,2.0909,2.1049,2.1049,2.1073,2.1093,2.1093,2.1093,2.1093,2.1093,2.1093,2.1093,2.1093,2.1093,2.1263,2.1545,2.1585,2.1897,2.2305,2.2328,2.2569,2.284,2.288,2.2893,2.2893,2.2893,2.2893,2.2893,2.2893,2.2893,2.2893,2.2893,2.2893,2.2893,2.2893,2.2859,2.2705,2.2259,2.1656,2.1196,2.1144,2.0908,2.07,2.07,2.07,2.07,2.07,2.07,2.07,2.07,2.07,2.07,2.07,2.07,2.07,2.07,2.07,2.07,2.07,2.07,2.07,2.07,2.07,2.07,2.07,2.07,2.07,2.07,2.07,2.07,2.07,2.07,2.07,2.07,2.07,2.07,2.07,2.07,2.07,2.07,2.07,2.07,2.07,2.07,2.07,2.07,2.07,2.07,2.07,2.6605,2.6605,2.6605,2.6605,2.6605,2.6605,2.6605,2.6605,2.6605,2.6605,2.6605,2.6687,2.6907,2.7298,2.7231,2.648,2.6033,2.5275,2.4047,2.2894,2.2051,2.1514,2.1138,2.0915,2.0915,2.1042,2.1049,2.0915,2.1049,2.1093,2.1093,2.1093,2.1093,2.1093,2.1093,2.1093,2.1093,2.1093,2.1203,2.1372,2.1372,2.1562,2.1843,2.1994,2.2191,2.2422,2.2605,2.2769,2.2893,2.2893,2.2893,2.2893,2.2893,2.2893,2.2893,2.2893,2.2893,2.2893,2.2893,2.2893,2.2893,2.2893,2.2893,2.2849,2.2688,2.2207,2.1691,2.1283,2.1075,2.0925,2.0735,2.07,2.07,2.07,2.07,2.07,2.07,2.07,2.07,2.07,2.07,2.07,2.07,2.07,2.07,2.07,2.07,2.07,2.07,2.07,2.07,2.07,2.07,2.07,2.07,2.07,2.07,2.07,2.07,2.07,2.07,2.07,2.07,2.07,2.07,2.07,2.07,2.07,2.07,2.07,2.07,2.07,2.07,2.07,2.07,2.07]}]]